Time,TemperatureF,DewpointF,PressureIn,WindDirection,WindDirectionDegrees,WindSpeedMPH,WindSpeedGustMPH,Humidity,HourlyPrecipIn,Conditions,Clouds,dailyrainin,SolarRadiationWatts/m^2,SoftwareType,DateUTC
2013-06-02 00:00:00,63.9,60.0,29.48,SSW,194,0.0,0.0,87,0.00,,OVC060,0.13,0.00,VWS V14.01,2013-06-02 04:00:00,
2013-06-02 00:01:00,63.7,59.8,29.48,SSW,194,0.0,0.0,87,0.00,,OVC060,0.00,0.00,VWS V14.01,2013-06-02 04:01:00,
2013-06-02 00:02:00,63.7,59.8,29.48,SSW,194,0.0,0.0,87,0.00,,OVC060,0.00,0.00,VWS V14.01,2013-06-02 04:02:00,
2013-06-02 00:03:00,63.7,59.8,29.48,SSW,194,0.0,0.0,87,0.00,,OVC060,0.00,0.00,VWS V14.01,2013-06-02 04:03:00,
2013-06-02 00:04:00,63.5,59.6,29.48,SSW,194,0.0,0.0,87,0.00,,OVC060,0.00,0.00,VWS V14.01,2013-06-02 04:04:00,
2013-06-02 00:05:00,63.5,59.6,29.48,SSW,194,0.0,0.0,87,0.00,,OVC060,0.00,0.00,VWS V14.01,2013-06-02 04:05:00,
2013-06-02 00:06:00,63.5,59.6,29.48,SSW,194,0.0,0.0,87,0.00,,OVC060,0.00,0.00,VWS V14.01,2013-06-02 04:06:00,
2013-06-02 00:07:00,63.5,59.6,29.48,SSW,194,0.0,0.0,87,0.00,,OVC060,0.00,0.00,VWS V14.01,2013-06-02 04:07:00,
2013-06-02 00:08:00,63.4,59.5,29.48,SSW,194,0.0,0.0,87,0.00,,OVC060,0.00,0.00,VWS V14.01,2013-06-02 04:08:00,
2013-06-02 00:09:00,63.4,59.5,29.48,SSW,194,0.0,0.0,87,0.00,,OVC060,0.00,0.00,VWS V14.01,2013-06-02 04:09:00,
2013-06-02 00:10:00,63.4,59.5,29.48,SSW,194,0.0,0.0,87,0.00,,OVC060,0.00,0.00,VWS V14.01,2013-06-02 04:10:00,
2013-06-02 00:11:00,63.4,59.5,29.48,SSW,194,0.0,0.0,87,0.00,,OVC060,0.00,0.00,VWS V14.01,2013-06-02 04:11:00,
2013-06-02 00:12:00,63.2,59.3,29.48,SSW,194,0.0,0.0,87,0.00,,OVC060,0.00,0.00,VWS V14.01,2013-06-02 04:12:00,
2013-06-02 00:13:00,63.2,59.3,29.48,SSW,194,0.0,0.0,87,0.00,,OVC060,0.00,0.00,VWS V14.01,2013-06-02 04:13:00,
2013-06-02 00:14:00,63.2,59.6,29.48,SSW,194,0.0,0.0,88,0.00,,OVC060,0.00,0.00,VWS V14.01,2013-06-02 04:14:00,
2013-06-02 00:15:00,63.2,59.6,29.48,SSW,194,0.0,0.0,88,0.00,,OVC060,0.00,0.00,VWS V14.01,2013-06-02 04:15:00,
2013-06-02 00:16:00,63.2,59.6,29.48,SSW,194,0.0,0.0,88,0.00,,OVC060,0.00,0.00,VWS V14.01,2013-06-02 04:16:00,
2013-06-02 00:17:00,63.1,59.5,29.48,SSW,194,0.0,0.0,88,0.00,,OVC060,0.00,0.00,VWS V14.01,2013-06-02 04:17:00,
2013-06-02 00:18:00,63.1,59.5,29.48,SSW,194,0.0,0.0,88,0.00,,OVC060,0.00,0.00,VWS V14.01,2013-06-02 04:18:00,
2013-06-02 00:19:00,63.1,59.5,29.48,SSW,194,0.0,0.0,88,0.00,,OVC060,0.00,0.00,VWS V14.01,2013-06-02 04:19:00,
2013-06-02 00:20:00,63.1,59.5,29.48,SSW,194,0.0,0.0,88,0.00,,SCT100,0.00,0.00,VWS V14.01,2013-06-02 04:20:00,
2013-06-02 00:21:00,62.9,59.3,29.48,SSW,194,0.0,0.0,88,0.00,,SCT100,0.00,0.00,VWS V14.01,2013-06-02 04:21:00,
2013-06-02 00:22:00,62.9,59.3,29.48,SSW,193,0.0,0.0,88,0.00,,SCT100,0.00,0.00,VWS V14.01,2013-06-02 04:22:00,
2013-06-02 00:23:00,62.9,59.3,29.48,SSW,194,0.0,0.0,88,0.00,,SCT100,0.00,0.00,VWS V14.01,2013-06-02 04:23:00,
2013-06-02 00:24:00,62.9,59.3,29.48,SSW,194,0.0,0.0,88,0.00,,SCT100,0.00,0.00,VWS V14.01,2013-06-02 04:24:00,
2013-06-02 00:25:00,62.9,59.3,29.48,SSW,194,0.0,0.0,88,0.00,,SCT100,0.00,0.00,VWS V14.01,2013-06-02 04:25:00,
2013-06-02 00:26:00,62.7,59.1,29.48,South,188,0.0,0.0,88,0.00,,SCT100,0.00,0.00,VWS V14.01,2013-06-02 04:26:00,
2013-06-02 00:27:00,62.7,59.1,29.48,South,188,0.0,0.0,88,0.00,,SCT100,0.00,0.00,VWS V14.01,2013-06-02 04:27:00,
2013-06-02 00:28:00,62.7,59.1,29.48,South,188,0.0,0.0,88,0.00,,SCT100,0.00,0.00,VWS V14.01,2013-06-02 04:28:00,
2013-06-02 00:29:00,62.7,59.1,29.48,South,188,0.0,0.0,88,0.00,,SCT100,0.00,0.00,VWS V14.01,2013-06-02 04:29:00,
2013-06-02 00:30:00,62.6,59.0,29.48,South,188,0.0,0.0,88,0.00,,SCT100,0.00,0.00,VWS V14.01,2013-06-02 04:30:00,
2013-06-02 00:31:00,62.6,59.0,29.48,South,188,0.0,0.0,88,0.00,,SCT100,0.00,0.00,VWS V14.01,2013-06-02 04:31:00,
2013-06-02 00:32:00,62.6,59.0,29.48,South,188,0.0,0.0,88,0.00,,SCT100,0.00,0.00,VWS V14.01,2013-06-02 04:32:00,
2013-06-02 00:33:00,62.6,59.0,29.48,WNW,288,0.0,0.0,88,0.00,,SCT100,0.00,0.00,VWS V14.01,2013-06-02 04:33:00,
2013-06-02 00:34:00,62.6,59.0,29.48,WNW,288,0.0,0.0,88,0.00,,SCT100,0.00,0.00,VWS V14.01,2013-06-02 04:34:00,
2013-06-02 00:35:00,62.4,58.8,29.48,NNE,20,0.0,0.0,88,0.00,,SCT100,0.00,0.00,VWS V14.01,2013-06-02 04:35:00,
2013-06-02 00:36:00,62.4,58.8,29.48,NNE,20,0.0,0.0,88,0.00,,SCT100,0.00,0.00,VWS V14.01,2013-06-02 04:36:00,
2013-06-02 00:37:00,62.4,58.8,29.48,NNE,20,0.0,0.0,88,0.00,,SCT100,0.00,0.00,VWS V14.01,2013-06-02 04:37:00,
2013-06-02 00:38:00,62.4,58.8,29.48,NNE,20,1.0,0.0,88,0.00,,SCT100,0.00,0.00,VWS V14.01,2013-06-02 04:38:00,
2013-06-02 00:39:00,62.4,58.8,29.48,NNE,20,0.0,0.0,88,0.00,,SCT100,0.00,0.00,VWS V14.01,2013-06-02 04:39:00,
2013-06-02 00:40:00,62.3,58.7,29.48,NNE,20,0.0,0.0,88,0.00,,SCT100,0.00,0.00,VWS V14.01,2013-06-02 04:40:00,
2013-06-02 00:41:00,62.3,59.0,29.48,NNE,20,0.0,0.0,89,0.00,,SCT100,0.00,0.00,VWS V14.01,2013-06-02 04:41:00,
2013-06-02 00:42:00,62.3,59.0,29.48,NNE,20,0.0,0.0,89,0.00,,SCT100,0.00,0.00,VWS V14.01,2013-06-02 04:42:00,
2013-06-02 00:43:00,62.3,59.0,29.48,NNE,20,0.0,0.0,89,0.00,,SCT100,0.00,0.00,VWS V14.01,2013-06-02 04:43:00,
2013-06-02 00:44:00,62.3,59.0,29.48,NNE,20,0.0,0.0,89,0.00,,SCT100,0.00,0.00,VWS V14.01,2013-06-02 04:44:00,
2013-06-02 00:45:00,62.3,59.0,29.49,NNE,20,0.0,0.0,89,0.00,,SCT100,0.00,0.00,VWS V14.01,2013-06-02 04:45:00,
2013-06-02 00:46:00,62.1,58.8,29.49,NNE,20,0.0,0.0,89,0.00,,SCT100,0.00,0.00,VWS V14.01,2013-06-02 04:46:00,
2013-06-02 00:47:00,62.1,58.8,29.49,NNE,20,0.0,0.0,89,0.00,,SCT100,0.00,0.00,VWS V14.01,2013-06-02 04:47:00,
2013-06-02 00:48:00,62.1,58.8,29.49,NNE,20,0.0,0.0,89,0.00,,SCT100,0.00,0.00,VWS V14.01,2013-06-02 04:48:00,
2013-06-02 00:49:00,62.1,58.8,29.49,NNE,20,0.0,0.0,89,0.00,,SCT100,0.00,0.00,VWS V14.01,2013-06-02 04:49:00,
2013-06-02 00:50:00,62.1,58.8,29.49,NNE,20,0.0,0.0,89,0.00,,SCT100,0.00,0.00,VWS V14.01,2013-06-02 04:50:00,
2013-06-02 00:51:00,62.0,58.7,29.49,NNE,20,0.0,0.0,89,0.00,,SCT100,0.00,0.00,VWS V14.01,2013-06-02 04:51:00,
2013-06-02 00:52:00,62.0,58.7,29.49,NNE,20,0.0,0.0,89,0.00,,SCT100,0.00,0.00,VWS V14.01,2013-06-02 04:52:00,
2013-06-02 00:53:00,62.0,58.7,29.49,NNE,20,0.0,0.0,89,0.00,,SCT100,0.00,0.00,VWS V14.01,2013-06-02 04:53:00,
2013-06-02 00:54:00,62.0,58.7,29.49,NNE,20,0.0,0.0,89,0.00,,SCT100,0.00,0.00,VWS V14.01,2013-06-02 04:54:00,
2013-06-02 00:55:00,62.0,58.7,29.49,NNE,20,0.0,0.0,89,0.00,,SCT100,0.00,0.00,VWS V14.01,2013-06-02 04:55:00,
2013-06-02 00:56:00,62.0,58.7,29.49,NNE,20,0.0,0.0,89,0.00,,SCT100,0.00,0.00,VWS V14.01,2013-06-02 04:56:00,
2013-06-02 00:57:00,61.8,58.5,29.49,NNE,20,0.0,0.0,89,0.00,,SCT100,0.00,0.00,VWS V14.01,2013-06-02 04:57:00,
2013-06-02 00:58:00,61.8,58.5,29.49,NNE,20,0.0,0.0,89,0.00,,SCT100,0.00,0.00,VWS V14.01,2013-06-02 04:58:00,
2013-06-02 00:59:00,61.8,58.5,29.49,NNE,20,0.0,0.0,89,0.00,,SCT100,0.00,0.00,VWS V14.01,2013-06-02 04:59:00,
2013-06-02 01:00:00,61.8,58.5,29.49,NNE,20,0.0,0.0,89,0.00,,SCT100,0.00,0.00,VWS V14.01,2013-06-02 05:00:00,
2013-06-02 01:01:00,61.8,58.5,29.49,NNE,20,0.0,0.0,89,0.00,,SCT100,0.00,0.00,VWS V14.01,2013-06-02 05:01:00,
2013-06-02 01:02:00,61.8,58.5,29.49,NNE,20,0.0,0.0,89,0.00,,SCT100,0.00,0.00,VWS V14.01,2013-06-02 05:02:00,
2013-06-02 01:03:00,61.6,58.3,29.49,NNE,20,1.0,0.0,89,0.00,,SCT100,0.00,0.00,VWS V14.01,2013-06-02 05:03:00,
2013-06-02 01:04:00,61.6,58.6,29.49,NNE,20,0.0,0.0,90,0.00,,SCT100,0.00,0.00,VWS V14.01,2013-06-02 05:04:00,
2013-06-02 01:05:00,61.6,58.6,29.49,NNE,20,0.0,0.0,90,0.00,,SCT100,0.00,0.00,VWS V14.01,2013-06-02 05:05:00,
2013-06-02 01:06:00,61.6,58.6,29.49,WSW,243,0.0,0.0,90,0.00,,SCT100,0.00,0.00,VWS V14.01,2013-06-02 05:06:00,
2013-06-02 01:07:00,61.6,58.6,29.49,WSW,243,0.0,0.0,90,0.00,,SCT100,0.00,0.00,VWS V14.01,2013-06-02 05:07:00,
2013-06-02 01:08:00,61.6,58.6,29.49,NE,51,0.0,0.0,90,0.00,,SCT100,0.00,0.00,VWS V14.01,2013-06-02 05:08:00,
2013-06-02 01:09:00,61.5,58.5,29.49,NE,52,0.0,0.0,90,0.00,,SCT100,0.00,0.00,VWS V14.01,2013-06-02 05:09:00,
2013-06-02 01:10:00,61.5,58.5,29.49,NE,52,0.0,0.0,90,0.00,,SCT100,0.00,0.00,VWS V14.01,2013-06-02 05:10:00,
2013-06-02 01:11:00,61.5,58.5,29.49,NE,52,0.0,0.0,90,0.00,,SCT100,0.00,0.00,VWS V14.01,2013-06-02 05:11:00,
2013-06-02 01:12:00,61.5,58.5,29.49,NE,52,0.0,0.0,90,0.00,,SCT100,0.00,0.00,VWS V14.01,2013-06-02 05:12:00,
2013-06-02 01:13:00,61.5,58.5,29.49,NE,52,0.0,0.0,90,0.00,,SCT100,0.00,0.00,VWS V14.01,2013-06-02 05:13:00,
2013-06-02 01:14:00,61.5,58.5,29.49,NE,52,0.0,0.0,90,0.00,,SCT100,0.00,0.00,VWS V14.01,2013-06-02 05:14:00,
2013-06-02 01:15:00,61.5,58.5,29.49,NE,52,0.0,0.0,90,0.00,,SCT100,0.00,0.00,VWS V14.01,2013-06-02 05:15:00,
2013-06-02 01:16:00,61.5,58.5,29.49,NE,52,0.0,0.0,90,0.00,,SCT100,0.00,0.00,VWS V14.01,2013-06-02 05:16:00,
2013-06-02 01:17:00,61.3,58.3,29.49,NE,52,0.0,0.0,90,0.00,,SCT100,0.00,0.00,VWS V14.01,2013-06-02 05:17:00,
2013-06-02 01:18:00,61.3,58.3,29.49,NE,52,0.0,0.0,90,0.00,,SCT100,0.00,0.00,VWS V14.01,2013-06-02 05:18:00,
2013-06-02 01:19:00,61.3,58.3,29.49,NE,52,0.0,0.0,90,0.00,,SCT100,0.00,0.00,VWS V14.01,2013-06-02 05:19:00,
2013-06-02 01:20:00,61.3,58.3,29.49,NE,52,0.0,0.0,90,0.00,,SCT100,0.00,0.00,VWS V14.01,2013-06-02 05:20:00,
2013-06-02 01:21:00,61.3,58.3,29.49,NE,52,0.0,0.0,90,0.00,,SCT100,0.00,0.00,VWS V14.01,2013-06-02 05:21:00,
2013-06-02 01:22:00,61.3,58.3,29.49,NE,52,0.0,0.0,90,0.00,,SCT100,0.00,0.00,VWS V14.01,2013-06-02 05:22:00,
2013-06-02 01:23:00,61.3,58.3,29.49,NE,52,0.0,0.0,90,0.00,,SCT100,0.00,0.00,VWS V14.01,2013-06-02 05:23:00,
2013-06-02 01:24:00,61.3,58.3,29.49,NE,52,0.0,0.0,90,0.00,,SCT100,0.00,0.00,VWS V14.01,2013-06-02 05:24:00,
2013-06-02 01:25:00,61.3,58.3,29.49,NE,52,0.0,0.0,90,0.00,,SCT100,0.00,0.00,VWS V14.01,2013-06-02 05:25:00,
2013-06-02 01:26:00,61.3,58.3,29.49,NE,52,0.0,0.0,90,0.00,,SCT100,0.00,0.00,VWS V14.01,2013-06-02 05:26:00,
2013-06-02 01:27:00,61.3,58.3,29.49,NE,52,0.0,0.0,90,0.00,,SCT100,0.00,0.00,VWS V14.01,2013-06-02 05:27:00,
2013-06-02 01:28:00,61.3,58.3,29.49,NE,52,0.0,0.0,90,0.00,,SCT100,0.00,0.00,VWS V14.01,2013-06-02 05:28:00,
2013-06-02 01:29:00,61.3,58.3,29.49,NE,52,0.0,0.0,90,0.00,,SCT100,0.00,0.00,VWS V14.01,2013-06-02 05:29:00,
2013-06-02 01:30:00,61.3,58.3,29.48,NE,52,0.0,0.0,90,0.00,,SCT100,0.00,0.00,VWS V14.01,2013-06-02 05:30:00,
2013-06-02 01:31:00,61.3,58.3,29.48,NE,55,0.0,0.0,90,0.00,,SCT100,0.00,0.00,VWS V14.01,2013-06-02 05:31:00,
2013-06-02 01:32:00,61.3,58.3,29.48,NE,54,0.0,0.0,90,0.00,,SCT100,0.00,0.00,VWS V14.01,2013-06-02 05:32:00,
2013-06-02 01:33:00,61.3,58.3,29.48,East,85,0.0,0.0,90,0.00,,SCT100,0.00,0.00,VWS V14.01,2013-06-02 05:33:00,
2013-06-02 01:34:00,61.3,58.7,29.48,East,85,0.0,0.0,91,0.00,,SCT100,0.00,0.00,VWS V14.01,2013-06-02 05:34:00,
2013-06-02 01:35:00,61.3,58.7,29.48,ENE,78,0.0,0.0,91,0.00,,SCT100,0.00,0.00,VWS V14.01,2013-06-02 05:35:00,
2013-06-02 01:36:00,61.3,58.7,29.48,ENE,78,0.0,0.0,91,0.00,,SCT100,0.00,0.00,VWS V14.01,2013-06-02 05:36:00,
2013-06-02 01:37:00,61.3,58.7,29.48,ENE,78,0.0,0.0,91,0.00,,SCT100,0.00,0.00,VWS V14.01,2013-06-02 05:37:00,
2013-06-02 01:38:00,61.3,58.7,29.48,South,170,0.0,0.0,91,0.00,,SCT100,0.00,0.00,VWS V14.01,2013-06-02 05:38:00,
2013-06-02 01:39:00,61.3,58.7,29.48,South,172,0.0,0.0,91,0.00,,SCT100,0.00,0.00,VWS V14.01,2013-06-02 05:39:00,
2013-06-02 01:40:00,61.3,58.7,29.48,South,172,0.0,0.0,91,0.00,,SCT100,0.00,0.00,VWS V14.01,2013-06-02 05:40:00,
2013-06-02 01:41:00,61.3,58.7,29.48,South,182,0.0,0.0,91,0.00,,SCT100,0.00,0.00,VWS V14.01,2013-06-02 05:41:00,
2013-06-02 01:42:00,61.3,58.7,29.48,South,182,0.0,0.0,91,0.00,,SCT100,0.00,0.00,VWS V14.01,2013-06-02 05:42:00,
2013-06-02 01:43:00,61.3,58.7,29.48,NNE,32,0.0,0.0,91,0.00,,SCT100,0.00,0.00,VWS V14.01,2013-06-02 05:43:00,
2013-06-02 01:44:00,61.3,58.7,29.48,NNE,32,0.0,0.0,91,0.00,,SCT100,0.00,0.00,VWS V14.01,2013-06-02 05:44:00,
2013-06-02 01:45:00,61.3,58.7,29.49,NNE,32,0.0,0.0,91,0.00,,-RA,0.00,0.00,VWS V14.01,2013-06-02 05:45:00,
2013-06-02 01:46:00,61.3,58.7,29.49,NE,46,0.0,0.0,91,0.00,,-RA,0.00,0.00,VWS V14.01,2013-06-02 05:46:00,
2013-06-02 01:47:00,61.3,58.7,29.49,NNE,19,1.0,0.0,91,0.00,,-RA,0.00,0.00,VWS V14.01,2013-06-02 05:47:00,
2013-06-02 01:48:00,61.3,58.7,29.49,NNE,18,0.0,0.0,91,0.00,,-RA,0.00,0.00,VWS V14.01,2013-06-02 05:48:00,
2013-06-02 01:49:00,61.3,58.7,29.49,NNE,18,0.0,0.0,91,0.00,,-RA,0.00,0.00,VWS V14.01,2013-06-02 05:49:00,
2013-06-02 01:50:00,61.3,58.7,29.49,NNE,18,0.0,0.0,91,0.00,,OVC090,0.00,0.00,VWS V14.01,2013-06-02 05:50:00,
2013-06-02 01:51:00,61.3,58.7,29.49,NNE,18,0.0,0.0,91,0.00,,OVC090,0.00,0.00,VWS V14.01,2013-06-02 05:51:00,
2013-06-02 01:52:00,61.3,58.7,29.49,NNE,18,1.0,0.0,91,0.00,,OVC090,0.00,0.00,VWS V14.01,2013-06-02 05:52:00,
2013-06-02 01:53:00,61.3,58.7,29.49,NNE,18,0.0,0.0,91,0.00,,OVC090,0.00,0.00,VWS V14.01,2013-06-02 05:53:00,
2013-06-02 01:54:00,61.3,58.7,29.49,NNE,18,0.0,0.0,91,0.00,,OVC090,0.00,0.00,VWS V14.01,2013-06-02 05:54:00,
2013-06-02 01:55:00,61.3,58.7,29.49,NNE,18,0.0,0.0,91,0.00,,OVC090,0.00,0.00,VWS V14.01,2013-06-02 05:55:00,
2013-06-02 01:56:00,61.3,58.7,29.49,NNE,18,0.0,0.0,91,0.00,,OVC090,0.00,0.00,VWS V14.01,2013-06-02 05:56:00,
2013-06-02 01:57:00,61.3,58.7,29.49,NNE,18,0.0,0.0,91,0.00,,OVC090,0.00,0.00,VWS V14.01,2013-06-02 05:57:00,
2013-06-02 01:58:00,61.3,58.7,29.49,NNE,18,0.0,0.0,91,0.00,,OVC090,0.00,0.00,VWS V14.01,2013-06-02 05:58:00,
2013-06-02 01:59:00,61.3,58.7,29.49,NNE,18,0.0,0.0,91,0.00,,OVC090,0.00,0.00,VWS V14.01,2013-06-02 05:59:00,
2013-06-02 02:00:00,61.3,58.7,29.48,WNW,292,0.0,0.0,91,0.00,,OVC090,0.00,0.00,VWS V14.01,2013-06-02 06:00:00,
2013-06-02 02:01:00,61.3,58.7,29.48,WNW,292,0.0,0.0,91,0.00,,OVC090,0.00,0.00,VWS V14.01,2013-06-02 06:01:00,
2013-06-02 02:02:00,61.3,59.0,29.48,WNW,292,0.0,0.0,92,0.00,,OVC090,0.00,0.00,VWS V14.01,2013-06-02 06:02:00,
2013-06-02 02:03:00,61.3,59.0,29.48,WNW,292,0.0,0.0,92,0.00,,OVC090,0.00,0.00,VWS V14.01,2013-06-02 06:03:00,
2013-06-02 02:04:00,61.3,59.0,29.48,NW,306,0.0,0.0,92,0.00,,OVC090,0.00,0.00,VWS V14.01,2013-06-02 06:04:00,
2013-06-02 02:05:00,61.3,59.0,29.48,NW,307,0.0,0.0,92,0.00,,OVC090,0.00,0.00,VWS V14.01,2013-06-02 06:05:00,
2013-06-02 02:06:00,61.3,59.0,29.48,North,360,0.0,0.0,92,0.00,,OVC090,0.00,0.00,VWS V14.01,2013-06-02 06:06:00,
2013-06-02 02:07:00,61.3,59.0,29.48,North,360,0.0,0.0,92,0.00,,OVC090,0.00,0.00,VWS V14.01,2013-06-02 06:07:00,
2013-06-02 02:08:00,61.3,59.0,29.48,WNW,284,0.0,0.0,92,0.00,,OVC090,0.00,0.00,VWS V14.01,2013-06-02 06:08:00,
2013-06-02 02:09:00,61.3,59.0,29.48,WNW,284,0.0,0.0,92,0.00,,OVC090,0.00,0.00,VWS V14.01,2013-06-02 06:09:00,
2013-06-02 02:10:00,61.5,59.2,29.48,NNE,22,0.0,0.0,92,0.00,,OVC090,0.00,0.00,VWS V14.01,2013-06-02 06:10:00,
2013-06-02 02:11:00,61.5,59.2,29.48,NNE,22,0.0,0.0,92,0.00,,OVC090,0.00,0.00,VWS V14.01,2013-06-02 06:11:00,
2013-06-02 02:12:00,61.5,59.2,29.48,NNE,22,1.0,0.0,92,0.00,,OVC090,0.00,0.00,VWS V14.01,2013-06-02 06:12:00,
2013-06-02 02:13:00,61.5,59.2,29.48,NNE,22,0.0,0.0,92,0.00,,OVC090,0.00,0.00,VWS V14.01,2013-06-02 06:13:00,
2013-06-02 02:14:00,61.5,59.2,29.48,NNE,22,0.0,0.0,92,0.00,,OVC090,0.00,0.00,VWS V14.01,2013-06-02 06:14:00,
2013-06-02 02:15:00,61.5,59.2,29.49,North,349,2.0,0.0,92,0.00,,OVC090,0.00,0.00,VWS V14.01,2013-06-02 06:15:00,
2013-06-02 02:16:00,61.5,59.2,29.49,WSW,250,0.0,0.0,92,0.00,,OVC090,0.00,0.00,VWS V14.01,2013-06-02 06:16:00,
2013-06-02 02:17:00,61.5,59.2,29.49,WSW,252,0.0,0.0,92,0.00,,OVC090,0.00,0.00,VWS V14.01,2013-06-02 06:17:00,
2013-06-02 02:18:00,61.5,59.2,29.49,WSW,256,0.0,0.0,92,0.00,,OVC090,0.00,0.00,VWS V14.01,2013-06-02 06:18:00,
2013-06-02 02:19:00,61.5,59.2,29.49,WSW,256,0.0,0.0,92,0.00,,OVC090,0.00,0.00,VWS V14.01,2013-06-02 06:19:00,
2013-06-02 02:20:00,61.5,59.2,29.49,WSW,256,0.0,0.0,92,0.00,,OVC090,0.00,0.00,VWS V14.01,2013-06-02 06:20:00,
2013-06-02 02:21:00,61.5,59.2,29.49,WSW,256,0.0,0.0,92,0.00,,OVC090,0.00,0.00,VWS V14.01,2013-06-02 06:21:00,
2013-06-02 02:22:00,61.5,59.2,29.49,WSW,256,0.0,0.0,92,0.00,,OVC090,0.00,0.00,VWS V14.01,2013-06-02 06:22:00,
2013-06-02 02:23:00,61.5,59.2,29.49,NE,52,0.0,0.0,92,0.00,,OVC090,0.00,0.00,VWS V14.01,2013-06-02 06:23:00,
2013-06-02 02:24:00,61.5,59.2,29.49,NE,52,0.0,0.0,92,0.00,,OVC090,0.00,0.00,VWS V14.01,2013-06-02 06:24:00,
2013-06-02 02:25:00,61.5,59.2,29.49,NE,52,0.0,0.0,92,0.00,,OVC090,0.00,0.00,VWS V14.01,2013-06-02 06:25:00,
2013-06-02 02:26:00,61.5,59.2,29.49,NE,52,0.0,0.0,92,0.00,,OVC090,0.00,0.00,VWS V14.01,2013-06-02 06:26:00,
2013-06-02 02:27:00,61.5,59.2,29.49,NE,52,0.0,0.0,92,0.00,,OVC090,0.00,0.00,VWS V14.01,2013-06-02 06:27:00,
2013-06-02 02:28:00,61.5,59.2,29.49,NE,52,0.0,0.0,92,0.00,,OVC090,0.00,0.00,VWS V14.01,2013-06-02 06:28:00,
2013-06-02 02:29:00,61.5,59.2,29.49,SW,217,0.0,0.0,92,0.00,,OVC090,0.00,0.00,VWS V14.01,2013-06-02 06:29:00,
2013-06-02 02:30:00,61.6,59.6,29.49,SW,217,0.0,0.0,93,0.00,,OVC090,0.00,0.00,VWS V14.01,2013-06-02 06:30:00,
2013-06-02 02:31:00,61.6,59.6,29.49,ENE,61,0.0,0.0,93,0.00,,OVC090,0.00,0.00,VWS V14.01,2013-06-02 06:31:00,
2013-06-02 02:32:00,61.6,59.6,29.49,NE,36,0.0,0.0,93,0.00,,OVC090,0.00,0.00,VWS V14.01,2013-06-02 06:32:00,
2013-06-02 02:33:00,61.6,59.6,29.49,NE,36,0.0,0.0,93,0.00,,OVC090,0.00,0.00,VWS V14.01,2013-06-02 06:33:00,
2013-06-02 02:34:00,61.6,59.6,29.49,NE,36,0.0,0.0,93,0.00,,OVC090,0.00,0.00,VWS V14.01,2013-06-02 06:34:00,
2013-06-02 02:35:00,61.6,59.6,29.49,NE,36,0.0,0.0,93,0.00,,OVC090,0.00,0.00,VWS V14.01,2013-06-02 06:35:00,
2013-06-02 02:36:00,61.6,59.6,29.49,NE,36,0.0,0.0,93,0.00,,OVC090,0.00,0.00,VWS V14.01,2013-06-02 06:36:00,
2013-06-02 02:37:00,61.6,59.6,29.49,NE,39,0.0,0.0,93,0.00,,OVC090,0.00,0.00,VWS V14.01,2013-06-02 06:37:00,
2013-06-02 02:38:00,61.6,59.6,29.49,NE,39,0.0,0.0,93,0.00,,OVC090,0.00,0.00,VWS V14.01,2013-06-02 06:38:00,
2013-06-02 02:39:00,61.6,59.6,29.49,NE,39,0.0,0.0,93,0.00,,OVC090,0.00,0.00,VWS V14.01,2013-06-02 06:39:00,
2013-06-02 02:40:00,61.6,59.6,29.49,NE,39,0.0,0.0,93,0.00,,OVC090,0.00,0.00,VWS V14.01,2013-06-02 06:40:00,
2013-06-02 02:41:00,61.6,59.6,29.49,NE,39,0.0,0.0,93,0.00,,OVC090,0.00,0.00,VWS V14.01,2013-06-02 06:41:00,
2013-06-02 02:42:00,61.6,59.6,29.49,NE,39,0.0,0.0,93,0.00,,OVC090,0.00,0.00,VWS V14.01,2013-06-02 06:42:00,
2013-06-02 02:43:00,61.6,59.6,29.49,NE,39,0.0,0.0,93,0.00,,OVC090,0.00,0.00,VWS V14.01,2013-06-02 06:43:00,
2013-06-02 02:44:00,61.6,59.6,29.49,NE,44,0.0,0.0,93,0.00,,OVC090,0.00,0.00,VWS V14.01,2013-06-02 06:44:00,
2013-06-02 02:45:00,61.6,59.6,29.49,NE,44,0.0,0.0,93,0.00,,OVC090,0.00,0.00,VWS V14.01,2013-06-02 06:45:00,
2013-06-02 02:46:00,61.6,59.6,29.49,NE,44,0.0,0.0,93,0.00,,OVC090,0.00,0.00,VWS V14.01,2013-06-02 06:46:00,
2013-06-02 02:47:00,61.6,59.6,29.49,NE,44,0.0,0.0,93,0.00,,OVC090,0.00,0.00,VWS V14.01,2013-06-02 06:47:00,
2013-06-02 02:48:00,61.6,59.6,29.49,NE,44,0.0,0.0,93,0.00,,OVC090,0.00,0.00,VWS V14.01,2013-06-02 06:48:00,
2013-06-02 02:49:00,61.6,59.6,29.49,NE,44,0.0,0.0,93,0.00,,OVC090,0.00,0.00,VWS V14.01,2013-06-02 06:49:00,
2013-06-02 02:50:00,61.6,59.6,29.49,NE,44,0.0,0.0,93,0.00,,OVC090,0.00,0.00,VWS V14.01,2013-06-02 06:50:00,
2013-06-02 02:51:00,61.6,59.6,29.49,NW,313,0.0,0.0,93,0.00,,OVC090,0.00,0.00,VWS V14.01,2013-06-02 06:51:00,
2013-06-02 02:52:00,61.6,59.6,29.49,NW,313,0.0,0.0,93,0.00,,OVC090,0.00,0.00,VWS V14.01,2013-06-02 06:52:00,
2013-06-02 02:53:00,61.6,59.6,29.49,NW,313,0.0,0.0,93,0.00,,OVC090,0.00,0.00,VWS V14.01,2013-06-02 06:53:00,
2013-06-02 02:54:00,61.6,59.6,29.49,NW,313,0.0,0.0,93,0.00,,OVC090,0.00,0.00,VWS V14.01,2013-06-02 06:54:00,
2013-06-02 02:55:00,61.6,59.6,29.49,NW,313,0.0,0.0,93,0.00,,OVC090,0.00,0.00,VWS V14.01,2013-06-02 06:55:00,
2013-06-02 02:56:00,61.6,59.6,29.49,NW,313,0.0,0.0,93,0.00,,OVC090,0.00,0.00,VWS V14.01,2013-06-02 06:56:00,
2013-06-02 02:57:00,61.6,59.6,29.49,NW,313,0.0,0.0,93,0.00,,OVC090,0.00,0.00,VWS V14.01,2013-06-02 06:57:00,
2013-06-02 02:58:00,61.6,59.6,29.49,North,360,1.0,0.0,93,0.00,,OVC090,0.00,0.00,VWS V14.01,2013-06-02 06:58:00,
2013-06-02 02:59:00,61.6,59.6,29.49,West,259,0.0,0.0,93,0.00,,OVC090,0.00,0.00,VWS V14.01,2013-06-02 06:59:00,
2013-06-02 03:00:00,61.6,59.6,29.49,West,259,0.0,0.0,93,0.00,,OVC090,0.00,0.00,VWS V14.01,2013-06-02 07:00:00,
2013-06-02 03:01:00,61.6,59.6,29.49,West,259,0.0,0.0,93,0.00,,OVC090,0.00,0.00,VWS V14.01,2013-06-02 07:01:00,
2013-06-02 03:02:00,61.6,59.6,29.49,West,271,0.0,0.0,93,0.00,,OVC090,0.00,0.00,VWS V14.01,2013-06-02 07:02:00,
2013-06-02 03:03:00,61.6,59.6,29.49,West,271,0.0,0.0,93,0.00,,OVC090,0.00,0.00,VWS V14.01,2013-06-02 07:03:00,
2013-06-02 03:04:00,61.6,59.6,29.49,West,271,0.0,0.0,93,0.00,,OVC090,0.00,0.00,VWS V14.01,2013-06-02 07:04:00,
2013-06-02 03:05:00,61.6,59.6,29.49,West,271,0.0,0.0,93,0.00,,OVC090,0.00,0.00,VWS V14.01,2013-06-02 07:05:00,
2013-06-02 03:06:00,61.6,59.6,29.49,West,271,0.0,0.0,93,0.00,,OVC090,0.00,0.00,VWS V14.01,2013-06-02 07:06:00,
2013-06-02 03:07:00,61.6,59.6,29.49,West,272,0.0,0.0,93,0.00,,OVC090,0.00,0.00,VWS V14.01,2013-06-02 07:07:00,
2013-06-02 03:08:00,61.6,59.6,29.49,West,271,0.0,0.0,93,0.00,,OVC090,0.00,0.00,VWS V14.01,2013-06-02 07:08:00,
2013-06-02 03:09:00,61.6,59.6,29.49,West,271,0.0,0.0,93,0.00,,OVC090,0.00,0.00,VWS V14.01,2013-06-02 07:09:00,
2013-06-02 03:10:00,61.5,59.5,29.49,West,272,0.0,0.0,93,0.00,,OVC090,0.00,0.00,VWS V14.01,2013-06-02 07:10:00,
2013-06-02 03:11:00,61.5,59.5,29.49,West,274,0.0,0.0,93,0.00,,OVC090,0.00,0.00,VWS V14.01,2013-06-02 07:11:00,
2013-06-02 03:12:00,61.5,59.5,29.49,West,273,0.0,0.0,93,0.00,,OVC090,0.00,0.00,VWS V14.01,2013-06-02 07:12:00,
2013-06-02 03:13:00,61.5,59.5,29.49,West,274,0.0,0.0,93,0.00,,OVC090,0.00,0.00,VWS V14.01,2013-06-02 07:13:00,
2013-06-02 03:14:00,61.5,59.5,29.49,NNE,26,0.0,0.0,93,0.00,,OVC090,0.00,0.00,VWS V14.01,2013-06-02 07:14:00,
2013-06-02 03:15:00,61.5,59.5,29.49,SW,221,0.0,0.0,93,0.00,,OVC090,0.00,0.00,VWS V14.01,2013-06-02 07:15:00,
2013-06-02 03:16:00,61.5,59.5,29.49,SW,221,0.0,0.0,93,0.00,,OVC090,0.00,0.00,VWS V14.01,2013-06-02 07:16:00,
2013-06-02 03:17:00,61.5,59.5,29.49,SW,221,0.0,0.0,93,0.00,,OVC090,0.00,0.00,VWS V14.01,2013-06-02 07:17:00,
2013-06-02 03:18:00,61.5,59.5,29.49,SW,221,0.0,0.0,93,0.00,,OVC090,0.00,0.00,VWS V14.01,2013-06-02 07:18:00,
2013-06-02 03:19:00,61.3,59.3,29.49,SW,229,0.0,0.0,93,0.00,,OVC090,0.00,0.00,VWS V14.01,2013-06-02 07:19:00,
2013-06-02 03:20:00,61.3,59.3,29.49,North,355,0.0,0.0,93,0.00,,OVC090,0.00,0.00,VWS V14.01,2013-06-02 07:20:00,
2013-06-02 03:21:00,61.3,59.3,29.49,NW,319,0.0,0.0,93,0.00,,OVC090,0.00,0.00,VWS V14.01,2013-06-02 07:21:00,
2013-06-02 03:22:00,61.3,59.3,29.49,NW,319,0.0,0.0,93,0.00,,OVC090,0.00,0.00,VWS V14.01,2013-06-02 07:22:00,
2013-06-02 03:23:00,61.3,59.3,29.49,NW,319,0.0,0.0,93,0.00,,OVC090,0.00,0.00,VWS V14.01,2013-06-02 07:23:00,
2013-06-02 03:24:00,61.3,59.3,29.49,NW,319,0.0,0.0,93,0.00,,OVC090,0.00,0.00,VWS V14.01,2013-06-02 07:24:00,
2013-06-02 03:25:00,61.3,59.3,29.49,North,5,0.0,0.0,93,0.00,,OVC090,0.00,0.00,VWS V14.01,2013-06-02 07:25:00,
2013-06-02 03:26:00,61.3,59.3,29.49,North,5,0.0,0.0,93,0.00,,OVC090,0.00,0.00,VWS V14.01,2013-06-02 07:26:00,
2013-06-02 03:27:00,61.3,59.3,29.49,North,5,0.0,0.0,93,0.00,,OVC090,0.00,0.00,VWS V14.01,2013-06-02 07:27:00,
2013-06-02 03:28:00,61.2,59.2,29.49,North,5,0.0,0.0,93,0.00,,OVC090,0.00,0.00,VWS V14.01,2013-06-02 07:28:00,
2013-06-02 03:29:00,61.2,59.2,29.49,North,5,0.0,0.0,93,0.00,,OVC090,0.00,0.00,VWS V14.01,2013-06-02 07:29:00,
2013-06-02 03:30:00,61.2,59.2,29.49,West,259,0.0,0.0,93,0.00,,OVC090,0.00,0.00,VWS V14.01,2013-06-02 07:30:00,
2013-06-02 03:31:00,61.2,59.2,29.49,West,259,0.0,0.0,93,0.00,,OVC090,0.00,0.00,VWS V14.01,2013-06-02 07:31:00,
2013-06-02 03:32:00,61.2,59.2,29.49,North,5,0.0,0.0,93,0.00,,OVC090,0.00,0.00,VWS V14.01,2013-06-02 07:32:00,
2013-06-02 03:33:00,61.2,59.2,29.49,North,5,0.0,0.0,93,0.00,,OVC090,0.00,0.00,VWS V14.01,2013-06-02 07:33:00,
2013-06-02 03:34:00,61.2,59.2,29.49,North,5,0.0,0.0,93,0.00,,OVC090,0.00,0.00,VWS V14.01,2013-06-02 07:34:00,
2013-06-02 03:35:00,61.2,59.2,29.49,North,5,0.0,0.0,93,0.00,,OVC090,0.00,0.00,VWS V14.01,2013-06-02 07:35:00,
2013-06-02 03:36:00,61.2,59.2,29.49,North,5,0.0,0.0,93,0.00,,OVC090,0.00,0.00,VWS V14.01,2013-06-02 07:36:00,
2013-06-02 03:37:00,61.0,59.0,29.49,North,5,0.0,0.0,93,0.00,,OVC090,0.00,0.00,VWS V14.01,2013-06-02 07:37:00,
2013-06-02 03:38:00,61.0,59.0,29.49,North,5,0.0,0.0,93,0.00,,OVC090,0.00,0.00,VWS V14.01,2013-06-02 07:38:00,
2013-06-02 03:39:00,61.0,59.0,29.49,North,5,0.0,0.0,93,0.00,,OVC090,0.00,0.00,VWS V14.01,2013-06-02 07:39:00,
2013-06-02 03:40:00,61.0,59.0,29.49,North,5,0.0,0.0,93,0.00,,OVC090,0.00,0.00,VWS V14.01,2013-06-02 07:40:00,
2013-06-02 03:41:00,61.0,59.0,29.49,North,5,0.0,0.0,93,0.00,,OVC090,0.00,0.00,VWS V14.01,2013-06-02 07:41:00,
2013-06-02 03:42:00,61.0,59.0,29.49,North,349,0.0,0.0,93,0.00,,OVC090,0.00,0.00,VWS V14.01,2013-06-02 07:42:00,
2013-06-02 03:43:00,61.0,59.0,29.49,North,349,0.0,0.0,93,0.00,,OVC090,0.00,0.00,VWS V14.01,2013-06-02 07:43:00,
2013-06-02 03:44:00,60.9,58.9,29.49,North,349,0.0,0.0,93,0.00,,OVC090,0.00,0.00,VWS V14.01,2013-06-02 07:44:00,
2013-06-02 03:45:00,60.9,58.9,29.49,North,349,0.0,0.0,93,0.00,,OVC090,0.00,0.00,VWS V14.01,2013-06-02 07:45:00,
2013-06-02 03:46:00,60.9,58.9,29.49,North,349,0.0,0.0,93,0.00,,OVC090,0.00,0.00,VWS V14.01,2013-06-02 07:46:00,
2013-06-02 03:47:00,60.9,58.9,29.49,North,349,0.0,0.0,93,0.00,,OVC090,0.00,0.00,VWS V14.01,2013-06-02 07:47:00,
2013-06-02 03:48:00,60.9,58.9,29.49,North,349,0.0,0.0,93,0.00,,OVC090,0.00,0.00,VWS V14.01,2013-06-02 07:48:00,
2013-06-02 03:49:00,60.9,58.9,29.49,North,349,0.0,0.0,93,0.00,,OVC090,0.00,0.00,VWS V14.01,2013-06-02 07:49:00,
2013-06-02 03:50:00,60.9,58.9,29.49,North,349,0.0,0.0,93,0.00,,OVC090,0.00,0.00,VWS V14.01,2013-06-02 07:50:00,
2013-06-02 03:51:00,60.9,58.9,29.49,North,349,0.0,0.0,93,0.00,,OVC090,0.00,0.00,VWS V14.01,2013-06-02 07:51:00,
2013-06-02 03:52:00,60.7,58.7,29.49,North,349,0.0,0.0,93,0.00,,OVC090,0.00,0.00,VWS V14.01,2013-06-02 07:52:00,
2013-06-02 03:53:00,60.7,58.7,29.49,North,349,0.0,0.0,93,0.00,,OVC090,0.00,0.00,VWS V14.01,2013-06-02 07:53:00,
2013-06-02 03:54:00,60.7,58.7,29.49,North,349,0.0,0.0,93,0.00,,OVC090,0.00,0.00,VWS V14.01,2013-06-02 07:54:00,
2013-06-02 03:55:00,60.7,58.7,29.49,North,349,0.0,0.0,93,0.00,,OVC090,0.00,0.00,VWS V14.01,2013-06-02 07:55:00,
2013-06-02 03:56:00,60.7,58.7,29.49,North,349,0.0,0.0,93,0.00,,OVC090,0.00,0.00,VWS V14.01,2013-06-02 07:56:00,
2013-06-02 03:57:00,60.7,58.7,29.49,North,349,0.0,0.0,93,0.00,,OVC090,0.00,0.00,VWS V14.01,2013-06-02 07:57:00,
2013-06-02 03:58:00,60.7,58.7,29.49,North,349,0.0,0.0,93,0.00,,OVC090,0.00,0.00,VWS V14.01,2013-06-02 07:58:00,
2013-06-02 03:59:00,60.7,58.7,29.49,North,349,0.0,0.0,93,0.00,,OVC090,0.00,0.00,VWS V14.01,2013-06-02 07:59:00,
2013-06-02 04:00:00,60.5,58.5,29.49,North,349,0.0,0.0,93,0.00,,OVC090,0.00,0.00,VWS V14.01,2013-06-02 08:00:00,
2013-06-02 04:01:00,60.5,58.5,29.49,North,349,0.0,0.0,93,0.00,,OVC090,0.00,0.00,VWS V14.01,2013-06-02 08:01:00,
2013-06-02 04:02:00,60.5,58.5,29.49,North,349,0.0,0.0,93,0.00,,OVC090,0.00,0.00,VWS V14.01,2013-06-02 08:02:00,
2013-06-02 04:03:00,60.5,58.5,29.49,North,349,0.0,0.0,93,0.00,,OVC090,0.00,0.00,VWS V14.01,2013-06-02 08:03:00,
2013-06-02 04:04:00,60.5,58.5,29.49,North,349,0.0,0.0,93,0.00,,OVC090,0.00,0.00,VWS V14.01,2013-06-02 08:04:00,
2013-06-02 04:05:00,60.5,58.5,29.49,North,349,0.0,0.0,93,0.00,,OVC090,0.00,0.00,VWS V14.01,2013-06-02 08:05:00,
2013-06-02 04:06:00,60.5,58.5,29.49,North,349,0.0,0.0,93,0.00,,OVC090,0.00,0.00,VWS V14.01,2013-06-02 08:06:00,
2013-06-02 04:07:00,60.5,58.5,29.49,North,349,0.0,0.0,93,0.00,,OVC090,0.00,0.00,VWS V14.01,2013-06-02 08:07:00,
2013-06-02 04:08:00,60.4,58.4,29.49,North,349,0.0,0.0,93,0.00,,OVC090,0.00,0.00,VWS V14.01,2013-06-02 08:08:00,
2013-06-02 04:09:00,60.4,58.4,29.49,North,349,0.0,0.0,93,0.00,,OVC090,0.00,0.00,VWS V14.01,2013-06-02 08:09:00,
2013-06-02 04:10:00,60.4,58.4,29.49,North,349,0.0,0.0,93,0.00,,OVC090,0.00,0.00,VWS V14.01,2013-06-02 08:10:00,
2013-06-02 04:11:00,60.4,58.4,29.49,North,349,0.0,0.0,93,0.00,,OVC090,0.00,0.00,VWS V14.01,2013-06-02 08:11:00,
2013-06-02 04:12:00,60.4,58.4,29.49,North,349,0.0,0.0,93,0.00,,OVC090,0.00,0.00,VWS V14.01,2013-06-02 08:12:00,
2013-06-02 04:13:00,60.4,58.4,29.49,North,349,0.0,0.0,93,0.00,,OVC090,0.00,0.00,VWS V14.01,2013-06-02 08:13:00,
2013-06-02 04:14:00,60.4,58.4,29.49,North,349,0.0,0.0,93,0.00,,OVC090,0.00,0.00,VWS V14.01,2013-06-02 08:14:00,
2013-06-02 04:15:00,60.4,58.4,29.50,North,349,0.0,0.0,93,0.00,,OVC090,0.00,0.00,VWS V14.01,2013-06-02 08:15:00,
2013-06-02 04:16:00,60.2,58.2,29.50,North,349,0.0,0.0,93,0.00,,OVC090,0.00,0.00,VWS V14.01,2013-06-02 08:16:00,
2013-06-02 04:17:00,60.2,58.2,29.50,North,349,0.0,0.0,93,0.00,,OVC090,0.00,0.00,VWS V14.01,2013-06-02 08:17:00,
2013-06-02 04:18:00,60.2,58.2,29.50,North,349,0.0,0.0,93,0.00,,OVC090,0.00,0.00,VWS V14.01,2013-06-02 08:18:00,
2013-06-02 04:19:00,60.2,58.2,29.50,North,349,0.0,0.0,93,0.00,,OVC090,0.00,0.00,VWS V14.01,2013-06-02 08:19:00,
2013-06-02 04:20:00,60.2,58.2,29.50,North,349,0.0,0.0,93,0.00,,OVC090,0.00,0.00,VWS V14.01,2013-06-02 08:20:00,
2013-06-02 04:21:00,60.2,58.2,29.50,North,349,0.0,0.0,93,0.00,,OVC090,0.00,0.00,VWS V14.01,2013-06-02 08:21:00,
2013-06-02 04:22:00,60.2,58.2,29.50,North,349,0.0,0.0,93,0.00,,OVC090,0.00,0.00,VWS V14.01,2013-06-02 08:22:00,
2013-06-02 04:23:00,60.1,58.1,29.50,North,349,0.0,0.0,93,0.00,,OVC090,0.00,0.00,VWS V14.01,2013-06-02 08:23:00,
2013-06-02 04:24:00,60.1,58.1,29.50,North,349,0.0,0.0,93,0.00,,OVC090,0.00,0.00,VWS V14.01,2013-06-02 08:24:00,
2013-06-02 04:25:00,60.1,58.1,29.50,North,349,0.0,0.0,93,0.00,,OVC090,0.00,0.00,VWS V14.01,2013-06-02 08:25:00,
2013-06-02 04:26:00,60.1,58.1,29.50,North,349,0.0,0.0,93,0.00,,OVC090,0.00,0.00,VWS V14.01,2013-06-02 08:26:00,
2013-06-02 04:27:00,60.1,58.1,29.50,North,349,0.0,0.0,93,0.00,,OVC090,0.00,0.00,VWS V14.01,2013-06-02 08:27:00,
2013-06-02 04:28:00,60.1,58.1,29.50,North,349,0.0,0.0,93,0.00,,OVC090,0.00,0.00,VWS V14.01,2013-06-02 08:28:00,
2013-06-02 04:29:00,60.1,58.1,29.50,North,349,0.0,0.0,93,0.00,,OVC090,0.00,0.00,VWS V14.01,2013-06-02 08:29:00,
2013-06-02 04:30:00,60.1,58.1,29.50,North,349,0.0,0.0,93,0.00,,OVC090,0.00,0.00,VWS V14.01,2013-06-02 08:30:00,
2013-06-02 04:31:00,60.1,58.1,29.50,North,349,0.0,0.0,93,0.00,,OVC090,0.00,0.00,VWS V14.01,2013-06-02 08:31:00,
2013-06-02 04:32:00,60.1,58.1,29.50,North,349,0.0,0.0,93,0.00,,OVC090,0.00,0.00,VWS V14.01,2013-06-02 08:32:00,
2013-06-02 04:33:00,59.9,57.9,29.50,North,349,0.0,0.0,93,0.00,,OVC090,0.00,0.00,VWS V14.01,2013-06-02 08:33:00,
2013-06-02 04:34:00,59.9,57.9,29.50,North,349,0.0,0.0,93,0.00,,OVC090,0.00,0.00,VWS V14.01,2013-06-02 08:34:00,
2013-06-02 04:35:00,59.9,57.9,29.50,North,349,0.0,0.0,93,0.00,,OVC090,0.00,0.00,VWS V14.01,2013-06-02 08:35:00,
2013-06-02 04:36:00,59.9,57.9,29.50,North,349,0.0,0.0,93,0.00,,OVC090,0.00,0.00,VWS V14.01,2013-06-02 08:36:00,
2013-06-02 04:37:00,59.9,57.9,29.50,North,349,0.0,0.0,93,0.00,,OVC090,0.00,0.00,VWS V14.01,2013-06-02 08:37:00,
2013-06-02 04:38:00,59.9,57.9,29.50,North,349,0.0,0.0,93,0.00,,OVC090,0.00,0.00,VWS V14.01,2013-06-02 08:38:00,
2013-06-02 04:39:00,59.9,57.9,29.50,North,349,0.0,0.0,93,0.00,,OVC090,0.00,0.00,VWS V14.01,2013-06-02 08:39:00,
2013-06-02 04:40:00,59.9,57.9,29.50,North,349,0.0,0.0,93,0.00,,OVC090,0.00,0.00,VWS V14.01,2013-06-02 08:40:00,
2013-06-02 04:41:00,59.9,57.9,29.50,North,349,0.0,0.0,93,0.00,,OVC090,0.00,0.00,VWS V14.01,2013-06-02 08:41:00,
2013-06-02 04:42:00,59.9,57.9,29.50,North,349,0.0,0.0,93,0.00,,OVC090,0.00,0.00,VWS V14.01,2013-06-02 08:42:00,
2013-06-02 04:43:00,59.8,57.8,29.50,North,349,0.0,0.0,93,0.00,,OVC090,0.00,0.00,VWS V14.01,2013-06-02 08:43:00,
2013-06-02 04:44:00,59.8,57.8,29.50,North,349,0.0,0.0,93,0.00,,OVC090,0.00,0.00,VWS V14.01,2013-06-02 08:44:00,
2013-06-02 04:45:00,59.8,57.8,29.51,North,349,0.0,0.0,93,0.00,,OVC090,0.00,0.00,VWS V14.01,2013-06-02 08:45:00,
2013-06-02 04:46:00,59.8,57.8,29.51,North,349,0.0,0.0,93,0.00,,OVC090,0.00,0.00,VWS V14.01,2013-06-02 08:46:00,
2013-06-02 04:47:00,59.8,57.8,29.51,North,349,0.0,0.0,93,0.00,,OVC090,0.00,0.00,VWS V14.01,2013-06-02 08:47:00,
2013-06-02 04:48:00,59.8,57.8,29.51,North,349,0.0,0.0,93,0.00,,OVC090,0.00,0.00,VWS V14.01,2013-06-02 08:48:00,
2013-06-02 04:49:00,59.8,57.8,29.51,North,349,0.0,0.0,93,0.00,,OVC090,0.00,0.00,VWS V14.01,2013-06-02 08:49:00,
2013-06-02 04:50:00,59.8,57.8,29.51,North,349,0.0,0.0,93,0.00,,OVC090,0.00,0.00,VWS V14.01,2013-06-02 08:50:00,
2013-06-02 04:51:00,59.8,57.8,29.51,North,349,0.0,0.0,93,0.00,,OVC090,0.00,0.00,VWS V14.01,2013-06-02 08:51:00,
2013-06-02 04:52:00,59.8,57.8,29.51,North,349,0.0,0.0,93,0.00,,OVC090,0.00,0.00,VWS V14.01,2013-06-02 08:52:00,
2013-06-02 04:53:00,59.6,57.6,29.51,North,349,0.0,0.0,93,0.00,,OVC090,0.00,0.00,VWS V14.01,2013-06-02 08:53:00,
2013-06-02 04:54:00,59.6,57.6,29.51,North,349,0.0,0.0,93,0.00,,OVC090,0.00,0.00,VWS V14.01,2013-06-02 08:54:00,
2013-06-02 04:55:00,59.6,57.6,29.51,North,349,0.0,0.0,93,0.00,,OVC090,0.00,0.00,VWS V14.01,2013-06-02 08:55:00,
2013-06-02 04:56:00,59.6,57.6,29.51,North,349,0.0,0.0,93,0.00,,OVC090,0.00,0.00,VWS V14.01,2013-06-02 08:56:00,
2013-06-02 04:57:00,59.6,57.6,29.51,North,349,0.0,0.0,93,0.00,,OVC090,0.00,0.00,VWS V14.01,2013-06-02 08:57:00,
2013-06-02 04:58:00,59.6,57.6,29.51,North,349,0.0,0.0,93,0.00,,OVC090,0.00,0.00,VWS V14.01,2013-06-02 08:58:00,
2013-06-02 04:59:00,59.6,57.6,29.51,North,349,0.0,0.0,93,0.00,,OVC090,0.00,0.00,VWS V14.01,2013-06-02 08:59:00,
2013-06-02 05:00:00,59.6,57.6,29.51,North,349,0.0,0.0,93,0.00,,FEW050,0.00,0.00,VWS V14.01,2013-06-02 09:00:00,
2013-06-02 05:01:00,59.6,57.6,29.51,North,349,0.0,0.0,93,0.00,,FEW050,0.00,0.00,VWS V14.01,2013-06-02 09:01:00,
2013-06-02 05:02:00,59.6,57.6,29.51,North,349,0.0,0.0,93,0.00,,FEW050,0.00,0.00,VWS V14.01,2013-06-02 09:02:00,
2013-06-02 05:03:00,59.6,57.6,29.51,North,349,0.0,0.0,93,0.00,,FEW050,0.00,0.00,VWS V14.01,2013-06-02 09:03:00,
2013-06-02 05:04:00,59.5,57.5,29.51,North,349,0.0,0.0,93,0.00,,FEW050,0.00,0.00,VWS V14.01,2013-06-02 09:04:00,
2013-06-02 05:05:00,59.5,57.5,29.51,North,349,0.0,0.0,93,0.00,,FEW050,0.00,0.00,VWS V14.01,2013-06-02 09:05:00,
2013-06-02 05:06:00,59.5,57.5,29.51,North,349,0.0,0.0,93,0.00,,FEW050,0.00,0.00,VWS V14.01,2013-06-02 09:06:00,
2013-06-02 05:07:00,59.5,57.5,29.51,North,349,0.0,0.0,93,0.00,,FEW050,0.00,0.00,VWS V14.01,2013-06-02 09:07:00,
2013-06-02 05:08:00,59.5,57.5,29.51,North,349,0.0,0.0,93,0.00,,FEW050,0.00,0.00,VWS V14.01,2013-06-02 09:08:00,
2013-06-02 05:09:00,59.5,57.5,29.51,North,349,0.0,0.0,93,0.00,,FEW050,0.00,0.00,VWS V14.01,2013-06-02 09:09:00,
2013-06-02 05:10:00,59.5,57.5,29.51,North,349,0.0,0.0,93,0.00,,FEW050,0.00,0.00,VWS V14.01,2013-06-02 09:10:00,
2013-06-02 05:11:00,59.5,57.5,29.51,North,349,0.0,0.0,93,0.00,,FEW050,0.00,0.00,VWS V14.01,2013-06-02 09:11:00,
2013-06-02 05:12:00,59.5,57.5,29.51,North,349,0.0,0.0,93,0.00,,FEW050,0.00,0.00,VWS V14.01,2013-06-02 09:12:00,
2013-06-02 05:13:00,59.5,57.5,29.51,North,349,0.0,0.0,93,0.00,,FEW050,0.00,0.00,VWS V14.01,2013-06-02 09:13:00,
2013-06-02 05:14:00,59.5,57.5,29.51,North,349,0.0,0.0,93,0.00,,FEW050,0.00,0.00,VWS V14.01,2013-06-02 09:14:00,
2013-06-02 05:15:00,59.5,57.5,29.51,North,349,0.0,0.0,93,0.00,,FEW050,0.00,0.00,VWS V14.01,2013-06-02 09:15:00,
2013-06-02 05:16:00,59.5,57.5,29.51,North,349,0.0,0.0,93,0.00,,FEW050,0.00,0.00,VWS V14.01,2013-06-02 09:16:00,
2013-06-02 05:17:00,59.5,57.5,29.51,North,349,0.0,0.0,93,0.00,,FEW050,0.00,0.00,VWS V14.01,2013-06-02 09:17:00,
2013-06-02 05:18:00,59.5,57.5,29.51,North,349,0.0,0.0,93,0.00,,FEW050,0.00,0.00,VWS V14.01,2013-06-02 09:18:00,
2013-06-02 05:19:00,59.5,57.5,29.51,North,349,0.0,0.0,93,0.00,,FEW050,0.00,0.00,VWS V14.01,2013-06-02 09:19:00,
2013-06-02 05:20:00,59.5,57.5,29.51,North,9,0.0,0.0,93,0.00,,FEW050,0.00,0.00,VWS V14.01,2013-06-02 09:20:00,
2013-06-02 05:21:00,59.5,57.8,29.51,North,9,0.0,0.0,94,0.00,,FEW050,0.00,0.00,VWS V14.01,2013-06-02 09:21:00,
2013-06-02 05:22:00,59.5,57.8,29.51,North,9,0.0,0.0,94,0.00,,FEW050,0.00,0.00,VWS V14.01,2013-06-02 09:22:00,
2013-06-02 05:23:00,59.6,57.9,29.51,North,9,0.0,0.0,94,0.00,,FEW050,0.00,0.00,VWS V14.01,2013-06-02 09:23:00,
2013-06-02 05:24:00,59.6,57.9,29.51,North,9,0.0,0.0,94,0.00,,FEW050,0.00,0.00,VWS V14.01,2013-06-02 09:24:00,
2013-06-02 05:25:00,59.6,57.9,29.51,North,9,0.0,0.0,94,0.00,,FEW050,0.00,0.00,VWS V14.01,2013-06-02 09:25:00,
2013-06-02 05:26:00,59.6,57.9,29.51,WNW,298,0.0,0.0,94,0.00,,FEW050,0.00,0.00,VWS V14.01,2013-06-02 09:26:00,
2013-06-02 05:27:00,59.6,57.9,29.51,WNW,299,0.0,0.0,94,0.00,,FEW050,0.00,0.00,VWS V14.01,2013-06-02 09:27:00,
2013-06-02 05:28:00,59.6,57.9,29.51,WNW,294,0.0,0.0,94,0.00,,FEW050,0.00,0.00,VWS V14.01,2013-06-02 09:28:00,
2013-06-02 05:29:00,59.6,57.9,29.51,SE,146,0.0,0.0,94,0.00,,FEW050,0.00,0.00,VWS V14.01,2013-06-02 09:29:00,
2013-06-02 05:30:00,59.6,57.9,29.52,SE,138,0.0,0.0,94,0.00,,FEW050,0.00,0.00,VWS V14.01,2013-06-02 09:30:00,
2013-06-02 05:31:00,59.8,58.1,29.52,ENE,65,0.0,0.0,94,0.00,,FEW050,0.00,0.00,VWS V14.01,2013-06-02 09:31:00,
2013-06-02 05:32:00,59.8,58.1,29.52,ENE,65,0.0,0.0,94,0.00,,FEW050,0.00,0.00,VWS V14.01,2013-06-02 09:32:00,
2013-06-02 05:33:00,59.8,58.1,29.52,ENE,65,0.0,0.0,94,0.00,,FEW050,0.00,0.00,VWS V14.01,2013-06-02 09:33:00,
2013-06-02 05:34:00,59.8,58.1,29.52,ENE,65,0.0,0.0,94,0.00,,FEW050,0.00,0.00,VWS V14.01,2013-06-02 09:34:00,
2013-06-02 05:35:00,59.8,58.1,29.52,ENE,65,0.0,0.0,94,0.00,,FEW050,0.00,0.00,VWS V14.01,2013-06-02 09:35:00,
2013-06-02 05:36:00,59.8,58.1,29.52,ENE,65,0.0,0.0,94,0.00,,FEW050,0.00,0.00,VWS V14.01,2013-06-02 09:36:00,
2013-06-02 05:37:00,59.8,58.1,29.52,ENE,65,0.0,0.0,94,0.00,,FEW050,0.00,0.00,VWS V14.01,2013-06-02 09:37:00,
2013-06-02 05:38:00,59.8,58.1,29.52,ENE,65,0.0,0.0,94,0.00,,FEW050,0.00,0.00,VWS V14.01,2013-06-02 09:38:00,
2013-06-02 05:39:00,59.8,58.1,29.52,ENE,65,0.0,0.0,94,0.00,,FEW050,0.00,0.00,VWS V14.01,2013-06-02 09:39:00,
2013-06-02 05:40:00,59.8,58.1,29.52,ENE,65,0.0,0.0,94,0.00,,FEW050,0.00,0.00,VWS V14.01,2013-06-02 09:40:00,
2013-06-02 05:41:00,59.9,58.2,29.52,ENE,65,0.0,0.0,94,0.00,,FEW050,0.00,0.00,VWS V14.01,2013-06-02 09:41:00,
2013-06-02 05:42:00,59.9,58.2,29.52,ENE,65,0.0,0.0,94,0.00,,FEW050,0.00,0.00,VWS V14.01,2013-06-02 09:42:00,
2013-06-02 05:43:00,59.9,58.2,29.52,ENE,65,0.0,0.0,94,0.00,,FEW050,0.00,0.00,VWS V14.01,2013-06-02 09:43:00,
2013-06-02 05:44:00,59.9,58.2,29.52,NNE,27,0.0,0.0,94,0.00,,FEW050,0.00,0.00,VWS V14.01,2013-06-02 09:44:00,
2013-06-02 05:45:00,59.9,58.2,29.52,NNE,27,0.0,0.0,94,0.00,,FEW050,0.00,0.00,VWS V14.01,2013-06-02 09:45:00,
2013-06-02 05:46:00,59.9,58.2,29.52,NNE,27,0.0,0.0,94,0.00,,FEW050,0.00,0.00,VWS V14.01,2013-06-02 09:46:00,
2013-06-02 05:47:00,59.9,58.2,29.52,NNE,27,0.0,0.0,94,0.00,,FEW050,0.00,0.00,VWS V14.01,2013-06-02 09:47:00,
2013-06-02 05:48:00,59.9,58.2,29.52,NNE,27,0.0,0.0,94,0.00,,FEW050,0.00,0.00,VWS V14.01,2013-06-02 09:48:00,
2013-06-02 05:49:00,59.9,58.2,29.52,NNE,27,0.0,0.0,94,0.00,,FEW050,0.00,0.00,VWS V14.01,2013-06-02 09:49:00,
2013-06-02 05:50:00,59.9,58.2,29.52,NNE,27,0.0,0.0,94,0.00,,FEW050,0.00,0.00,VWS V14.01,2013-06-02 09:50:00,
2013-06-02 05:51:00,59.9,58.2,29.52,NNE,27,0.0,0.0,94,0.00,,FEW050,0.00,0.00,VWS V14.01,2013-06-02 09:51:00,
2013-06-02 05:52:00,59.9,58.2,29.52,NNE,27,0.0,0.0,94,0.00,,FEW050,0.00,0.00,VWS V14.01,2013-06-02 09:52:00,
2013-06-02 05:53:00,59.9,58.2,29.52,NNE,27,0.0,0.0,94,0.00,,FEW050,0.00,0.00,VWS V14.01,2013-06-02 09:53:00,
2013-06-02 05:54:00,60.1,58.4,29.52,NNE,29,0.0,0.0,94,0.00,,FEW050,0.00,0.00,VWS V14.01,2013-06-02 09:54:00,
2013-06-02 05:55:00,60.1,58.4,29.52,NNE,29,0.0,0.0,94,0.00,,FEW050,0.00,0.00,VWS V14.01,2013-06-02 09:55:00,
2013-06-02 05:56:00,60.1,58.4,29.52,North,355,0.0,0.0,94,0.00,,FEW050,0.00,0.00,VWS V14.01,2013-06-02 09:56:00,
2013-06-02 05:57:00,60.1,58.7,29.52,North,355,0.0,0.0,95,0.00,,FEW050,0.00,0.00,VWS V14.01,2013-06-02 09:57:00,
2013-06-02 05:58:00,60.1,58.7,29.52,North,355,0.0,0.0,95,0.00,,FEW050,0.00,0.00,VWS V14.01,2013-06-02 09:58:00,
2013-06-02 05:59:00,60.1,58.4,29.52,North,355,0.0,0.0,94,0.00,,FEW050,0.00,0.00,VWS V14.01,2013-06-02 09:59:00,
2013-06-02 06:00:00,60.1,58.4,29.53,North,355,0.0,0.0,94,0.00,,FEW050,0.00,0.00,VWS V14.01,2013-06-02 10:00:00,
2013-06-02 06:01:00,60.1,58.7,29.53,North,355,0.0,0.0,95,0.00,,FEW050,0.00,0.00,VWS V14.01,2013-06-02 10:01:00,
2013-06-02 06:02:00,60.1,58.7,29.53,North,355,0.0,0.0,95,0.00,,FEW050,0.00,0.00,VWS V14.01,2013-06-02 10:02:00,
2013-06-02 06:03:00,60.1,58.7,29.53,North,355,0.0,0.0,95,0.00,,FEW050,0.00,0.00,VWS V14.01,2013-06-02 10:03:00,
2013-06-02 06:04:00,60.1,58.7,29.53,North,355,0.0,0.0,95,0.00,,FEW050,0.00,0.00,VWS V14.01,2013-06-02 10:04:00,
2013-06-02 06:05:00,60.1,58.7,29.53,North,355,0.0,0.0,95,0.00,,FEW050,0.00,0.00,VWS V14.01,2013-06-02 10:05:00,
2013-06-02 06:06:00,60.1,58.7,29.53,North,355,0.0,0.0,95,0.00,,FEW050,0.00,0.00,VWS V14.01,2013-06-02 10:06:00,
2013-06-02 06:07:00,60.1,58.7,29.53,North,360,1.0,0.0,95,0.00,,FEW050,0.00,0.00,VWS V14.01,2013-06-02 10:07:00,
2013-06-02 06:08:00,60.1,58.7,29.53,North,360,0.0,0.0,95,0.00,,FEW050,0.00,0.00,VWS V14.01,2013-06-02 10:08:00,
2013-06-02 06:09:00,60.1,58.7,29.53,North,360,0.0,0.0,95,0.00,,FEW050,0.00,0.00,VWS V14.01,2013-06-02 10:09:00,
2013-06-02 06:10:00,60.1,58.7,29.53,West,279,0.0,0.0,95,0.00,,FEW050,0.00,0.00,VWS V14.01,2013-06-02 10:10:00,
2013-06-02 06:11:00,60.1,58.7,29.53,West,279,0.0,0.0,95,0.00,,FEW050,0.00,0.00,VWS V14.01,2013-06-02 10:11:00,
2013-06-02 06:12:00,60.1,58.7,29.53,West,279,0.0,0.0,95,0.00,,FEW050,0.00,0.00,VWS V14.01,2013-06-02 10:12:00,
2013-06-02 06:13:00,60.1,58.7,29.53,West,279,0.0,0.0,95,0.00,,FEW050,0.00,0.00,VWS V14.01,2013-06-02 10:13:00,
2013-06-02 06:14:00,60.1,58.7,29.53,West,279,0.0,0.0,95,0.00,,FEW050,0.00,0.00,VWS V14.01,2013-06-02 10:14:00,
2013-06-02 06:15:00,60.1,58.7,29.54,West,279,0.0,0.0,95,0.00,,FEW050,0.00,0.00,VWS V14.01,2013-06-02 10:15:00,
2013-06-02 06:16:00,60.1,58.7,29.54,NW,311,0.0,0.0,95,0.00,,FEW050,0.00,7.00,VWS V14.01,2013-06-02 10:16:00,
2013-06-02 06:17:00,60.1,58.7,29.54,NW,311,0.0,0.0,95,0.00,,FEW050,0.00,7.00,VWS V14.01,2013-06-02 10:17:00,
2013-06-02 06:18:00,60.1,58.7,29.54,NW,311,0.0,0.0,95,0.00,,FEW050,0.00,7.00,VWS V14.01,2013-06-02 10:18:00,
2013-06-02 06:19:00,60.1,58.7,29.54,ESE,119,1.0,0.0,95,0.00,,FEW050,0.00,7.00,VWS V14.01,2013-06-02 10:19:00,
2013-06-02 06:20:00,60.1,58.7,29.54,ESE,121,0.0,0.0,95,0.00,,FEW050,0.00,7.00,VWS V14.01,2013-06-02 10:20:00,
2013-06-02 06:21:00,60.1,58.7,29.54,ESE,121,0.0,0.0,95,0.00,,FEW050,0.00,7.00,VWS V14.01,2013-06-02 10:21:00,
2013-06-02 06:22:00,60.1,58.7,29.54,ESE,121,0.0,0.0,95,0.00,,FEW050,0.00,5.00,VWS V14.01,2013-06-02 10:22:00,
2013-06-02 06:23:00,60.1,58.7,29.54,ESE,121,0.0,0.0,95,0.00,,FEW050,0.00,7.00,VWS V14.01,2013-06-02 10:23:00,
2013-06-02 06:24:00,60.1,58.7,29.54,ESE,121,0.0,0.0,95,0.00,,FEW050,0.00,7.00,VWS V14.01,2013-06-02 10:24:00,
2013-06-02 06:25:00,60.1,58.7,29.54,ESE,121,0.0,0.0,95,0.00,,FEW050,0.00,9.00,VWS V14.01,2013-06-02 10:25:00,
2013-06-02 06:26:00,60.1,58.7,29.54,ESE,121,0.0,0.0,95,0.00,,FEW050,0.00,11.00,VWS V14.01,2013-06-02 10:26:00,
2013-06-02 06:27:00,60.1,58.7,29.54,ESE,121,0.0,0.0,95,0.00,,FEW050,0.00,11.00,VWS V14.01,2013-06-02 10:27:00,
2013-06-02 06:28:00,60.1,58.7,29.54,ESE,121,0.0,0.0,95,0.00,,FEW050,0.00,12.00,VWS V14.01,2013-06-02 10:28:00,
2013-06-02 06:29:00,60.1,58.7,29.54,ESE,121,0.0,0.0,95,0.00,,FEW050,0.00,16.00,VWS V14.01,2013-06-02 10:29:00,
2013-06-02 06:30:00,60.2,58.8,29.55,ESE,118,0.0,0.0,95,0.00,,FEW050,0.00,16.00,VWS V14.01,2013-06-02 10:30:00,
2013-06-02 06:31:00,60.2,58.8,29.55,ESE,118,0.0,0.0,95,0.00,,FEW050,0.00,14.00,VWS V14.01,2013-06-02 10:31:00,
2013-06-02 06:32:00,60.2,58.8,29.55,ESE,118,0.0,0.0,95,0.00,,FEW050,0.00,16.00,VWS V14.01,2013-06-02 10:32:00,
2013-06-02 06:33:00,60.2,58.8,29.55,ESE,118,0.0,0.0,95,0.00,,FEW050,0.00,18.00,VWS V14.01,2013-06-02 10:33:00,
2013-06-02 06:34:00,60.2,58.8,29.55,ESE,118,0.0,0.0,95,0.00,,FEW050,0.00,18.00,VWS V14.01,2013-06-02 10:34:00,
2013-06-02 06:35:00,60.2,58.8,29.55,ESE,118,0.0,0.0,95,0.00,,BKN012,0.00,19.00,VWS V14.01,2013-06-02 10:35:00,
2013-06-02 06:36:00,60.2,58.8,29.55,ESE,118,0.0,0.0,95,0.00,,BKN012,0.00,21.00,VWS V14.01,2013-06-02 10:36:00,
2013-06-02 06:37:00,60.2,58.8,29.55,ESE,118,0.0,0.0,95,0.00,,BKN012,0.00,23.00,VWS V14.01,2013-06-02 10:37:00,
2013-06-02 06:38:00,60.2,58.8,29.55,ESE,118,0.0,0.0,95,0.00,,BKN012,0.00,23.00,VWS V14.01,2013-06-02 10:38:00,
2013-06-02 06:39:00,60.2,58.8,29.55,ESE,118,0.0,0.0,95,0.00,,BKN012,0.00,28.00,VWS V14.01,2013-06-02 10:39:00,
2013-06-02 06:40:00,60.2,58.8,29.55,ENE,78,1.0,0.0,95,0.00,,BKN012,0.00,26.00,VWS V14.01,2013-06-02 10:40:00,
2013-06-02 06:41:00,60.2,58.8,29.55,ENE,78,0.0,0.0,95,0.00,,BKN012,0.00,26.00,VWS V14.01,2013-06-02 10:41:00,
2013-06-02 06:42:00,60.2,58.8,29.55,ENE,78,0.0,0.0,95,0.00,,BKN012,0.00,21.00,VWS V14.01,2013-06-02 10:42:00,
2013-06-02 06:43:00,60.2,58.8,29.55,ENE,78,0.0,0.0,95,0.00,,BKN012,0.00,19.00,VWS V14.01,2013-06-02 10:43:00,
2013-06-02 06:44:00,60.2,58.8,29.55,ENE,78,0.0,0.0,95,0.00,,BKN012,0.00,19.00,VWS V14.01,2013-06-02 10:44:00,
2013-06-02 06:45:00,60.2,58.8,29.56,ENE,78,0.0,0.0,95,0.00,,BKN012,0.00,16.00,VWS V14.01,2013-06-02 10:45:00,
2013-06-02 06:46:00,60.2,58.8,29.56,ENE,78,0.0,0.0,95,0.00,,BKN012,0.00,16.00,VWS V14.01,2013-06-02 10:46:00,
2013-06-02 06:47:00,60.2,58.8,29.56,East,79,0.0,0.0,95,0.00,,BKN012,0.00,18.00,VWS V14.01,2013-06-02 10:47:00,
2013-06-02 06:48:00,60.2,58.8,29.56,East,81,0.0,0.0,95,0.00,,BKN012,0.00,19.00,VWS V14.01,2013-06-02 10:48:00,
2013-06-02 06:49:00,60.2,58.8,29.56,East,81,0.0,0.0,95,0.00,,BKN012,0.00,18.00,VWS V14.01,2013-06-02 10:49:00,
2013-06-02 06:50:00,60.2,58.8,29.56,East,81,0.0,0.0,95,0.00,,BKN012,0.00,16.00,VWS V14.01,2013-06-02 10:50:00,
2013-06-02 06:51:00,60.2,58.8,29.56,East,81,0.0,0.0,95,0.00,,BKN012,0.00,14.00,VWS V14.01,2013-06-02 10:51:00,
2013-06-02 06:52:00,60.2,58.8,29.56,East,81,0.0,0.0,95,0.00,,BKN012,0.00,12.00,VWS V14.01,2013-06-02 10:52:00,
2013-06-02 06:53:00,60.2,58.8,29.56,East,81,0.0,0.0,95,0.00,,BKN012,0.00,14.00,VWS V14.01,2013-06-02 10:53:00,
2013-06-02 06:54:00,60.2,58.8,29.56,East,81,0.0,0.0,95,0.00,,BKN012,0.00,14.00,VWS V14.01,2013-06-02 10:54:00,
2013-06-02 06:55:00,60.2,58.8,29.56,East,81,0.0,0.0,95,0.00,,BKN012,0.00,14.00,VWS V14.01,2013-06-02 10:55:00,
2013-06-02 06:56:00,60.2,58.8,29.56,East,81,0.0,0.0,95,0.00,,BKN012,0.00,12.00,VWS V14.01,2013-06-02 10:56:00,
2013-06-02 06:57:00,60.2,58.8,29.56,East,81,0.0,0.0,95,0.00,,BKN012,0.00,11.00,VWS V14.01,2013-06-02 10:57:00,
2013-06-02 06:58:00,60.4,59.0,29.56,East,81,0.0,0.0,95,0.00,,BKN012,0.00,11.00,VWS V14.01,2013-06-02 10:58:00,
2013-06-02 06:59:00,60.4,59.0,29.56,East,81,0.0,0.0,95,0.00,,BKN012,0.00,9.00,VWS V14.01,2013-06-02 10:59:00,
2013-06-02 07:00:00,60.4,59.0,29.57,East,81,0.0,0.0,95,0.00,,BKN012,0.00,9.00,VWS V14.01,2013-06-02 11:00:00,
2013-06-02 07:01:00,60.4,59.0,29.57,East,81,0.0,0.0,95,0.00,,BKN012,0.00,11.00,VWS V14.01,2013-06-02 11:01:00,
2013-06-02 07:02:00,60.4,59.0,29.57,East,81,0.0,0.0,95,0.00,,BKN012,0.00,11.00,VWS V14.01,2013-06-02 11:02:00,
2013-06-02 07:03:00,60.4,59.0,29.57,East,81,0.0,0.0,95,0.00,,BKN012,0.00,9.00,VWS V14.01,2013-06-02 11:03:00,
2013-06-02 07:04:00,60.4,59.0,29.57,East,81,0.0,0.0,95,0.00,,BKN012,0.00,9.00,VWS V14.01,2013-06-02 11:04:00,
2013-06-02 07:05:00,60.4,59.0,29.57,NE,54,0.0,0.0,95,0.00,,BKN012,0.00,14.00,VWS V14.01,2013-06-02 11:05:00,
2013-06-02 07:06:00,60.4,59.0,29.57,NE,54,0.0,0.0,95,0.00,,BKN012,0.00,21.00,VWS V14.01,2013-06-02 11:06:00,
2013-06-02 07:07:00,60.4,59.0,29.57,NE,54,0.0,0.0,95,0.00,,BKN012,0.00,26.00,VWS V14.01,2013-06-02 11:07:00,
2013-06-02 07:08:00,60.4,59.0,29.57,WNW,300,0.0,0.0,95,0.00,,BKN012,0.00,35.00,VWS V14.01,2013-06-02 11:08:00,
2013-06-02 07:09:00,60.4,59.0,29.57,WNW,300,0.0,0.0,95,0.00,,BKN012,0.00,37.00,VWS V14.01,2013-06-02 11:09:00,
2013-06-02 07:10:00,60.4,59.0,29.57,WNW,300,0.0,0.0,95,0.00,,BKN012,0.00,32.00,VWS V14.01,2013-06-02 11:10:00,
2013-06-02 07:11:00,60.4,59.0,29.57,NW,304,0.0,0.0,95,0.00,,BKN012,0.00,39.00,VWS V14.01,2013-06-02 11:11:00,
2013-06-02 07:12:00,60.4,59.0,29.57,WNW,292,0.0,0.0,95,0.00,,BKN012,0.00,39.00,VWS V14.01,2013-06-02 11:12:00,
2013-06-02 07:13:00,60.4,59.0,29.57,WNW,291,0.0,0.0,95,0.00,,BKN012,0.00,40.00,VWS V14.01,2013-06-02 11:13:00,
2013-06-02 07:14:00,60.4,59.0,29.57,WNW,292,0.0,0.0,95,0.00,,BKN012,0.00,42.00,VWS V14.01,2013-06-02 11:14:00,
2013-06-02 07:15:00,60.4,59.0,29.57,WNW,292,0.0,0.0,95,0.00,,BKN012,0.00,39.00,VWS V14.01,2013-06-02 11:15:00,
2013-06-02 07:16:00,60.4,59.0,29.57,NW,313,0.0,0.0,95,0.00,,BKN012,0.00,33.00,VWS V14.01,2013-06-02 11:16:00,
2013-06-02 07:17:00,60.4,59.0,29.57,NW,313,0.0,0.0,95,0.00,,BKN012,0.00,40.00,VWS V14.01,2013-06-02 11:17:00,
2013-06-02 07:18:00,60.4,59.0,29.57,NW,313,0.0,0.0,95,0.00,,BKN012,0.00,58.00,VWS V14.01,2013-06-02 11:18:00,
2013-06-02 07:19:00,60.4,59.0,29.57,NW,313,0.0,0.0,95,0.00,,BKN012,0.00,65.00,VWS V14.01,2013-06-02 11:19:00,
2013-06-02 07:20:00,60.4,59.0,29.57,NW,313,0.0,0.0,95,0.00,,BKN012,0.00,51.00,VWS V14.01,2013-06-02 11:20:00,
2013-06-02 07:21:00,60.4,59.0,29.57,NW,313,0.0,0.0,95,0.00,,BKN012,0.00,51.00,VWS V14.01,2013-06-02 11:21:00,
2013-06-02 07:22:00,60.4,59.0,29.57,NW,320,0.0,0.0,95,0.00,,BKN012,0.00,56.00,VWS V14.01,2013-06-02 11:22:00,
2013-06-02 07:23:00,60.4,59.0,29.57,NW,319,0.0,0.0,95,0.00,,BKN012,0.00,56.00,VWS V14.01,2013-06-02 11:23:00,
2013-06-02 07:24:00,60.4,59.0,29.57,NW,320,0.0,0.0,95,0.00,,BKN012,0.00,70.00,VWS V14.01,2013-06-02 11:24:00,
2013-06-02 07:25:00,60.5,59.1,29.57,NW,320,0.0,0.0,95,0.00,,BKN012,0.00,91.00,VWS V14.01,2013-06-02 11:25:00,
2013-06-02 07:26:00,60.5,59.1,29.57,NW,320,0.0,0.0,95,0.00,,BKN012,0.00,93.00,VWS V14.01,2013-06-02 11:26:00,
2013-06-02 07:27:00,60.5,59.1,29.57,NW,319,0.0,0.0,95,0.00,,BKN012,0.00,77.00,VWS V14.01,2013-06-02 11:27:00,
2013-06-02 07:28:00,60.5,59.1,29.57,SW,234,1.0,0.0,95,0.00,,BKN012,0.00,76.00,VWS V14.01,2013-06-02 11:28:00,
2013-06-02 07:29:00,60.5,59.1,29.57,SW,234,0.0,0.0,95,0.00,,BKN012,0.00,76.00,VWS V14.01,2013-06-02 11:29:00,
2013-06-02 07:30:00,60.5,59.1,29.57,SW,234,0.0,0.0,95,0.00,,BKN012,0.00,77.00,VWS V14.01,2013-06-02 11:30:00,
2013-06-02 07:31:00,60.5,59.1,29.57,SW,234,0.0,0.0,95,0.00,,BKN012,0.00,88.00,VWS V14.01,2013-06-02 11:31:00,
2013-06-02 07:32:00,60.5,59.1,29.57,East,101,2.0,0.0,95,0.00,,BKN012,0.00,69.00,VWS V14.01,2013-06-02 11:32:00,
2013-06-02 07:33:00,60.5,59.1,29.57,West,268,0.0,0.0,95,0.00,,BKN012,0.00,72.00,VWS V14.01,2013-06-02 11:33:00,
2013-06-02 07:34:00,60.5,59.1,29.57,West,268,0.0,0.0,95,0.00,,BKN012,0.00,77.00,VWS V14.01,2013-06-02 11:34:00,
2013-06-02 07:35:00,60.7,59.3,29.57,West,268,0.0,0.0,95,0.00,,BKN012,0.00,76.00,VWS V14.01,2013-06-02 11:35:00,
2013-06-02 07:36:00,60.7,59.3,29.57,West,268,0.0,0.0,95,0.00,,BKN012,0.00,63.00,VWS V14.01,2013-06-02 11:36:00,
2013-06-02 07:37:00,60.7,59.3,29.57,West,268,0.0,0.0,95,0.00,,BKN012,0.00,63.00,VWS V14.01,2013-06-02 11:37:00,
2013-06-02 07:38:00,60.7,59.3,29.57,West,269,0.0,0.0,95,0.00,,BKN012,0.00,51.00,VWS V14.01,2013-06-02 11:38:00,
2013-06-02 07:39:00,60.7,59.3,29.57,West,269,0.0,0.0,95,0.00,,BKN012,0.00,53.00,VWS V14.01,2013-06-02 11:39:00,
2013-06-02 07:40:00,60.7,59.3,29.57,West,268,0.0,0.0,95,0.00,,BKN012,0.00,46.00,VWS V14.01,2013-06-02 11:40:00,
2013-06-02 07:41:00,60.7,59.3,29.57,West,269,0.0,0.0,95,0.00,,BKN012,0.00,44.00,VWS V14.01,2013-06-02 11:41:00,
2013-06-02 07:42:00,60.7,59.3,29.57,West,268,0.0,0.0,95,0.00,,BKN012,0.00,42.00,VWS V14.01,2013-06-02 11:42:00,
2013-06-02 07:43:00,60.9,59.5,29.57,West,268,0.0,0.0,95,0.00,,BKN012,0.00,42.00,VWS V14.01,2013-06-02 11:43:00,
2013-06-02 07:44:00,60.9,59.5,29.57,West,268,0.0,0.0,95,0.00,,BKN012,0.00,49.00,VWS V14.01,2013-06-02 11:44:00,
2013-06-02 07:45:00,60.9,59.5,29.58,West,268,0.0,0.0,95,0.00,,BKN012,0.00,56.00,VWS V14.01,2013-06-02 11:45:00,
2013-06-02 07:46:00,60.9,59.5,29.58,West,268,0.0,0.0,95,0.00,,BKN012,0.00,65.00,VWS V14.01,2013-06-02 11:46:00,
2013-06-02 07:47:00,60.9,59.5,29.58,West,268,0.0,0.0,95,0.00,,BKN012,0.00,67.00,VWS V14.01,2013-06-02 11:47:00,
2013-06-02 07:48:00,60.9,59.5,29.58,West,268,0.0,0.0,95,0.00,,BKN012,0.00,69.00,VWS V14.01,2013-06-02 11:48:00,
2013-06-02 07:49:00,60.9,59.5,29.58,West,268,0.0,0.0,95,0.00,,BKN012,0.00,76.00,VWS V14.01,2013-06-02 11:49:00,
2013-06-02 07:50:00,60.9,59.5,29.58,West,268,0.0,0.0,95,0.00,,BKN012,0.00,77.00,VWS V14.01,2013-06-02 11:50:00,
2013-06-02 07:51:00,60.9,59.5,29.58,West,268,0.0,0.0,95,0.00,,BKN012,0.00,88.00,VWS V14.01,2013-06-02 11:51:00,
2013-06-02 07:52:00,60.9,59.5,29.58,West,268,0.0,0.0,95,0.00,,BKN012,0.00,81.00,VWS V14.01,2013-06-02 11:52:00,
2013-06-02 07:53:00,61.0,59.6,29.58,West,268,0.0,0.0,95,0.00,,BKN012,0.00,67.00,VWS V14.01,2013-06-02 11:53:00,
2013-06-02 07:54:00,61.0,59.6,29.58,West,268,0.0,0.0,95,0.00,,BKN012,0.00,67.00,VWS V14.01,2013-06-02 11:54:00,
2013-06-02 07:55:00,61.0,59.6,29.58,West,268,0.0,0.0,95,0.00,,BKN012,0.00,65.00,VWS V14.01,2013-06-02 11:55:00,
2013-06-02 07:56:00,61.0,59.6,29.58,West,268,0.0,0.0,95,0.00,,BKN012,0.00,56.00,VWS V14.01,2013-06-02 11:56:00,
2013-06-02 07:57:00,61.0,59.6,29.58,West,268,0.0,0.0,95,0.00,,BKN012,0.00,62.00,VWS V14.01,2013-06-02 11:57:00,
2013-06-02 07:58:00,61.0,59.6,29.58,West,268,0.0,0.0,95,0.00,,BKN012,0.00,62.00,VWS V14.01,2013-06-02 11:58:00,
2013-06-02 07:59:00,61.0,59.6,29.58,West,268,0.0,0.0,95,0.00,,BKN012,0.00,62.00,VWS V14.01,2013-06-02 11:59:00,
2013-06-02 08:00:00,61.0,59.6,29.58,West,268,0.0,0.0,95,0.00,,BKN012,0.00,62.00,VWS V14.01,2013-06-02 12:00:00,
2013-06-02 08:01:00,61.0,59.6,29.58,West,268,0.0,0.0,95,0.00,,BKN012,0.00,91.00,VWS V14.01,2013-06-02 12:01:00,
2013-06-02 08:02:00,61.2,59.8,29.58,SSE,163,0.0,0.0,95,0.00,,BKN012,0.00,81.00,VWS V14.01,2013-06-02 12:02:00,
2013-06-02 08:03:00,61.2,59.8,29.58,SSE,162,0.0,0.0,95,0.00,,BKN012,0.00,60.00,VWS V14.01,2013-06-02 12:03:00,
2013-06-02 08:04:00,61.2,59.8,29.58,SSE,161,0.0,0.0,95,0.00,,BKN012,0.00,53.00,VWS V14.01,2013-06-02 12:04:00,
2013-06-02 08:05:00,61.2,59.8,29.58,SSE,161,0.0,0.0,95,0.00,,BKN012,0.00,53.00,VWS V14.01,2013-06-02 12:05:00,
2013-06-02 08:06:00,61.2,59.8,29.58,SSE,161,0.0,0.0,95,0.00,,BKN012,0.00,39.00,VWS V14.01,2013-06-02 12:06:00,
2013-06-02 08:07:00,61.2,59.8,29.58,SSE,161,0.0,0.0,95,0.00,,BKN012,0.00,28.00,VWS V14.01,2013-06-02 12:07:00,
2013-06-02 08:08:00,61.2,59.8,29.58,SSE,152,0.0,0.0,95,0.00,,BKN012,0.00,21.00,VWS V14.01,2013-06-02 12:08:00,
2013-06-02 08:09:00,61.2,59.8,29.58,SSE,153,0.0,0.0,95,0.00,,BKN012,0.00,26.00,VWS V14.01,2013-06-02 12:09:00,
2013-06-02 08:10:00,61.2,59.8,29.58,SSE,153,0.0,0.0,95,0.00,,OVC023,0.00,44.00,VWS V14.01,2013-06-02 12:10:00,
2013-06-02 08:11:00,61.2,59.8,29.58,South,175,1.0,0.0,95,0.00,,OVC023,0.00,70.00,VWS V14.01,2013-06-02 12:11:00,
2013-06-02 08:12:00,61.2,59.8,29.58,North,355,1.0,0.0,95,0.00,,OVC023,0.00,62.00,VWS V14.01,2013-06-02 12:12:00,
2013-06-02 08:13:00,61.0,59.6,29.58,NNW,332,0.0,0.0,95,0.00,,OVC023,0.00,60.00,VWS V14.01,2013-06-02 12:13:00,
2013-06-02 08:14:00,61.0,59.6,29.58,NNW,332,1.0,0.0,95,0.00,,OVC023,0.00,76.00,VWS V14.01,2013-06-02 12:14:00,
2013-06-02 08:15:00,61.0,59.6,29.58,NNW,335,0.0,0.0,95,0.00,,OVC023,0.00,81.00,VWS V14.01,2013-06-02 12:15:00,
2013-06-02 08:16:00,61.0,59.6,29.58,NNW,335,0.0,0.0,95,0.00,,OVC023,0.00,77.00,VWS V14.01,2013-06-02 12:16:00,
2013-06-02 08:17:00,61.0,59.6,29.58,NNW,335,0.0,0.0,95,0.00,,OVC023,0.00,79.00,VWS V14.01,2013-06-02 12:17:00,
2013-06-02 08:18:00,61.0,59.6,29.58,NNW,335,0.0,0.0,95,0.00,,OVC023,0.00,95.00,VWS V14.01,2013-06-02 12:18:00,
2013-06-02 08:19:00,61.0,59.6,29.58,NNW,335,0.0,0.0,95,0.00,,OVC023,0.00,116.00,VWS V14.01,2013-06-02 12:19:00,
2013-06-02 08:20:00,60.9,59.5,29.58,NNW,335,0.0,0.0,95,0.00,,OVC023,0.00,144.00,VWS V14.01,2013-06-02 12:20:00,
2013-06-02 08:21:00,60.9,59.5,29.58,NNW,335,0.0,0.0,95,0.00,,OVC023,0.00,176.00,VWS V14.01,2013-06-02 12:21:00,
2013-06-02 08:22:00,60.9,59.5,29.58,NNW,335,0.0,0.0,95,0.00,,OVC023,0.00,128.00,VWS V14.01,2013-06-02 12:22:00,
2013-06-02 08:23:00,60.9,59.5,29.58,NE,40,0.0,0.0,95,0.00,,OVC023,0.00,132.00,VWS V14.01,2013-06-02 12:23:00,
2013-06-02 08:24:00,60.9,59.5,29.58,NNE,24,0.0,0.0,95,0.00,,OVC023,0.00,144.00,VWS V14.01,2013-06-02 12:24:00,
2013-06-02 08:25:00,60.7,59.3,29.58,NNE,24,0.0,0.0,95,0.00,,OVC023,0.00,97.00,VWS V14.01,2013-06-02 12:25:00,
2013-06-02 08:26:00,60.7,59.3,29.58,NNE,24,0.0,0.0,95,0.00,,OVC023,0.00,105.00,VWS V14.01,2013-06-02 12:26:00,
2013-06-02 08:27:00,60.7,59.3,29.58,NNE,24,0.0,0.0,95,0.00,,OVC023,0.00,127.00,VWS V14.01,2013-06-02 12:27:00,
2013-06-02 08:28:00,60.7,59.3,29.58,NNE,24,0.0,0.0,95,0.00,,OVC023,0.00,130.00,VWS V14.01,2013-06-02 12:28:00,
2013-06-02 08:29:00,60.7,59.3,29.58,NNE,24,0.0,0.0,95,0.00,,OVC023,0.00,118.00,VWS V14.01,2013-06-02 12:29:00,
2013-06-02 08:30:00,60.7,59.3,29.59,NNE,24,1.0,0.0,95,0.00,,OVC023,0.00,125.00,VWS V14.01,2013-06-02 12:30:00,
2013-06-02 08:31:00,60.7,59.3,29.59,NNE,24,0.0,0.0,95,0.00,,OVC023,0.00,171.00,VWS V14.01,2013-06-02 12:31:00,
2013-06-02 08:32:00,60.7,59.3,29.59,NNE,24,0.0,0.0,95,0.00,,OVC023,0.00,139.00,VWS V14.01,2013-06-02 12:32:00,
2013-06-02 08:33:00,60.7,59.3,29.59,NE,38,1.0,0.0,95,0.00,,OVC023,0.00,128.00,VWS V14.01,2013-06-02 12:33:00,
2013-06-02 08:34:00,60.5,59.1,29.59,NE,37,0.0,0.0,95,0.00,,OVC023,0.00,100.00,VWS V14.01,2013-06-02 12:34:00,
2013-06-02 08:35:00,60.5,58.8,29.59,WNW,302,0.0,0.0,94,0.00,,OVC023,0.00,123.00,VWS V14.01,2013-06-02 12:35:00,
2013-06-02 08:36:00,60.5,58.8,29.59,WNW,302,1.0,0.0,94,0.00,,OVC023,0.00,158.00,VWS V14.01,2013-06-02 12:36:00,
2013-06-02 08:37:00,60.5,58.8,29.59,WNW,302,0.0,0.0,94,0.00,,OVC023,0.00,176.00,VWS V14.01,2013-06-02 12:37:00,
2013-06-02 08:38:00,60.5,58.8,29.59,WNW,302,0.0,0.0,94,0.00,,OVC023,0.00,176.00,VWS V14.01,2013-06-02 12:38:00,
2013-06-02 08:39:00,60.5,58.8,29.59,WNW,302,0.0,0.0,94,0.00,,OVC023,0.00,176.00,VWS V14.01,2013-06-02 12:39:00,
2013-06-02 08:40:00,60.5,58.8,29.59,WNW,302,0.0,0.0,94,0.00,,OVC023,0.00,118.00,VWS V14.01,2013-06-02 12:40:00,
2013-06-02 08:41:00,60.4,58.7,29.59,WNW,302,0.0,0.0,94,0.00,,OVC023,0.00,116.00,VWS V14.01,2013-06-02 12:41:00,
2013-06-02 08:42:00,60.4,58.7,29.59,West,274,0.0,0.0,94,0.00,,OVC023,0.00,113.00,VWS V14.01,2013-06-02 12:42:00,
2013-06-02 08:43:00,60.4,58.7,29.59,West,267,0.0,0.0,94,0.00,,OVC023,0.00,114.00,VWS V14.01,2013-06-02 12:43:00,
2013-06-02 08:44:00,60.2,58.5,29.59,SW,217,0.0,0.0,94,0.00,,OVC023,0.00,121.00,VWS V14.01,2013-06-02 12:44:00,
2013-06-02 08:45:00,60.2,58.5,29.61,SW,217,0.0,0.0,94,0.00,,OVC023,0.00,116.00,VWS V14.01,2013-06-02 12:45:00,
2013-06-02 08:46:00,60.2,58.5,29.61,WSW,241,0.0,0.0,94,0.00,,OVC023,0.00,98.00,VWS V14.01,2013-06-02 12:46:00,
2013-06-02 08:47:00,60.2,58.5,29.61,WSW,241,0.0,0.0,94,0.00,,OVC023,0.00,60.00,VWS V14.01,2013-06-02 12:47:00,
2013-06-02 08:48:00,60.1,58.1,29.61,NE,38,1.0,0.0,93,0.00,,OVC023,0.00,155.00,VWS V14.01,2013-06-02 12:48:00,
2013-06-02 08:49:00,60.1,58.1,29.61,NE,42,0.0,0.0,93,0.00,,OVC023,0.00,134.00,VWS V14.01,2013-06-02 12:49:00,
2013-06-02 08:50:00,59.9,57.9,29.61,NE,42,0.0,0.0,93,0.00,,OVC023,0.00,132.00,VWS V14.01,2013-06-02 12:50:00,
2013-06-02 08:51:00,59.9,57.9,29.61,NE,42,1.0,0.0,93,0.00,,OVC023,0.00,111.00,VWS V14.01,2013-06-02 12:51:00,
2013-06-02 08:52:00,59.9,57.9,29.61,NNE,28,0.0,0.0,93,0.00,,OVC023,0.00,125.00,VWS V14.01,2013-06-02 12:52:00,
2013-06-02 08:53:00,59.8,57.8,29.61,NNE,28,0.0,0.0,93,0.00,,OVC023,0.00,121.00,VWS V14.01,2013-06-02 12:53:00,
2013-06-02 08:54:00,59.8,57.8,29.61,NNE,28,0.0,0.0,93,0.00,,OVC023,0.00,123.00,VWS V14.01,2013-06-02 12:54:00,
2013-06-02 08:55:00,59.6,57.6,29.61,NNW,347,0.0,0.0,93,0.00,,OVC023,0.00,120.00,VWS V14.01,2013-06-02 12:55:00,
2013-06-02 08:56:00,59.5,57.2,29.61,North,355,0.0,0.0,92,0.00,,OVC023,0.00,118.00,VWS V14.01,2013-06-02 12:56:00,
2013-06-02 08:57:00,59.5,57.2,29.61,NNE,14,0.0,0.0,92,0.00,,OVC023,0.00,149.00,VWS V14.01,2013-06-02 12:57:00,
2013-06-02 08:58:00,59.3,57.0,29.61,NNE,14,0.0,0.0,92,0.00,,OVC023,0.00,149.00,VWS V14.01,2013-06-02 12:58:00,
2013-06-02 08:59:00,59.2,56.9,29.61,NNE,14,0.0,0.0,92,0.00,,OVC023,0.00,158.00,VWS V14.01,2013-06-02 12:59:00,
2013-06-02 09:00:00,59.0,56.7,29.62,NNE,14,0.0,0.0,92,0.00,,OVC023,0.00,149.00,VWS V14.01,2013-06-02 13:00:00,
2013-06-02 09:01:00,59.0,56.4,29.62,WSW,242,0.0,0.0,91,0.00,,OVC023,0.00,158.00,VWS V14.01,2013-06-02 13:01:00,
2013-06-02 09:02:00,58.9,56.3,29.62,West,262,0.0,0.0,91,0.00,,OVC023,0.00,134.00,VWS V14.01,2013-06-02 13:02:00,
2013-06-02 09:03:00,58.7,56.1,29.62,West,270,0.0,0.0,91,0.00,,OVC023,0.00,142.00,VWS V14.01,2013-06-02 13:03:00,
2013-06-02 09:04:00,58.6,56.0,29.62,West,270,0.0,0.0,91,0.00,,OVC023,0.00,130.00,VWS V14.01,2013-06-02 13:04:00,
2013-06-02 09:05:00,58.6,55.7,29.62,West,276,0.0,0.0,90,0.00,,OVC023,0.00,151.00,VWS V14.01,2013-06-02 13:05:00,
2013-06-02 09:06:00,58.4,55.5,29.62,WSW,237,1.0,0.0,90,0.00,,OVC023,0.00,123.00,VWS V14.01,2013-06-02 13:06:00,
2013-06-02 09:07:00,58.3,55.4,29.62,North,350,0.0,0.0,90,0.00,,OVC023,0.00,151.00,VWS V14.01,2013-06-02 13:07:00,
2013-06-02 09:08:00,58.3,55.4,29.62,NNW,339,0.0,0.0,90,0.00,,OVC023,0.00,146.00,VWS V14.01,2013-06-02 13:08:00,
2013-06-02 09:09:00,58.1,55.2,29.62,SSE,164,0.0,0.0,90,0.00,,OVC023,0.00,127.00,VWS V14.01,2013-06-02 13:09:00,
2013-06-02 09:10:00,58.0,54.8,29.62,NNW,330,0.0,0.0,89,0.00,,OVC023,0.00,134.00,VWS V14.01,2013-06-02 13:10:00,
2013-06-02 09:11:00,57.8,54.6,29.62,NNW,330,0.0,0.0,89,0.00,,OVC023,0.00,141.00,VWS V14.01,2013-06-02 13:11:00,
2013-06-02 09:12:00,57.6,54.4,29.62,ESE,115,1.0,0.0,89,0.00,,OVC023,0.00,148.00,VWS V14.01,2013-06-02 13:12:00,
2013-06-02 09:13:00,57.5,54.0,29.62,NNE,17,0.0,0.0,88,0.00,,OVC023,0.00,151.00,VWS V14.01,2013-06-02 13:13:00,
2013-06-02 09:14:00,57.3,53.8,29.62,East,87,0.0,0.0,88,0.00,,OVC023,0.00,130.00,VWS V14.01,2013-06-02 13:14:00,
2013-06-02 09:15:00,57.2,53.7,29.63,East,99,1.0,0.0,88,0.00,,OVC043,0.00,118.00,VWS V14.01,2013-06-02 13:15:00,
2013-06-02 09:16:00,57.0,53.2,29.63,NNW,335,0.0,0.0,87,0.00,,OVC043,0.00,120.00,VWS V14.01,2013-06-02 13:16:00,
2013-06-02 09:17:00,57.0,53.2,29.63,NE,36,0.0,0.0,87,0.00,,OVC043,0.00,125.00,VWS V14.01,2013-06-02 13:17:00,
2013-06-02 09:18:00,56.7,52.9,29.63,NNW,337,0.0,0.0,87,0.00,,OVC043,0.00,120.00,VWS V14.01,2013-06-02 13:18:00,
2013-06-02 09:19:00,56.7,52.9,29.63,NNW,335,0.0,0.0,87,0.00,,OVC043,0.00,116.00,VWS V14.01,2013-06-02 13:19:00,
2013-06-02 09:20:00,56.6,52.8,29.63,SE,140,1.0,0.0,87,0.00,,OVC043,0.00,141.00,VWS V14.01,2013-06-02 13:20:00,
2013-06-02 09:21:00,56.5,52.4,29.63,South,190,0.0,0.0,86,0.00,,OVC043,0.00,171.00,VWS V14.01,2013-06-02 13:21:00,
2013-06-02 09:22:00,56.5,52.7,29.63,South,190,0.0,0.0,87,0.00,,OVC043,0.00,183.00,VWS V14.01,2013-06-02 13:22:00,
2013-06-02 09:23:00,56.3,52.5,29.63,South,191,0.0,0.0,87,0.00,,OVC043,0.00,169.00,VWS V14.01,2013-06-02 13:23:00,
2013-06-02 09:24:00,56.3,52.5,29.63,South,191,0.0,0.0,87,0.00,,OVC043,0.00,186.00,VWS V14.01,2013-06-02 13:24:00,
2013-06-02 09:25:00,56.3,52.5,29.63,South,191,0.0,0.0,87,0.00,,OVC043,0.00,192.00,VWS V14.01,2013-06-02 13:25:00,
2013-06-02 09:26:00,56.2,52.4,29.63,SSE,163,0.0,0.0,87,0.00,,OVC043,0.00,172.00,VWS V14.01,2013-06-02 13:26:00,
2013-06-02 09:27:00,56.2,52.1,29.63,NNE,25,1.0,0.0,86,0.00,,OVC043,0.00,167.00,VWS V14.01,2013-06-02 13:27:00,
2013-06-02 09:28:00,56.0,51.9,29.63,North,11,0.0,0.0,86,0.00,,OVC043,0.00,162.00,VWS V14.01,2013-06-02 13:28:00,
2013-06-02 09:29:00,56.0,51.9,29.63,NE,53,0.0,0.0,86,0.00,,OVC043,0.00,165.00,VWS V14.01,2013-06-02 13:29:00,
2013-06-02 09:30:00,55.9,51.8,29.64,NE,36,1.0,0.0,86,0.00,,OVC043,0.00,156.00,VWS V14.01,2013-06-02 13:30:00,
2013-06-02 09:31:00,55.9,51.8,29.64,NE,36,0.0,0.0,86,0.00,,OVC043,0.00,171.00,VWS V14.01,2013-06-02 13:31:00,
2013-06-02 09:32:00,55.7,51.6,29.64,NE,36,0.0,0.0,86,0.00,,OVC043,0.00,179.00,VWS V14.01,2013-06-02 13:32:00,
2013-06-02 09:33:00,55.7,51.6,29.64,WNW,303,0.0,0.0,86,0.00,,OVC043,0.00,190.00,VWS V14.01,2013-06-02 13:33:00,
2013-06-02 09:34:00,55.7,51.6,29.64,SSE,157,0.0,0.0,86,0.00,,OVC043,0.00,186.00,VWS V14.01,2013-06-02 13:34:00,
2013-06-02 09:35:00,55.6,51.2,29.64,WNW,289,0.0,0.0,85,0.00,,OVC043,0.00,193.00,VWS V14.01,2013-06-02 13:35:00,
2013-06-02 09:36:00,55.6,51.2,29.64,NNW,332,0.0,0.0,85,0.00,,OVC043,0.00,197.00,VWS V14.01,2013-06-02 13:36:00,
2013-06-02 09:37:00,55.4,51.0,29.64,NNW,332,0.0,0.0,85,0.00,,OVC043,0.00,197.00,VWS V14.01,2013-06-02 13:37:00,
2013-06-02 09:38:00,55.4,51.0,29.64,NNE,15,0.0,0.0,85,0.00,,OVC043,0.00,197.00,VWS V14.01,2013-06-02 13:38:00,
2013-06-02 09:39:00,55.4,51.0,29.64,NNE,15,0.0,0.0,85,0.00,,OVC043,0.00,211.00,VWS V14.01,2013-06-02 13:39:00,
2013-06-02 09:40:00,55.3,50.9,29.64,South,189,0.0,0.0,85,0.00,,OVC043,0.00,230.00,VWS V14.01,2013-06-02 13:40:00,
2013-06-02 09:41:00,55.3,50.9,29.64,SSW,202,0.0,0.0,85,0.00,,OVC043,0.00,229.00,VWS V14.01,2013-06-02 13:41:00,
2013-06-02 09:42:00,55.3,50.9,29.64,SSW,202,0.0,0.0,85,0.00,,OVC043,0.00,202.00,VWS V14.01,2013-06-02 13:42:00,
2013-06-02 09:43:00,55.3,50.9,29.64,SSW,202,0.0,0.0,85,0.00,,OVC043,0.00,195.00,VWS V14.01,2013-06-02 13:43:00,
2013-06-02 09:44:00,55.3,50.9,29.64,SSW,202,0.0,0.0,85,0.00,,OVC043,0.00,183.00,VWS V14.01,2013-06-02 13:44:00,
2013-06-02 09:45:00,55.3,51.2,29.64,SSW,203,0.0,0.0,86,0.00,,OVC043,0.00,178.00,VWS V14.01,2013-06-02 13:45:00,
2013-06-02 09:46:00,55.1,50.7,29.64,SSW,202,0.0,0.0,85,0.00,,OVC043,0.00,188.00,VWS V14.01,2013-06-02 13:46:00,
2013-06-02 09:47:00,55.1,50.7,29.64,SSW,203,0.0,0.0,85,0.00,,OVC043,0.00,195.00,VWS V14.01,2013-06-02 13:47:00,
2013-06-02 09:48:00,55.1,50.7,29.64,NNW,342,0.0,0.0,85,0.00,,OVC043,0.00,211.00,VWS V14.01,2013-06-02 13:48:00,
2013-06-02 09:49:00,55.1,50.7,29.64,NW,319,1.0,0.0,85,0.00,,OVC043,0.00,213.00,VWS V14.01,2013-06-02 13:49:00,
2013-06-02 09:50:00,55.0,50.6,29.64,ENE,71,0.0,0.0,85,0.00,,OVC043,0.00,206.00,VWS V14.01,2013-06-02 13:50:00,
2013-06-02 09:51:00,55.0,50.6,29.64,NNE,19,0.0,0.0,85,0.00,,OVC043,0.00,221.00,VWS V14.01,2013-06-02 13:51:00,
2013-06-02 09:52:00,55.0,50.6,29.64,ENE,65,0.0,0.0,85,0.00,,OVC043,0.00,206.00,VWS V14.01,2013-06-02 13:52:00,
2013-06-02 09:53:00,54.8,50.4,29.64,ENE,65,0.0,0.0,85,0.00,,OVC043,0.00,209.00,VWS V14.01,2013-06-02 13:53:00,
2013-06-02 09:54:00,54.8,50.4,29.64,NE,37,0.0,0.0,85,0.00,,OVC043,0.00,220.00,VWS V14.01,2013-06-02 13:54:00,
2013-06-02 09:55:00,54.8,50.4,29.64,NE,37,0.0,0.0,85,0.00,,OVC043,0.00,220.00,VWS V14.01,2013-06-02 13:55:00,
2013-06-02 09:56:00,54.8,50.4,29.64,NE,37,0.0,0.0,85,0.00,,OVC043,0.00,207.00,VWS V14.01,2013-06-02 13:56:00,
2013-06-02 09:57:00,54.8,50.4,29.64,NE,37,0.0,0.0,85,0.00,,OVC043,0.00,206.00,VWS V14.01,2013-06-02 13:57:00,
2013-06-02 09:58:00,55.0,50.9,29.64,NE,37,0.0,0.0,86,0.00,,OVC043,0.00,200.00,VWS V14.01,2013-06-02 13:58:00,
2013-06-02 09:59:00,55.0,50.9,29.64,NE,37,0.0,0.0,86,0.00,,OVC043,0.00,202.00,VWS V14.01,2013-06-02 13:59:00,
2013-06-02 10:00:00,55.0,50.9,29.64,NE,37,0.0,0.0,86,0.00,,OVC006,0.00,200.00,VWS V14.01,2013-06-02 14:00:00,
2013-06-02 10:01:00,55.0,50.9,29.64,NE,37,0.0,0.0,86,0.00,,OVC006,0.00,200.00,VWS V14.01,2013-06-02 14:01:00,
2013-06-02 10:02:00,55.0,50.9,29.64,NE,37,0.0,0.0,86,0.00,,OVC006,0.00,211.00,VWS V14.01,2013-06-02 14:02:00,
2013-06-02 10:03:00,55.0,50.9,29.64,NE,37,0.0,0.0,86,0.00,,OVC006,0.00,232.00,VWS V14.01,2013-06-02 14:03:00,
2013-06-02 10:04:00,55.0,50.9,29.64,NE,37,0.0,0.0,86,0.00,,OVC006,0.00,223.00,VWS V14.01,2013-06-02 14:04:00,
2013-06-02 10:05:00,55.0,50.9,29.64,NNE,19,0.0,0.0,86,0.00,,OVC006,0.00,206.00,VWS V14.01,2013-06-02 14:05:00,
2013-06-02 10:06:00,55.0,50.9,29.64,NNW,345,1.0,0.0,86,0.00,,OVC006,0.00,229.00,VWS V14.01,2013-06-02 14:06:00,
2013-06-02 10:07:00,55.0,50.9,29.64,NNW,345,0.0,0.0,86,0.00,,OVC006,0.00,281.00,VWS V14.01,2013-06-02 14:07:00,
2013-06-02 10:08:00,55.0,50.9,29.64,South,178,0.0,0.0,86,0.00,,OVC006,0.00,260.00,VWS V14.01,2013-06-02 14:08:00,
2013-06-02 10:09:00,55.0,50.9,29.64,NNE,20,1.0,0.0,86,0.00,,OVC006,0.00,234.00,VWS V14.01,2013-06-02 14:09:00,
2013-06-02 10:10:00,55.0,50.9,29.64,NNE,15,1.0,0.0,86,0.00,,OVC006,0.00,322.00,VWS V14.01,2013-06-02 14:10:00,
2013-06-02 10:11:00,55.0,50.6,29.64,SSE,148,2.0,0.0,85,0.00,,OVC006,0.00,313.00,VWS V14.01,2013-06-02 14:11:00,
2013-06-02 10:12:00,55.0,50.6,29.64,East,86,0.0,0.0,85,0.00,,OVC006,0.00,283.00,VWS V14.01,2013-06-02 14:12:00,
2013-06-02 10:13:00,55.0,50.6,29.64,East,86,0.0,0.0,85,0.00,,OVC006,0.00,288.00,VWS V14.01,2013-06-02 14:13:00,
2013-06-02 10:14:00,55.0,50.6,29.64,North,5,0.0,0.0,85,0.00,,OVC006,0.00,308.00,VWS V14.01,2013-06-02 14:14:00,
2013-06-02 10:15:00,55.0,50.6,29.64,SE,134,0.0,0.0,85,0.00,,OVC006,0.00,274.00,VWS V14.01,2013-06-02 14:15:00,
2013-06-02 10:16:00,55.0,50.6,29.64,NW,322,0.0,0.0,85,0.00,,OVC006,0.00,338.00,VWS V14.01,2013-06-02 14:16:00,
2013-06-02 10:17:00,55.0,50.6,29.64,North,355,1.0,0.0,85,0.00,,OVC006,0.00,394.00,VWS V14.01,2013-06-02 14:17:00,
2013-06-02 10:18:00,55.0,50.6,29.64,North,11,1.0,0.0,85,0.00,,OVC006,0.00,394.00,VWS V14.01,2013-06-02 14:18:00,
2013-06-02 10:19:00,55.0,50.6,29.64,NNE,23,1.0,0.0,85,0.00,,OVC006,0.00,478.00,VWS V14.01,2013-06-02 14:19:00,
2013-06-02 10:20:00,55.1,50.7,29.64,NNE,23,0.0,0.0,85,0.00,,OVC006,0.00,524.00,VWS V14.01,2013-06-02 14:20:00,
2013-06-02 10:21:00,55.1,50.7,29.64,NW,315,3.0,0.0,85,0.00,,OVC006,0.00,445.00,VWS V14.01,2013-06-02 14:21:00,
2013-06-02 10:22:00,55.3,50.9,29.64,NW,323,0.0,0.0,85,0.00,,OVC006,0.00,422.00,VWS V14.01,2013-06-02 14:22:00,
2013-06-02 10:23:00,55.3,50.6,29.64,NW,323,0.0,0.0,84,0.00,,OVC006,0.00,501.00,VWS V14.01,2013-06-02 14:23:00,
2013-06-02 10:24:00,55.3,50.6,29.64,NW,323,0.0,0.0,84,0.00,,OVC006,0.00,501.00,VWS V14.01,2013-06-02 14:24:00,
2013-06-02 10:25:00,55.4,50.7,29.64,NW,317,0.0,0.0,84,0.00,,OVC006,0.00,501.00,VWS V14.01,2013-06-02 14:25:00,
2013-06-02 10:26:00,55.4,50.0,29.64,NW,317,0.0,0.0,82,0.00,,OVC006,0.00,501.00,VWS V14.01,2013-06-02 14:26:00,
2013-06-02 10:27:00,55.4,50.0,29.64,East,95,3.0,0.0,82,0.00,,OVC006,0.00,362.00,VWS V14.01,2013-06-02 14:27:00,
2013-06-02 10:28:00,55.3,49.9,29.64,NW,319,0.0,0.0,82,0.00,,OVC006,0.00,380.00,VWS V14.01,2013-06-02 14:28:00,
2013-06-02 10:29:00,55.4,50.0,29.64,NW,319,0.0,0.0,82,0.00,,OVC006,0.00,373.00,VWS V14.01,2013-06-02 14:29:00,
2013-06-02 10:30:00,55.6,50.5,29.65,NW,319,1.0,0.0,83,0.00,,OVC006,0.00,362.00,VWS V14.01,2013-06-02 14:30:00,
2013-06-02 10:31:00,55.6,50.5,29.65,NW,319,1.0,0.0,83,0.00,,OVC006,0.00,396.00,VWS V14.01,2013-06-02 14:31:00,
2013-06-02 10:32:00,55.4,49.7,29.65,NW,319,0.0,0.0,81,0.00,,OVC006,0.00,483.00,VWS V14.01,2013-06-02 14:32:00,
2013-06-02 10:33:00,55.3,49.6,29.65,NW,319,0.0,0.0,81,0.00,,OVC006,0.00,418.00,VWS V14.01,2013-06-02 14:33:00,
2013-06-02 10:34:00,55.3,49.2,29.65,North,360,0.0,0.0,80,0.00,,OVC006,0.00,415.00,VWS V14.01,2013-06-02 14:34:00,
2013-06-02 10:35:00,55.3,49.6,29.65,North,360,0.0,0.0,81,0.00,,OVC006,0.00,408.00,VWS V14.01,2013-06-02 14:35:00,
2013-06-02 10:36:00,55.3,49.9,29.65,East,94,0.0,0.0,82,0.00,,OVC006,0.00,404.00,VWS V14.01,2013-06-02 14:36:00,
2013-06-02 10:37:00,55.4,49.7,29.65,NNW,348,1.0,0.0,81,0.00,,OVC006,0.00,380.00,VWS V14.01,2013-06-02 14:37:00,
2013-06-02 10:38:00,55.4,49.3,29.65,NNW,331,0.0,0.0,80,0.00,,OVC006,0.00,388.00,VWS V14.01,2013-06-02 14:38:00,
2013-06-02 10:39:00,55.3,49.2,29.65,SSE,161,5.0,0.0,80,0.00,,OVC006,0.00,367.00,VWS V14.01,2013-06-02 14:39:00,
2013-06-02 10:40:00,55.1,49.0,29.65,South,190,0.0,0.0,80,0.00,,OVC014,0.00,380.00,VWS V14.01,2013-06-02 14:40:00,
2013-06-02 10:41:00,55.3,49.9,29.65,ENE,62,1.0,0.0,82,0.00,,OVC014,0.00,380.00,VWS V14.01,2013-06-02 14:41:00,
2013-06-02 10:42:00,55.3,49.2,29.65,East,92,4.0,0.0,80,0.00,,OVC014,0.00,399.00,VWS V14.01,2013-06-02 14:42:00,
2013-06-02 10:43:00,55.3,49.2,29.65,West,262,0.0,0.0,80,0.00,,OVC014,0.00,489.00,VWS V14.01,2013-06-02 14:43:00,
2013-06-02 10:44:00,55.4,49.7,29.65,SSE,150,3.0,0.0,81,0.00,,OVC014,0.00,469.00,VWS V14.01,2013-06-02 14:44:00,
2013-06-02 10:45:00,55.4,49.3,29.66,SE,126,0.0,0.0,80,0.00,,OVC014,0.00,497.00,VWS V14.01,2013-06-02 14:45:00,
2013-06-02 10:46:00,55.7,50.3,29.66,NW,325,0.0,0.0,82,0.00,,OVC014,0.00,536.00,VWS V14.01,2013-06-02 14:46:00,
2013-06-02 10:47:00,55.7,49.6,29.66,ESE,119,0.0,0.0,80,0.01,,OVC014,0.01,554.00,VWS V14.01,2013-06-02 14:47:00,
2013-06-02 10:48:00,56.0,50.3,29.66,ESE,119,0.0,0.0,81,0.01,,OVC014,0.01,513.00,VWS V14.01,2013-06-02 14:48:00,
2013-06-02 10:49:00,56.2,50.5,29.66,NNW,347,0.0,0.0,81,0.01,,OVC014,0.01,527.00,VWS V14.01,2013-06-02 14:49:00,
2013-06-02 10:50:00,56.3,50.5,29.66,NNW,347,0.0,0.0,81,0.01,,OVC014,0.01,464.00,VWS V14.01,2013-06-02 14:50:00,
2013-06-02 10:51:00,56.3,49.9,29.66,NE,53,0.0,0.0,79,0.02,,OVC014,0.02,503.00,VWS V14.01,2013-06-02 14:51:00,
2013-06-02 10:52:00,56.5,50.4,29.66,NE,44,1.0,0.0,80,0.02,,OVC014,0.02,445.00,VWS V14.01,2013-06-02 14:52:00,
2013-06-02 10:53:00,56.5,50.4,29.66,NE,44,0.0,0.0,80,0.02,,OVC014,0.02,492.00,VWS V14.01,2013-06-02 14:53:00,
2013-06-02 10:54:00,56.5,49.7,29.66,South,183,3.0,0.0,78,0.02,,OVC014,0.02,492.00,VWS V14.01,2013-06-02 14:54:00,
2013-06-02 10:55:00,56.2,49.4,29.66,West,277,1.0,0.0,78,0.02,,OVC014,0.02,403.00,VWS V14.01,2013-06-02 14:55:00,
2013-06-02 10:56:00,56.0,49.6,29.66,NW,314,1.0,0.0,79,0.02,,OVC014,0.02,563.00,VWS V14.01,2013-06-02 14:56:00,
2013-06-02 10:57:00,56.2,50.1,29.66,NW,313,0.0,0.0,80,0.02,,OVC014,0.02,566.00,VWS V14.01,2013-06-02 14:57:00,
2013-06-02 10:58:00,56.5,50.4,29.66,NW,314,1.0,0.0,80,0.02,,OVC014,0.02,566.00,VWS V14.01,2013-06-02 14:58:00,
2013-06-02 10:59:00,56.5,50.1,29.66,NW,314,1.0,0.0,79,0.02,,OVC014,0.02,457.00,VWS V14.01,2013-06-02 14:59:00,
2013-06-02 11:00:00,56.6,49.5,29.66,NW,314,0.0,0.0,77,0.02,,OVC014,0.02,446.00,VWS V14.01,2013-06-02 15:00:00,
2013-06-02 11:01:00,56.6,50.5,29.66,NW,314,1.0,0.0,80,0.02,,OVC014,0.02,541.00,VWS V14.01,2013-06-02 15:01:00,
2013-06-02 11:02:00,56.5,49.7,29.66,NW,306,0.0,0.0,78,0.02,,OVC014,0.02,519.00,VWS V14.01,2013-06-02 15:02:00,
2013-06-02 11:03:00,56.6,50.2,29.66,NW,306,0.0,0.0,79,0.02,,OVC014,0.02,473.00,VWS V14.01,2013-06-02 15:03:00,
2013-06-02 11:04:00,56.6,49.5,29.66,NW,305,0.0,0.0,77,0.02,,OVC014,0.02,534.00,VWS V14.01,2013-06-02 15:04:00,
2013-06-02 11:05:00,56.6,50.2,29.66,NW,322,0.0,0.0,79,0.02,,OVC014,0.02,450.00,VWS V14.01,2013-06-02 15:05:00,
2013-06-02 11:06:00,56.6,49.8,29.66,NW,322,0.0,0.0,78,0.02,,OVC014,0.02,452.00,VWS V14.01,2013-06-02 15:06:00,
2013-06-02 11:07:00,56.7,49.9,29.66,NE,41,0.0,0.0,78,0.02,,OVC014,0.02,452.00,VWS V14.01,2013-06-02 15:07:00,
2013-06-02 11:08:00,56.7,49.9,29.66,NNW,331,1.0,0.0,78,0.02,,OVC014,0.02,615.00,VWS V14.01,2013-06-02 15:08:00,
2013-06-02 11:09:00,56.7,49.6,29.66,SW,227,1.0,0.0,77,0.02,,OVC014,0.02,659.00,VWS V14.01,2013-06-02 15:09:00,
2013-06-02 11:10:00,56.9,50.5,29.66,ESE,121,0.0,0.0,79,0.02,,OVC014,0.02,714.00,VWS V14.01,2013-06-02 15:10:00,
2013-06-02 11:11:00,57.2,51.1,29.66,NNE,20,0.0,0.0,80,0.02,,OVC014,0.02,768.00,VWS V14.01,2013-06-02 15:11:00,
2013-06-02 11:12:00,57.5,51.7,29.66,ESE,105,1.0,0.0,81,0.02,,OVC014,0.02,830.00,VWS V14.01,2013-06-02 15:12:00,
2013-06-02 11:13:00,57.5,50.0,29.66,ENE,59,0.0,0.0,76,0.02,,OVC014,0.02,830.00,VWS V14.01,2013-06-02 15:13:00,
2013-06-02 11:14:00,57.8,50.3,29.66,North,5,0.0,0.0,76,0.02,,OVC014,0.02,626.00,VWS V14.01,2013-06-02 15:14:00,
2013-06-02 11:15:00,58.0,51.9,29.67,NNE,13,0.0,0.0,80,0.02,,OVC016,0.02,499.00,VWS V14.01,2013-06-02 15:15:00,
2013-06-02 11:16:00,58.1,51.6,29.67,NNE,13,0.0,0.0,79,0.02,,OVC016,0.02,499.00,VWS V14.01,2013-06-02 15:16:00,
2013-06-02 11:17:00,58.1,50.9,29.67,North,355,0.0,0.0,77,0.02,,OVC016,0.02,515.00,VWS V14.01,2013-06-02 15:17:00,
2013-06-02 11:18:00,57.8,50.3,29.67,South,180,1.0,0.0,76,0.02,,OVC016,0.02,515.00,VWS V14.01,2013-06-02 15:18:00,
2013-06-02 11:19:00,57.6,50.1,29.67,WSW,253,0.0,0.0,76,0.02,,OVC016,0.02,487.00,VWS V14.01,2013-06-02 15:19:00,
2013-06-02 11:20:00,57.5,50.0,29.67,NNE,13,0.0,0.0,76,0.02,,OVC016,0.02,425.00,VWS V14.01,2013-06-02 15:20:00,
2013-06-02 11:21:00,57.3,49.8,29.67,North,5,0.0,0.0,76,0.02,,OVC016,0.02,459.00,VWS V14.01,2013-06-02 15:21:00,
2013-06-02 11:22:00,57.3,50.2,29.67,North,5,0.0,0.0,77,0.02,,OVC016,0.02,450.00,VWS V14.01,2013-06-02 15:22:00,
2013-06-02 11:23:00,57.5,50.4,29.67,North,5,0.0,0.0,77,0.02,,OVC016,0.02,501.00,VWS V14.01,2013-06-02 15:23:00,
2013-06-02 11:24:00,57.5,51.0,29.67,NE,51,1.0,0.0,79,0.02,,OVC016,0.02,478.00,VWS V14.01,2013-06-02 15:24:00,
2013-06-02 11:25:00,57.2,49.4,29.67,East,98,3.0,0.0,75,0.02,,OVC016,0.02,468.00,VWS V14.01,2013-06-02 15:25:00,
2013-06-02 11:26:00,56.9,49.4,29.67,NE,35,1.0,0.0,76,0.02,,OVC016,0.02,462.00,VWS V14.01,2013-06-02 15:26:00,
2013-06-02 11:27:00,56.9,49.8,29.67,ENE,58,0.0,0.0,77,0.02,,OVC016,0.02,466.00,VWS V14.01,2013-06-02 15:27:00,
2013-06-02 11:28:00,56.9,50.5,29.67,NNE,16,0.0,0.0,79,0.02,,OVC016,0.02,476.00,VWS V14.01,2013-06-02 15:28:00,
2013-06-02 11:29:00,56.9,49.4,29.67,NNE,16,0.0,0.0,76,0.02,,OVC016,0.02,399.00,VWS V14.01,2013-06-02 15:29:00,
2013-06-02 11:30:00,56.9,49.8,29.68,SSE,153,0.0,0.0,77,0.02,,OVC016,0.02,487.00,VWS V14.01,2013-06-02 15:30:00,
2013-06-02 11:31:00,56.9,49.8,29.68,South,176,1.0,0.0,77,0.02,,OVC016,0.02,397.00,VWS V14.01,2013-06-02 15:31:00,
2013-06-02 11:32:00,57.0,49.9,29.68,South,175,0.0,0.0,77,0.03,,OVC016,0.03,473.00,VWS V14.01,2013-06-02 15:32:00,
2013-06-02 11:33:00,57.0,49.9,29.68,South,177,0.0,0.0,77,0.03,,OVC016,0.03,529.00,VWS V14.01,2013-06-02 15:33:00,
2013-06-02 11:34:00,57.3,50.8,29.68,South,179,0.0,0.0,79,0.03,,OVC016,0.03,506.00,VWS V14.01,2013-06-02 15:34:00,
2013-06-02 11:35:00,57.5,51.7,29.68,NW,326,3.0,0.0,81,0.03,,OVC016,0.03,506.00,VWS V14.01,2013-06-02 15:35:00,
2013-06-02 11:36:00,57.3,50.2,29.68,ESE,105,1.0,0.0,77,0.03,,OVC016,0.03,506.00,VWS V14.01,2013-06-02 15:36:00,
2013-06-02 11:37:00,57.6,50.8,29.68,NNE,24,1.0,0.0,78,0.03,,OVC016,0.03,522.00,VWS V14.01,2013-06-02 15:37:00,
2013-06-02 11:38:00,57.8,51.3,29.68,NNE,18,0.0,0.0,79,0.03,,OVC016,0.03,513.00,VWS V14.01,2013-06-02 15:38:00,
2013-06-02 11:39:00,58.0,51.5,29.68,NE,50,1.0,0.0,79,0.03,,OVC016,0.03,513.00,VWS V14.01,2013-06-02 15:39:00,
2013-06-02 11:40:00,58.0,50.5,29.68,NE,50,0.0,0.0,76,0.03,,OVC016,0.03,513.00,VWS V14.01,2013-06-02 15:40:00,
2013-06-02 11:41:00,58.0,50.8,29.68,SE,131,0.0,0.0,77,0.03,,OVC016,0.03,519.00,VWS V14.01,2013-06-02 15:41:00,
2013-06-02 11:42:00,58.0,50.5,29.68,NE,45,1.0,0.0,76,0.03,,OVC016,0.03,422.00,VWS V14.01,2013-06-02 15:42:00,
2013-06-02 11:43:00,57.8,49.9,29.68,NW,321,0.0,0.0,75,0.03,,OVC016,0.03,418.00,VWS V14.01,2013-06-02 15:43:00,
2013-06-02 11:44:00,57.6,50.5,29.68,North,350,0.0,0.0,77,0.03,,OVC016,0.03,418.00,VWS V14.01,2013-06-02 15:44:00,
2013-06-02 11:45:00,57.6,50.1,29.69,NNW,342,4.0,0.0,76,0.03,,OVC016,0.04,531.00,VWS V14.01,2013-06-02 15:45:00,
2013-06-02 11:46:00,57.6,50.1,29.69,NNE,25,2.0,0.0,76,0.04,,OVC016,0.04,531.00,VWS V14.01,2013-06-02 15:46:00,
2013-06-02 11:47:00,57.5,50.0,29.69,NE,39,0.0,0.0,76,0.04,,OVC016,0.04,531.00,VWS V14.01,2013-06-02 15:47:00,
2013-06-02 11:48:00,58.0,50.5,29.69,North,355,1.0,0.0,76,0.04,,OVC016,0.04,531.00,VWS V14.01,2013-06-02 15:48:00,
2013-06-02 11:49:00,58.4,51.2,29.69,ENE,60,0.0,0.0,77,0.04,,OVC016,0.04,531.00,VWS V14.01,2013-06-02 15:49:00,
2013-06-02 11:50:00,58.4,50.5,29.69,ENE,63,0.0,0.0,75,0.04,,OVC016,0.04,719.00,VWS V14.01,2013-06-02 15:50:00,
2013-06-02 11:51:00,58.6,50.3,29.69,NE,34,0.0,0.0,74,0.04,,OVC016,0.04,719.00,VWS V14.01,2013-06-02 15:51:00,
2013-06-02 11:52:00,58.6,51.4,29.69,WNW,292,0.0,0.0,77,0.04,,OVC016,0.04,719.00,VWS V14.01,2013-06-02 15:52:00,
2013-06-02 11:53:00,58.6,51.1,29.69,NE,48,0.0,0.0,76,0.04,,OVC016,0.04,404.00,VWS V14.01,2013-06-02 15:53:00,
2013-06-02 11:54:00,58.3,49.7,29.69,NNE,24,0.0,0.0,73,0.04,,OVC016,0.04,408.00,VWS V14.01,2013-06-02 15:54:00,
2013-06-02 11:55:00,57.8,48.8,29.69,NNE,24,0.0,0.0,72,0.04,,OVC031,0.04,429.00,VWS V14.01,2013-06-02 15:55:00,
2013-06-02 11:56:00,58.0,49.0,29.69,NNE,24,0.0,0.0,72,0.04,,OVC031,0.04,454.00,VWS V14.01,2013-06-02 15:56:00,
2013-06-02 11:57:00,58.0,50.5,29.69,SSW,194,0.0,0.0,76,0.04,,OVC031,0.04,454.00,VWS V14.01,2013-06-02 15:57:00,
2013-06-02 11:58:00,57.8,50.3,29.69,SW,221,0.0,0.0,76,0.04,,OVC031,0.04,454.00,VWS V14.01,2013-06-02 15:58:00,
2013-06-02 11:59:00,57.8,50.3,29.69,SW,232,0.0,0.0,76,0.04,,OVC031,0.04,454.00,VWS V14.01,2013-06-02 15:59:00,
2013-06-02 12:00:00,58.3,51.1,29.69,NW,323,0.0,0.0,77,0.04,,OVC031,0.04,454.00,VWS V14.01,2013-06-02 16:00:00,
2013-06-02 12:01:00,58.6,51.1,29.69,WNW,294,2.0,0.0,76,0.02,,OVC031,0.04,454.00,VWS V14.01,2013-06-02 16:01:00,
2013-06-02 12:02:00,58.6,51.1,29.69,NW,313,1.0,0.0,76,0.02,,OVC031,0.04,489.00,VWS V14.01,2013-06-02 16:02:00,
2013-06-02 12:03:00,58.4,50.2,29.69,NW,313,1.0,0.0,74,0.02,,OVC031,0.04,489.00,VWS V14.01,2013-06-02 16:03:00,
2013-06-02 12:04:00,58.6,50.3,29.69,NW,313,0.0,0.0,74,0.02,,OVC031,0.04,489.00,VWS V14.01,2013-06-02 16:04:00,
2013-06-02 12:05:00,58.7,51.5,29.69,NW,313,0.0,0.0,77,0.02,,OVC031,0.04,489.00,VWS V14.01,2013-06-02 16:05:00,
2013-06-02 12:06:00,58.9,51.0,29.69,NW,313,0.0,0.0,75,0.02,,OVC031,0.04,598.00,VWS V14.01,2013-06-02 16:06:00,
2013-06-02 12:07:00,58.7,49.7,29.69,SSW,196,1.0,0.0,72,0.02,,OVC031,0.04,570.00,VWS V14.01,2013-06-02 16:07:00,
2013-06-02 12:08:00,58.6,49.6,29.69,South,173,0.0,0.0,72,0.02,,OVC031,0.04,492.00,VWS V14.01,2013-06-02 16:08:00,
2013-06-02 12:09:00,58.3,49.0,29.69,NNW,331,1.0,0.0,71,0.02,,OVC031,0.04,466.00,VWS V14.01,2013-06-02 16:09:00,
2013-06-02 12:10:00,58.4,50.5,29.69,NNW,331,0.0,0.0,75,0.02,,OVC031,0.04,508.00,VWS V14.01,2013-06-02 16:10:00,
2013-06-02 12:11:00,58.6,51.4,29.69,NW,305,2.0,0.0,77,0.03,,OVC031,0.05,420.00,VWS V14.01,2013-06-02 16:11:00,
2013-06-02 12:12:00,58.4,49.8,29.69,WNW,292,2.0,0.0,73,0.03,,OVC031,0.05,404.00,VWS V14.01,2013-06-02 16:12:00,
2013-06-02 12:13:00,58.3,50.1,29.69,SE,132,2.0,0.0,74,0.03,,OVC031,0.05,396.00,VWS V14.01,2013-06-02 16:13:00,
2013-06-02 12:14:00,58.0,49.4,29.69,NW,304,0.0,0.0,73,0.03,,OVC031,0.05,594.00,VWS V14.01,2013-06-02 16:14:00,
2013-06-02 12:15:00,58.0,49.4,29.70,ESE,113,0.0,0.0,73,0.03,,OVC031,0.05,661.00,VWS V14.01,2013-06-02 16:15:00,
2013-06-02 12:16:00,58.0,49.4,29.70,WSW,242,2.0,0.0,73,0.03,,OVC031,0.05,666.00,VWS V14.01,2013-06-02 16:16:00,
2013-06-02 12:17:00,57.8,49.2,29.70,WNW,299,0.0,0.0,73,0.03,,OVC031,0.05,603.00,VWS V14.01,2013-06-02 16:17:00,
2013-06-02 12:18:00,58.1,50.2,29.70,WNW,299,0.0,0.0,75,0.03,,OVC031,0.05,686.00,VWS V14.01,2013-06-02 16:18:00,
2013-06-02 12:19:00,58.0,49.8,29.70,ENE,74,1.0,0.0,74,0.03,,OVC031,0.05,666.00,VWS V14.01,2013-06-02 16:19:00,
2013-06-02 12:20:00,58.1,49.9,29.70,NNW,338,1.0,0.0,74,0.03,,OVC031,0.05,517.00,VWS V14.01,2013-06-02 16:20:00,
2013-06-02 12:21:00,58.1,50.6,29.70,NNW,338,0.0,0.0,76,0.03,,OVC031,0.05,536.00,VWS V14.01,2013-06-02 16:21:00,
2013-06-02 12:22:00,58.0,49.8,29.70,NW,325,1.0,0.0,74,0.03,,OVC031,0.05,552.00,VWS V14.01,2013-06-02 16:22:00,
2013-06-02 12:23:00,57.6,49.0,29.70,WNW,292,1.0,0.0,73,0.03,,OVC031,0.05,598.00,VWS V14.01,2013-06-02 16:23:00,
2013-06-02 12:24:00,57.8,50.3,29.70,WNW,296,0.0,0.0,76,0.03,,OVC031,0.05,642.00,VWS V14.01,2013-06-02 16:24:00,
2013-06-02 12:25:00,58.1,50.9,29.70,WNW,296,0.0,0.0,77,0.03,,OVC031,0.05,476.00,VWS V14.01,2013-06-02 16:25:00,
2013-06-02 12:26:00,58.0,49.8,29.70,SSE,161,0.0,0.0,74,0.03,,OVC031,0.05,506.00,VWS V14.01,2013-06-02 16:26:00,
2013-06-02 12:27:00,58.1,50.6,29.70,SE,134,0.0,0.0,76,0.03,,OVC031,0.05,541.00,VWS V14.01,2013-06-02 16:27:00,
2013-06-02 12:28:00,58.0,50.1,29.70,South,180,0.0,0.0,75,0.03,,OVC031,0.05,504.00,VWS V14.01,2013-06-02 16:28:00,
2013-06-02 12:29:00,57.8,49.9,29.70,SSW,209,0.0,0.0,75,0.04,,OVC031,0.06,457.00,VWS V14.01,2013-06-02 16:29:00,
2013-06-02 12:30:00,57.8,50.3,29.70,SSW,210,1.0,0.0,76,0.04,,OVC031,0.06,424.00,VWS V14.01,2013-06-02 16:30:00,
2013-06-02 12:31:00,57.5,48.9,29.70,SSW,210,0.0,0.0,73,0.04,,OVC031,0.06,455.00,VWS V14.01,2013-06-02 16:31:00,
2013-06-02 12:32:00,57.5,48.9,29.70,SW,219,3.0,0.0,73,0.04,,OVC031,0.06,387.00,VWS V14.01,2013-06-02 16:32:00,
2013-06-02 12:33:00,57.2,48.3,29.70,SW,217,0.0,0.0,72,0.04,,OVC031,0.06,381.00,VWS V14.01,2013-06-02 16:33:00,
2013-06-02 12:34:00,57.2,49.0,29.70,WNW,300,0.0,0.0,74,0.04,,OVC031,0.06,380.00,VWS V14.01,2013-06-02 16:34:00,
2013-06-02 12:35:00,57.2,50.1,29.70,WNW,300,0.0,0.0,77,0.04,,OVC031,0.06,380.00,VWS V14.01,2013-06-02 16:35:00,
2013-06-02 12:36:00,57.2,50.1,29.70,WNW,300,0.0,0.0,77,0.04,,OVC031,0.06,380.00,VWS V14.01,2013-06-02 16:36:00,
2013-06-02 12:37:00,57.3,50.2,29.70,SSE,147,5.0,0.0,77,0.04,,OVC031,0.06,387.00,VWS V14.01,2013-06-02 16:37:00,
2013-06-02 12:38:00,56.9,48.3,29.70,WSW,238,1.0,0.0,73,0.04,,OVC031,0.06,406.00,VWS V14.01,2013-06-02 16:38:00,
2013-06-02 12:39:00,56.7,48.9,29.70,South,172,0.0,0.0,75,0.04,,OVC031,0.06,394.00,VWS V14.01,2013-06-02 16:39:00,
2013-06-02 12:40:00,56.7,48.9,29.70,WNW,285,0.0,0.0,75,0.04,,OVC031,0.06,404.00,VWS V14.01,2013-06-02 16:40:00,
2013-06-02 12:41:00,56.6,48.8,29.70,WNW,286,0.0,0.0,75,0.04,,OVC031,0.06,425.00,VWS V14.01,2013-06-02 16:41:00,
2013-06-02 12:42:00,56.7,49.6,29.70,ESE,109,1.0,0.0,77,0.04,,OVC031,0.06,508.00,VWS V14.01,2013-06-02 16:42:00,
2013-06-02 12:43:00,56.9,49.4,29.70,NW,305,0.0,0.0,76,0.04,,OVC031,0.06,508.00,VWS V14.01,2013-06-02 16:43:00,
2013-06-02 12:44:00,57.0,49.5,29.70,NW,311,0.0,0.0,76,0.04,,OVC031,0.06,606.00,VWS V14.01,2013-06-02 16:44:00,
2013-06-02 12:45:00,57.0,49.5,29.70,NE,44,0.0,0.0,76,0.04,,OVC031,0.06,617.00,VWS V14.01,2013-06-02 16:45:00,
2013-06-02 12:46:00,57.0,48.1,29.70,North,349,1.0,0.0,72,0.04,,OVC031,0.06,645.00,VWS V14.01,2013-06-02 16:46:00,
2013-06-02 12:47:00,57.0,48.8,29.70,North,349,1.0,0.0,74,0.04,,OVC031,0.06,575.00,VWS V14.01,2013-06-02 16:47:00,
2013-06-02 12:48:00,57.2,49.4,29.70,ENE,65,0.0,0.0,75,0.04,,OVC031,0.06,501.00,VWS V14.01,2013-06-02 16:48:00,
2013-06-02 12:49:00,57.0,47.7,29.70,NNW,334,0.0,0.0,71,0.04,,OVC031,0.06,726.00,VWS V14.01,2013-06-02 16:49:00,
2013-06-02 12:50:00,57.5,48.2,29.70,NNW,334,0.0,0.0,71,0.04,,OVC031,0.06,726.00,VWS V14.01,2013-06-02 16:50:00,
2013-06-02 12:51:00,57.8,48.5,29.70,NW,306,0.0,0.0,71,0.04,,OVC031,0.06,726.00,VWS V14.01,2013-06-02 16:51:00,
2013-06-02 12:52:00,58.3,49.0,29.70,NW,306,0.0,0.0,71,0.04,,OVC031,0.06,726.00,VWS V14.01,2013-06-02 16:52:00,
2013-06-02 12:53:00,58.3,49.3,29.70,NW,306,0.0,0.0,72,0.04,,OVC031,0.06,726.00,VWS V14.01,2013-06-02 16:53:00,
2013-06-02 12:54:00,58.3,49.3,29.70,NW,306,1.0,0.0,72,0.04,,OVC031,0.06,726.00,VWS V14.01,2013-06-02 16:54:00,
2013-06-02 12:55:00,58.4,50.5,29.70,NW,306,0.0,0.0,75,0.04,,OVC031,0.06,726.00,VWS V14.01,2013-06-02 16:55:00,
2013-06-02 12:56:00,58.4,49.8,29.70,West,281,0.0,0.0,73,0.04,,OVC031,0.06,726.00,VWS V14.01,2013-06-02 16:56:00,
2013-06-02 12:57:00,58.6,48.9,29.70,West,281,0.0,0.0,70,0.04,,OVC031,0.06,726.00,VWS V14.01,2013-06-02 16:57:00,
2013-06-02 12:58:00,58.9,50.3,29.70,West,275,0.0,0.0,73,0.04,,OVC031,0.06,1060.00,VWS V14.01,2013-06-02 16:58:00,
2013-06-02 12:59:00,59.3,51.0,29.70,WNW,285,0.0,0.0,74,0.04,,OVC031,0.06,1060.00,VWS V14.01,2013-06-02 16:59:00,
2013-06-02 13:00:00,59.3,49.5,29.70,NW,315,0.0,0.0,70,0.05,,OVC031,0.07,1060.00,VWS V14.01,2013-06-02 17:00:00,
2013-06-02 13:01:00,59.3,50.3,29.70,SSE,153,0.0,0.0,72,0.03,,OVC031,0.07,1060.00,VWS V14.01,2013-06-02 17:01:00,
2013-06-02 13:02:00,59.2,49.4,29.70,SSE,153,0.0,0.0,70,0.03,,OVC031,0.07,1060.00,VWS V14.01,2013-06-02 17:02:00,
2013-06-02 13:03:00,59.0,50.0,29.70,SW,234,0.0,0.0,72,0.03,,OVC031,0.07,605.00,VWS V14.01,2013-06-02 17:03:00,
2013-06-02 13:04:00,59.0,50.4,29.70,WNW,286,0.0,0.0,73,0.03,,OVC031,0.07,601.00,VWS V14.01,2013-06-02 17:04:00,
2013-06-02 13:05:00,58.9,49.5,29.70,East,96,7.0,0.0,71,0.03,,OVC031,0.07,606.00,VWS V14.01,2013-06-02 17:05:00,
2013-06-02 13:06:00,58.6,48.9,29.70,NNE,14,1.0,0.0,70,0.03,,OVC031,0.07,512.00,VWS V14.01,2013-06-02 17:06:00,
2013-06-02 13:07:00,58.4,49.4,29.70,NE,43,3.0,0.0,72,0.03,,OVC031,0.07,464.00,VWS V14.01,2013-06-02 17:07:00,
2013-06-02 13:08:00,58.0,47.9,29.70,North,5,0.0,0.0,69,0.03,,OVC031,0.07,413.00,VWS V14.01,2013-06-02 17:08:00,
2013-06-02 13:09:00,57.8,47.7,29.70,North,5,0.0,0.0,69,0.03,,OVC031,0.07,413.00,VWS V14.01,2013-06-02 17:09:00,
2013-06-02 13:10:00,58.0,49.0,29.70,North,5,0.0,0.0,72,0.03,,OVC031,0.07,413.00,VWS V14.01,2013-06-02 17:10:00,
2013-06-02 13:11:00,58.0,49.4,29.70,SE,125,0.0,0.0,73,0.03,,OVC031,0.07,592.00,VWS V14.01,2013-06-02 17:11:00,
2013-06-02 13:12:00,58.0,49.4,29.70,SE,126,0.0,0.0,73,0.03,,OVC031,0.07,592.00,VWS V14.01,2013-06-02 17:12:00,
2013-06-02 13:13:00,58.3,50.1,29.70,West,281,1.0,0.0,74,0.03,,OVC031,0.07,592.00,VWS V14.01,2013-06-02 17:13:00,
2013-06-02 13:14:00,58.4,50.5,29.70,West,281,1.0,0.0,75,0.03,,OVC031,0.07,592.00,VWS V14.01,2013-06-02 17:14:00,
2013-06-02 13:15:00,58.7,50.8,29.72,WSW,248,1.0,0.0,75,0.03,,OVC018,0.07,571.00,VWS V14.01,2013-06-02 17:15:00,
2013-06-02 13:16:00,58.7,49.3,29.72,WSW,248,0.0,0.0,71,0.03,,OVC018,0.07,513.00,VWS V14.01,2013-06-02 17:16:00,
2013-06-02 13:17:00,58.6,49.2,29.72,WSW,248,0.0,0.0,71,0.03,,OVC018,0.07,492.00,VWS V14.01,2013-06-02 17:17:00,
2013-06-02 13:18:00,58.7,50.1,29.72,WSW,248,0.0,0.0,73,0.03,,OVC018,0.07,543.00,VWS V14.01,2013-06-02 17:18:00,
2013-06-02 13:19:00,58.6,50.0,29.72,NE,53,0.0,0.0,73,0.03,,OVC018,0.07,478.00,VWS V14.01,2013-06-02 17:19:00,
2013-06-02 13:20:00,58.7,49.7,29.72,SSE,167,3.0,0.0,72,0.04,,OVC018,0.08,485.00,VWS V14.01,2013-06-02 17:20:00,
2013-06-02 13:21:00,58.4,49.0,29.72,SSW,209,0.0,0.0,71,0.04,,OVC018,0.08,450.00,VWS V14.01,2013-06-02 17:21:00,
2013-06-02 13:22:00,58.1,48.4,29.72,West,273,0.0,0.0,70,0.04,,OVC018,0.08,457.00,VWS V14.01,2013-06-02 17:22:00,
2013-06-02 13:23:00,58.0,48.3,29.72,WNW,290,0.0,0.0,70,0.04,,OVC018,0.08,483.00,VWS V14.01,2013-06-02 17:23:00,
2013-06-02 13:24:00,57.8,49.2,29.72,WNW,290,0.0,0.0,73,0.04,,OVC018,0.08,469.00,VWS V14.01,2013-06-02 17:24:00,
2013-06-02 13:25:00,57.8,49.6,29.72,WNW,290,0.0,0.0,74,0.04,,OVC018,0.08,436.00,VWS V14.01,2013-06-02 17:25:00,
2013-06-02 13:26:00,57.8,49.2,29.72,North,360,0.0,0.0,73,0.04,,OVC018,0.08,420.00,VWS V14.01,2013-06-02 17:26:00,
2013-06-02 13:27:00,57.6,48.3,29.72,North,360,0.0,0.0,71,0.04,,OVC018,0.08,417.00,VWS V14.01,2013-06-02 17:27:00,
2013-06-02 13:28:00,57.6,49.4,29.72,North,360,0.0,0.0,74,0.04,,OVC018,0.08,408.00,VWS V14.01,2013-06-02 17:28:00,
2013-06-02 13:29:00,57.5,48.6,29.72,North,360,0.0,0.0,72,0.04,,OVC018,0.08,390.00,VWS V14.01,2013-06-02 17:29:00,
2013-06-02 13:30:00,57.6,49.8,29.72,North,360,0.0,0.0,75,0.04,,OVC018,0.08,396.00,VWS V14.01,2013-06-02 17:30:00,
2013-06-02 13:31:00,57.8,50.3,29.72,North,360,1.0,0.0,76,0.02,,OVC018,0.08,427.00,VWS V14.01,2013-06-02 17:31:00,
2013-06-02 13:32:00,57.6,48.7,29.72,North,360,0.0,0.0,72,0.02,,OVC018,0.08,438.00,VWS V14.01,2013-06-02 17:32:00,
2013-06-02 13:33:00,57.8,49.6,29.72,North,360,0.0,0.0,74,0.02,,OVC018,0.08,480.00,VWS V14.01,2013-06-02 17:33:00,
2013-06-02 13:34:00,57.6,48.7,29.72,NE,54,3.0,0.0,72,0.02,,OVC018,0.08,475.00,VWS V14.01,2013-06-02 17:34:00,
2013-06-02 13:35:00,57.5,48.6,29.72,NNW,327,1.0,0.0,72,0.02,,OVC018,0.08,512.00,VWS V14.01,2013-06-02 17:35:00,
2013-06-02 13:36:00,57.3,48.0,29.72,NNW,327,1.0,0.0,71,0.03,,OVC018,0.09,594.00,VWS V14.01,2013-06-02 17:36:00,
2013-06-02 13:37:00,57.3,49.1,29.72,ENE,57,0.0,0.0,74,0.03,,OVC018,0.09,575.00,VWS V14.01,2013-06-02 17:37:00,
2013-06-02 13:38:00,57.2,49.0,29.72,NE,49,3.0,0.0,74,0.03,,OVC018,0.09,515.00,VWS V14.01,2013-06-02 17:38:00,
2013-06-02 13:39:00,57.0,48.1,29.72,NW,319,0.0,0.0,72,0.03,,OVC018,0.09,527.00,VWS V14.01,2013-06-02 17:39:00,
2013-06-02 13:40:00,57.2,49.0,29.72,WNW,288,0.0,0.0,74,0.03,,OVC018,0.09,482.00,VWS V14.01,2013-06-02 17:40:00,
2013-06-02 13:41:00,57.2,49.0,29.72,WNW,290,0.0,0.0,74,0.03,,OVC018,0.09,566.00,VWS V14.01,2013-06-02 17:41:00,
2013-06-02 13:42:00,57.3,49.1,29.72,SE,127,0.0,0.0,74,0.03,,OVC018,0.09,566.00,VWS V14.01,2013-06-02 17:42:00,
2013-06-02 13:43:00,57.2,48.6,29.72,SE,127,0.0,0.0,73,0.03,,OVC018,0.09,566.00,VWS V14.01,2013-06-02 17:43:00,
2013-06-02 13:44:00,57.3,48.0,29.72,ESE,114,3.0,0.0,71,0.03,,OVC018,0.09,566.00,VWS V14.01,2013-06-02 17:44:00,
2013-06-02 13:45:00,57.3,49.1,29.72,SSE,162,0.0,0.0,74,0.03,,OVC018,0.09,613.00,VWS V14.01,2013-06-02 17:45:00,
2013-06-02 13:46:00,57.8,51.0,29.72,SSE,167,0.0,0.0,78,0.03,,OVC018,0.09,613.00,VWS V14.01,2013-06-02 17:46:00,
2013-06-02 13:47:00,58.3,51.1,29.72,East,83,1.0,0.0,77,0.03,,OVC018,0.09,613.00,VWS V14.01,2013-06-02 17:47:00,
2013-06-02 13:48:00,58.3,49.7,29.72,North,5,1.0,0.0,73,0.03,,OVC018,0.09,613.00,VWS V14.01,2013-06-02 17:48:00,
2013-06-02 13:49:00,58.6,50.7,29.72,North,360,0.0,0.0,75,0.03,,OVC018,0.09,613.00,VWS V14.01,2013-06-02 17:49:00,
2013-06-02 13:50:00,58.9,49.5,29.72,NW,315,3.0,0.0,71,0.03,,OVC020,0.09,613.00,VWS V14.01,2013-06-02 17:50:00,
2013-06-02 13:51:00,58.7,48.6,29.72,NW,315,0.0,0.0,69,0.03,,OVC020,0.09,613.00,VWS V14.01,2013-06-02 17:51:00,
2013-06-02 13:52:00,58.9,48.8,29.72,NW,315,1.0,0.0,69,0.03,,OVC020,0.09,613.00,VWS V14.01,2013-06-02 17:52:00,
2013-06-02 13:53:00,59.0,50.4,29.72,NW,315,0.0,0.0,73,0.03,,OVC020,0.09,570.00,VWS V14.01,2013-06-02 17:53:00,
2013-06-02 13:54:00,58.9,49.5,29.72,North,355,0.0,0.0,71,0.03,,OVC020,0.09,570.00,VWS V14.01,2013-06-02 17:54:00,
2013-06-02 13:55:00,58.6,48.9,29.72,NNW,333,1.0,0.0,70,0.04,,OVC020,0.10,570.00,VWS V14.01,2013-06-02 17:55:00,
2013-06-02 13:56:00,58.9,48.8,29.72,NNE,13,0.0,0.0,69,0.04,,OVC020,0.10,570.00,VWS V14.01,2013-06-02 17:56:00,
2013-06-02 13:57:00,59.2,49.0,29.72,NNW,337,0.0,0.0,69,0.04,,OVC020,0.10,570.00,VWS V14.01,2013-06-02 17:57:00,
2013-06-02 13:58:00,59.2,49.8,29.72,SSE,161,0.0,0.0,71,0.04,,OVC020,0.10,570.00,VWS V14.01,2013-06-02 17:58:00,
2013-06-02 13:59:00,59.5,50.8,29.72,SE,125,2.0,0.0,73,0.04,,OVC020,0.10,570.00,VWS V14.01,2013-06-02 17:59:00,
2013-06-02 14:00:00,59.6,51.0,29.72,ESE,121,2.0,0.0,73,0.04,,OVC020,0.10,1157.00,VWS V14.01,2013-06-02 18:00:00,
2013-06-02 14:01:00,59.3,48.8,29.72,NNE,19,1.0,0.0,68,0.03,,OVC020,0.10,1134.00,VWS V14.01,2013-06-02 18:01:00,
2013-06-02 14:02:00,59.8,49.6,29.72,ESE,105,2.0,0.0,69,0.03,,OVC020,0.10,1157.00,VWS V14.01,2013-06-02 18:02:00,
2013-06-02 14:03:00,59.9,50.9,29.72,North,9,1.0,0.0,72,0.03,,OVC020,0.10,1236.00,VWS V14.01,2013-06-02 18:03:00,
2013-06-02 14:04:00,59.9,50.9,29.72,WSW,256,0.0,0.0,72,0.03,,OVC020,0.10,1232.00,VWS V14.01,2013-06-02 18:04:00,
2013-06-02 14:05:00,60.1,50.3,29.72,West,279,1.0,0.0,70,0.03,,OVC020,0.10,1185.00,VWS V14.01,2013-06-02 18:05:00,
2013-06-02 14:06:00,60.1,50.3,29.72,NNE,31,2.0,0.0,70,0.03,,OVC020,0.10,1164.00,VWS V14.01,2013-06-02 18:06:00,
2013-06-02 14:07:00,59.8,48.8,29.72,NW,306,1.0,0.0,67,0.03,,OVC020,0.10,1164.00,VWS V14.01,2013-06-02 18:07:00,
2013-06-02 14:08:00,59.8,48.4,29.72,NW,313,0.0,0.0,66,0.03,,OVC020,0.10,1164.00,VWS V14.01,2013-06-02 18:08:00,
2013-06-02 14:09:00,59.8,48.8,29.72,NW,322,1.0,0.0,67,0.03,,OVC020,0.10,1164.00,VWS V14.01,2013-06-02 18:09:00,
2013-06-02 14:10:00,59.6,49.0,29.72,West,268,2.0,0.0,68,0.03,,OVC020,0.10,605.00,VWS V14.01,2013-06-02 18:10:00,
2013-06-02 14:11:00,59.2,48.3,29.72,East,96,3.0,0.0,67,0.03,,OVC020,0.10,605.00,VWS V14.01,2013-06-02 18:11:00,
2013-06-02 14:12:00,59.0,49.2,29.72,East,96,0.0,0.0,70,0.03,,OVC020,0.10,1188.00,VWS V14.01,2013-06-02 18:12:00,
2013-06-02 14:13:00,59.0,49.2,29.72,North,11,0.0,0.0,70,0.03,,OVC020,0.10,1188.00,VWS V14.01,2013-06-02 18:13:00,
2013-06-02 14:14:00,59.2,49.8,29.72,North,11,0.0,0.0,71,0.03,,OVC020,0.10,1188.00,VWS V14.01,2013-06-02 18:14:00,
2013-06-02 14:15:00,59.3,49.5,29.72,SSW,192,0.0,0.0,70,0.03,,OVC020,0.10,1188.00,VWS V14.01,2013-06-02 18:15:00,
2013-06-02 14:16:00,59.5,48.9,29.72,WNW,295,0.0,0.0,68,0.03,,OVC020,0.10,1190.00,VWS V14.01,2013-06-02 18:16:00,
2013-06-02 14:17:00,59.6,50.6,29.72,SSE,154,0.0,0.0,72,0.03,,OVC020,0.10,1190.00,VWS V14.01,2013-06-02 18:17:00,
2013-06-02 14:18:00,59.5,50.5,29.72,SSE,153,2.0,0.0,72,0.03,,OVC020,0.10,1190.00,VWS V14.01,2013-06-02 18:18:00,
2013-06-02 14:19:00,59.3,47.5,29.72,North,360,1.0,0.0,65,0.03,,OVC020,0.10,1190.00,VWS V14.01,2013-06-02 18:19:00,
2013-06-02 14:20:00,59.2,49.0,29.72,NNW,344,1.0,0.0,69,0.03,,OVC020,0.10,1190.00,VWS V14.01,2013-06-02 18:20:00,
2013-06-02 14:21:00,59.2,50.2,29.72,NNW,344,0.0,0.0,72,0.03,,OVC020,0.10,798.00,VWS V14.01,2013-06-02 18:21:00,
2013-06-02 14:22:00,59.2,49.4,29.72,NNW,344,1.0,0.0,70,0.03,,OVC020,0.10,798.00,VWS V14.01,2013-06-02 18:22:00,
2013-06-02 14:23:00,59.2,49.8,29.72,NNW,344,0.0,0.0,71,0.03,,OVC020,0.10,798.00,VWS V14.01,2013-06-02 18:23:00,
2013-06-02 14:24:00,59.0,49.6,29.72,ENE,73,0.0,0.0,71,0.03,,OVC020,0.10,798.00,VWS V14.01,2013-06-02 18:24:00,
2013-06-02 14:25:00,58.7,47.8,29.72,SSW,200,1.0,0.0,67,0.03,,OVC020,0.10,645.00,VWS V14.01,2013-06-02 18:25:00,
2013-06-02 14:26:00,58.4,48.3,29.72,NE,48,0.0,0.0,69,0.03,,OVC020,0.10,645.00,VWS V14.01,2013-06-02 18:26:00,
2013-06-02 14:27:00,58.3,48.2,29.72,NE,44,0.0,0.0,69,0.03,,OVC020,0.10,645.00,VWS V14.01,2013-06-02 18:27:00,
2013-06-02 14:28:00,58.1,47.6,29.72,NNE,19,2.0,0.0,68,0.03,,OVC020,0.10,983.00,VWS V14.01,2013-06-02 18:28:00,
2013-06-02 14:29:00,58.3,48.6,29.72,ENE,76,1.0,0.0,70,0.03,,OVC020,0.10,970.00,VWS V14.01,2013-06-02 18:29:00,
2013-06-02 14:30:00,58.1,48.0,29.72,NNW,335,1.0,0.0,69,0.03,,OVC020,0.10,977.00,VWS V14.01,2013-06-02 18:30:00,
2013-06-02 14:31:00,58.3,48.2,29.72,WNW,299,0.0,0.0,69,0.02,,OVC020,0.10,995.00,VWS V14.01,2013-06-02 18:31:00,
2013-06-02 14:32:00,58.4,49.8,29.72,NNW,337,1.0,0.0,73,0.02,,OVC020,0.10,1007.00,VWS V14.01,2013-06-02 18:32:00,
2013-06-02 14:33:00,59.0,50.0,29.72,NW,311,1.0,0.0,72,0.02,,OVC020,0.10,1020.00,VWS V14.01,2013-06-02 18:33:00,
2013-06-02 14:34:00,59.3,49.9,29.72,WNW,301,0.0,0.0,71,0.02,,OVC020,0.10,998.00,VWS V14.01,2013-06-02 18:34:00,
2013-06-02 14:35:00,59.5,49.3,29.72,WNW,302,3.0,0.0,69,0.02,,OVC020,0.10,976.00,VWS V14.01,2013-06-02 18:35:00,
2013-06-02 14:36:00,59.3,48.0,29.72,North,355,0.0,0.0,66,0.02,,OVC020,0.10,967.00,VWS V14.01,2013-06-02 18:36:00,
2013-06-02 14:37:00,59.5,49.3,29.72,NNW,346,3.0,0.0,69,0.02,,OVC020,0.10,963.00,VWS V14.01,2013-06-02 18:37:00,
2013-06-02 14:38:00,59.2,48.3,29.72,NNW,341,1.0,0.0,67,0.02,,OVC020,0.10,967.00,VWS V14.01,2013-06-02 18:38:00,
2013-06-02 14:39:00,59.3,48.4,29.72,NE,53,5.0,0.0,67,0.02,,OVC020,0.10,977.00,VWS V14.01,2013-06-02 18:39:00,
2013-06-02 14:40:00,59.5,49.7,29.72,NE,39,0.0,0.0,70,0.02,,OVC020,0.10,969.00,VWS V14.01,2013-06-02 18:40:00,
2013-06-02 14:41:00,59.3,48.4,29.72,NNW,340,2.0,0.0,67,0.02,,OVC020,0.10,969.00,VWS V14.01,2013-06-02 18:41:00,
2013-06-02 14:42:00,59.3,49.5,29.72,North,10,0.0,0.0,70,0.02,,OVC020,0.10,969.00,VWS V14.01,2013-06-02 18:42:00,
2013-06-02 14:43:00,59.2,49.0,29.72,North,10,0.0,0.0,69,0.02,,OVC020,0.10,1018.00,VWS V14.01,2013-06-02 18:43:00,
2013-06-02 14:44:00,59.2,47.9,29.72,North,10,0.0,0.0,66,0.02,,OVC020,0.10,1042.00,VWS V14.01,2013-06-02 18:44:00,
2013-06-02 14:45:00,59.2,48.3,29.73,NNW,331,0.0,0.0,67,0.02,,OVC020,0.10,1065.00,VWS V14.01,2013-06-02 18:45:00,
2013-06-02 14:46:00,59.2,48.3,29.73,SSW,202,1.0,0.0,67,0.02,,OVC020,0.10,1065.00,VWS V14.01,2013-06-02 18:46:00,
2013-06-02 14:47:00,59.6,48.6,29.73,West,269,1.0,0.0,67,0.02,,OVC020,0.10,993.00,VWS V14.01,2013-06-02 18:47:00,
2013-06-02 14:48:00,59.6,49.4,29.73,West,271,0.0,0.0,69,0.02,,OVC020,0.10,977.00,VWS V14.01,2013-06-02 18:48:00,
2013-06-02 14:49:00,59.8,49.2,29.73,SE,136,4.0,0.0,68,0.02,,OVC020,0.10,983.00,VWS V14.01,2013-06-02 18:49:00,
2013-06-02 14:50:00,59.8,48.4,29.73,ENE,73,1.0,0.0,66,0.02,,OVC020,0.10,993.00,VWS V14.01,2013-06-02 18:50:00,
2013-06-02 14:51:00,59.8,49.6,29.73,NNW,346,0.0,0.0,69,0.02,,OVC020,0.10,1056.00,VWS V14.01,2013-06-02 18:51:00,
2013-06-02 14:52:00,59.9,49.7,29.73,NNW,336,1.0,0.0,69,0.02,,OVC020,0.10,1056.00,VWS V14.01,2013-06-02 18:52:00,
2013-06-02 14:53:00,59.6,49.0,29.73,WSW,258,0.0,0.0,68,0.02,,OVC020,0.10,1056.00,VWS V14.01,2013-06-02 18:53:00,
2013-06-02 14:54:00,59.2,47.9,29.73,WNW,301,0.0,0.0,66,0.02,,OVC020,0.10,1056.00,VWS V14.01,2013-06-02 18:54:00,
2013-06-02 14:55:00,58.7,47.4,29.73,WNW,301,1.0,0.0,66,0.02,,OVC020,0.10,1056.00,VWS V14.01,2013-06-02 18:55:00,
2013-06-02 14:56:00,58.4,47.5,29.73,WSW,240,0.0,0.0,67,0.02,,OVC020,0.10,1056.00,VWS V14.01,2013-06-02 18:56:00,
2013-06-02 14:57:00,58.3,47.8,29.73,NW,304,2.0,0.0,68,0.02,,OVC020,0.10,1039.00,VWS V14.01,2013-06-02 18:57:00,
2013-06-02 14:58:00,58.4,48.7,29.73,ENE,74,1.0,0.0,70,0.02,,OVC020,0.10,1053.00,VWS V14.01,2013-06-02 18:58:00,
2013-06-02 14:59:00,58.4,47.5,29.73,NNW,346,2.0,0.0,67,0.02,,OVC020,0.10,1044.00,VWS V14.01,2013-06-02 18:59:00,
2013-06-02 15:00:00,58.4,47.1,29.74,ESE,121,1.0,0.0,66,0.02,,OVC020,0.10,1055.00,VWS V14.01,2013-06-02 19:00:00,
2013-06-02 15:01:00,58.6,47.3,29.74,NNW,335,2.0,0.0,66,0.00,,OVC020,0.10,1028.00,VWS V14.01,2013-06-02 19:01:00,
2013-06-02 15:02:00,59.0,47.7,29.74,WSW,245,0.0,0.0,66,0.01,,OVC020,0.11,1013.00,VWS V14.01,2013-06-02 19:02:00,
2013-06-02 15:03:00,59.2,47.9,29.74,NE,38,1.0,0.0,66,0.01,,OVC020,0.11,1042.00,VWS V14.01,2013-06-02 19:03:00,
2013-06-02 15:04:00,59.2,47.9,29.74,WNW,286,1.0,0.0,66,0.01,,OVC020,0.11,1060.00,VWS V14.01,2013-06-02 19:04:00,
2013-06-02 15:05:00,59.3,49.1,29.74,NNW,344,2.0,0.0,69,0.01,,OVC020,0.11,1083.00,VWS V14.01,2013-06-02 19:05:00,
2013-06-02 15:06:00,59.3,48.0,29.74,NNW,343,0.0,0.0,66,0.01,,OVC020,0.11,1127.00,VWS V14.01,2013-06-02 19:06:00,
2013-06-02 15:07:00,59.6,48.2,29.74,SSE,159,2.0,0.0,66,0.01,,OVC020,0.11,1127.00,VWS V14.01,2013-06-02 19:07:00,
2013-06-02 15:08:00,59.8,48.4,29.74,SSE,166,0.0,0.0,66,0.01,,OVC020,0.11,656.00,VWS V14.01,2013-06-02 19:08:00,
2013-06-02 15:09:00,59.5,47.3,29.74,SSE,166,0.0,0.0,64,0.01,,OVC020,0.11,656.00,VWS V14.01,2013-06-02 19:09:00,
2013-06-02 15:10:00,59.5,48.2,29.74,WSW,255,0.0,0.0,66,0.01,,OVC020,0.11,656.00,VWS V14.01,2013-06-02 19:10:00,
2013-06-02 15:11:00,59.6,49.0,29.74,NNW,335,0.0,0.0,68,0.01,,OVC020,0.11,656.00,VWS V14.01,2013-06-02 19:11:00,
2013-06-02 15:12:00,59.6,48.6,29.74,NW,311,1.0,0.0,67,0.01,,OVC020,0.11,656.00,VWS V14.01,2013-06-02 19:12:00,
2013-06-02 15:13:00,59.6,49.0,29.74,NNW,330,0.0,0.0,68,0.01,,OVC020,0.11,1028.00,VWS V14.01,2013-06-02 19:13:00,
2013-06-02 15:14:00,59.6,49.0,29.74,NNW,336,1.0,0.0,68,0.01,,OVC020,0.11,1028.00,VWS V14.01,2013-06-02 19:14:00,
2013-06-02 15:15:00,59.5,48.5,29.75,North,355,1.0,0.0,67,0.01,,BKN024,0.11,571.00,VWS V14.01,2013-06-02 19:15:00,
2013-06-02 15:16:00,59.2,48.3,29.75,NW,320,2.0,0.0,67,0.01,,BKN024,0.11,519.00,VWS V14.01,2013-06-02 19:16:00,
2013-06-02 15:17:00,59.0,48.5,29.75,WNW,284,0.0,0.0,68,0.01,,BKN024,0.11,519.00,VWS V14.01,2013-06-02 19:17:00,
2013-06-02 15:18:00,58.6,47.7,29.75,NW,306,0.0,0.0,67,0.01,,BKN024,0.11,496.00,VWS V14.01,2013-06-02 19:18:00,
2013-06-02 15:19:00,58.6,49.2,29.75,North,355,0.0,0.0,71,0.01,,BKN024,0.11,527.00,VWS V14.01,2013-06-02 19:19:00,
2013-06-02 15:20:00,58.4,49.0,29.75,North,355,0.0,0.0,71,0.01,,BKN024,0.11,570.00,VWS V14.01,2013-06-02 19:20:00,
2013-06-02 15:21:00,58.3,47.8,29.75,SSW,198,0.0,0.0,68,0.01,,BKN024,0.11,605.00,VWS V14.01,2013-06-02 19:21:00,
2013-06-02 15:22:00,58.1,47.2,29.75,WSW,240,0.0,0.0,67,0.01,,BKN024,0.11,605.00,VWS V14.01,2013-06-02 19:22:00,
2013-06-02 15:23:00,58.0,47.1,29.75,SW,234,0.0,0.0,67,0.01,,BKN024,0.11,605.00,VWS V14.01,2013-06-02 19:23:00,
2013-06-02 15:24:00,58.0,48.7,29.75,NE,42,3.0,0.0,71,0.01,,BKN024,0.11,531.00,VWS V14.01,2013-06-02 19:24:00,
2013-06-02 15:25:00,57.6,47.5,29.75,NW,325,0.0,0.0,69,0.01,,BKN024,0.11,584.00,VWS V14.01,2013-06-02 19:25:00,
2013-06-02 15:26:00,58.0,48.7,29.75,NW,325,0.0,0.0,71,0.01,,BKN024,0.11,650.00,VWS V14.01,2013-06-02 19:26:00,
2013-06-02 15:27:00,58.1,48.8,29.75,NW,325,0.0,0.0,71,0.01,,BKN024,0.11,650.00,VWS V14.01,2013-06-02 19:27:00,
2013-06-02 15:28:00,58.3,49.0,29.75,NW,325,0.0,0.0,71,0.01,,BKN024,0.11,494.00,VWS V14.01,2013-06-02 19:28:00,
2013-06-02 15:29:00,58.3,49.0,29.75,NW,325,0.0,0.0,71,0.01,,BKN024,0.11,534.00,VWS V14.01,2013-06-02 19:29:00,
2013-06-02 15:30:00,58.3,47.8,29.74,North,5,0.0,0.0,68,0.01,,BKN024,0.11,534.00,VWS V14.01,2013-06-02 19:30:00,
2013-06-02 15:31:00,58.1,47.6,29.74,NE,52,4.0,0.0,68,0.01,,BKN024,0.11,534.00,VWS V14.01,2013-06-02 19:31:00,
2013-06-02 15:32:00,57.8,47.3,29.74,NNW,341,1.0,0.0,68,0.01,,BKN024,0.11,766.00,VWS V14.01,2013-06-02 19:32:00,
2013-06-02 15:33:00,57.6,47.1,29.74,NNW,341,0.0,0.0,68,0.01,,BKN024,0.11,816.00,VWS V14.01,2013-06-02 19:33:00,
2013-06-02 15:34:00,58.0,48.7,29.74,West,268,0.0,0.0,71,0.01,,BKN024,0.11,823.00,VWS V14.01,2013-06-02 19:34:00,
2013-06-02 15:35:00,58.3,48.6,29.74,SW,229,0.0,0.0,70,0.01,,BKN024,0.11,823.00,VWS V14.01,2013-06-02 19:35:00,
2013-06-02 15:36:00,58.1,47.2,29.74,SW,229,1.0,0.0,67,0.01,,BKN024,0.11,823.00,VWS V14.01,2013-06-02 19:36:00,
2013-06-02 15:37:00,57.8,46.1,29.74,SW,229,0.0,0.0,65,0.02,,BKN024,0.12,455.00,VWS V14.01,2013-06-02 19:37:00,
2013-06-02 15:38:00,57.6,47.1,29.74,WSW,239,0.0,0.0,68,0.02,,BKN024,0.12,455.00,VWS V14.01,2013-06-02 19:38:00,
2013-06-02 15:39:00,57.5,47.0,29.74,SSE,155,1.0,0.0,68,0.02,,BKN024,0.12,455.00,VWS V14.01,2013-06-02 19:39:00,
2013-06-02 15:40:00,57.2,46.0,29.74,NW,319,0.0,0.0,66,0.02,,BKN024,0.12,304.00,VWS V14.01,2013-06-02 19:40:00,
2013-06-02 15:41:00,57.2,46.4,29.74,East,89,1.0,0.0,67,0.02,,BKN024,0.12,330.00,VWS V14.01,2013-06-02 19:41:00,
2013-06-02 15:42:00,57.2,47.1,29.74,North,355,0.0,0.0,69,0.02,,BKN024,0.12,341.00,VWS V14.01,2013-06-02 19:42:00,
2013-06-02 15:43:00,57.0,46.9,29.74,North,355,0.0,0.0,69,0.02,,BKN024,0.12,330.00,VWS V14.01,2013-06-02 19:43:00,
2013-06-02 15:44:00,56.9,46.8,29.74,ENE,74,1.0,0.0,69,0.02,,BKN024,0.12,362.00,VWS V14.01,2013-06-02 19:44:00,
2013-06-02 15:45:00,56.7,46.7,29.75,ENE,74,0.0,0.0,69,0.02,,BKN024,0.12,406.00,VWS V14.01,2013-06-02 19:45:00,
2013-06-02 15:46:00,56.7,47.4,29.75,ENE,74,0.0,0.0,71,0.02,,BKN024,0.12,425.00,VWS V14.01,2013-06-02 19:46:00,
2013-06-02 15:47:00,56.7,47.4,29.75,ENE,74,1.0,0.0,71,0.02,,BKN024,0.12,438.00,VWS V14.01,2013-06-02 19:47:00,
2013-06-02 15:48:00,56.9,46.5,29.75,NNW,338,0.0,0.0,68,0.02,,BKN024,0.12,506.00,VWS V14.01,2013-06-02 19:48:00,
2013-06-02 15:49:00,57.2,47.9,29.75,NW,312,0.0,0.0,71,0.02,,BKN024,0.12,649.00,VWS V14.01,2013-06-02 19:49:00,
2013-06-02 15:50:00,57.3,47.2,29.75,WSW,256,1.0,0.0,69,0.02,,BKN024,0.12,561.00,VWS V14.01,2013-06-02 19:50:00,
2013-06-02 15:51:00,57.6,47.9,29.75,NW,320,2.0,0.0,70,0.02,,BKN024,0.12,541.00,VWS V14.01,2013-06-02 19:51:00,
2013-06-02 15:52:00,57.5,47.4,29.75,North,5,0.0,0.0,69,0.02,,BKN024,0.12,541.00,VWS V14.01,2013-06-02 19:52:00,
2013-06-02 15:53:00,57.5,47.0,29.75,SE,143,0.0,0.0,68,0.02,,BKN024,0.12,541.00,VWS V14.01,2013-06-02 19:53:00,
2013-06-02 15:54:00,57.3,46.0,29.75,ENE,73,3.0,0.0,66,0.02,,BKN024,0.12,756.00,VWS V14.01,2013-06-02 19:54:00,
2013-06-02 15:55:00,57.3,46.5,29.75,SSW,212,0.0,0.0,67,0.02,,OVC030,0.12,712.00,VWS V14.01,2013-06-02 19:55:00,
2013-06-02 15:56:00,57.6,47.5,29.75,West,264,1.0,0.0,69,0.02,,OVC030,0.12,712.00,VWS V14.01,2013-06-02 19:56:00,
2013-06-02 15:57:00,57.8,48.5,29.75,NW,321,2.0,0.0,71,0.02,,OVC030,0.12,956.00,VWS V14.01,2013-06-02 19:57:00,
2013-06-02 15:58:00,58.0,47.5,29.75,NNW,328,2.0,0.0,68,0.02,,OVC030,0.12,956.00,VWS V14.01,2013-06-02 19:58:00,
2013-06-02 15:59:00,58.0,47.1,29.75,ESE,109,0.0,0.0,67,0.02,,OVC030,0.12,854.00,VWS V14.01,2013-06-02 19:59:00,
2013-06-02 16:00:00,58.1,47.2,29.75,NW,317,0.0,0.0,67,0.02,,OVC030,0.12,854.00,VWS V14.01,2013-06-02 20:00:00,
2013-06-02 16:01:00,58.3,48.2,29.75,NE,42,0.0,0.0,69,0.02,,OVC030,0.12,563.00,VWS V14.01,2013-06-02 20:01:00,
2013-06-02 16:02:00,58.3,47.4,29.75,NW,304,1.0,0.0,67,0.02,,OVC030,0.12,563.00,VWS V14.01,2013-06-02 20:02:00,
2013-06-02 16:03:00,58.3,47.4,29.75,NNW,346,1.0,0.0,67,0.02,,OVC030,0.12,461.00,VWS V14.01,2013-06-02 20:03:00,
2013-06-02 16:04:00,57.8,45.7,29.75,SE,130,0.0,0.0,64,0.02,,OVC030,0.12,461.00,VWS V14.01,2013-06-02 20:04:00,
2013-06-02 16:05:00,57.6,46.7,29.75,WNW,291,0.0,0.0,67,0.02,,OVC030,0.12,396.00,VWS V14.01,2013-06-02 20:05:00,
2013-06-02 16:06:00,57.3,46.0,29.75,SE,132,3.0,0.0,66,0.02,,OVC030,0.12,445.00,VWS V14.01,2013-06-02 20:06:00,
2013-06-02 16:07:00,57.0,45.8,29.75,SSE,152,0.0,0.0,66,0.02,,OVC030,0.12,494.00,VWS V14.01,2013-06-02 20:07:00,
2013-06-02 16:08:00,57.0,45.8,29.75,SSE,152,0.0,0.0,66,0.02,,OVC030,0.12,469.00,VWS V14.01,2013-06-02 20:08:00,
2013-06-02 16:09:00,57.2,47.9,29.75,SSE,153,0.0,0.0,71,0.02,,OVC030,0.12,469.00,VWS V14.01,2013-06-02 20:09:00,
2013-06-02 16:10:00,57.3,47.6,29.75,SSE,154,0.0,0.0,70,0.02,,OVC030,0.12,469.00,VWS V14.01,2013-06-02 20:10:00,
2013-06-02 16:11:00,57.5,48.2,29.75,SSE,155,0.0,0.0,71,0.02,,OVC030,0.12,540.00,VWS V14.01,2013-06-02 20:11:00,
2013-06-02 16:12:00,57.6,48.3,29.75,WNW,294,0.0,0.0,71,0.02,,OVC030,0.12,439.00,VWS V14.01,2013-06-02 20:12:00,
2013-06-02 16:13:00,57.5,48.2,29.75,West,264,1.0,0.0,71,0.02,,OVC030,0.12,504.00,VWS V14.01,2013-06-02 20:13:00,
2013-06-02 16:14:00,57.3,46.5,29.75,West,279,1.0,0.0,67,0.02,,OVC030,0.12,508.00,VWS V14.01,2013-06-02 20:14:00,
2013-06-02 16:15:00,57.3,47.2,29.76,West,279,0.0,0.0,69,0.02,,OVC030,0.12,483.00,VWS V14.01,2013-06-02 20:15:00,
2013-06-02 16:16:00,57.3,46.8,29.76,West,279,0.0,0.0,68,0.02,,OVC030,0.12,538.00,VWS V14.01,2013-06-02 20:16:00,
2013-06-02 16:17:00,57.2,46.0,29.76,NNW,340,1.0,0.0,66,0.02,,OVC030,0.12,473.00,VWS V14.01,2013-06-02 20:17:00,
2013-06-02 16:18:00,57.2,47.1,29.76,WSW,250,0.0,0.0,69,0.02,,OVC030,0.12,446.00,VWS V14.01,2013-06-02 20:18:00,
2013-06-02 16:19:00,57.2,47.1,29.76,WSW,257,1.0,0.0,69,0.02,,OVC030,0.12,478.00,VWS V14.01,2013-06-02 20:19:00,
2013-06-02 16:20:00,57.2,46.8,29.76,North,355,0.0,0.0,68,0.02,,OVC030,0.12,478.00,VWS V14.01,2013-06-02 20:20:00,
2013-06-02 16:21:00,57.0,46.2,29.76,North,360,0.0,0.0,67,0.02,,OVC030,0.12,494.00,VWS V14.01,2013-06-02 20:21:00,
2013-06-02 16:22:00,57.3,48.0,29.76,West,259,2.0,0.0,71,0.02,,OVC030,0.12,555.00,VWS V14.01,2013-06-02 20:22:00,
2013-06-02 16:23:00,57.3,47.2,29.76,West,262,0.0,0.0,69,0.02,,OVC030,0.12,577.00,VWS V14.01,2013-06-02 20:23:00,
2013-06-02 16:24:00,57.5,47.0,29.76,ESE,103,1.0,0.0,68,0.02,,OVC030,0.12,633.00,VWS V14.01,2013-06-02 20:24:00,
2013-06-02 16:25:00,57.5,46.6,29.76,NNW,347,0.0,0.0,67,0.02,,OVC030,0.12,701.00,VWS V14.01,2013-06-02 20:25:00,
2013-06-02 16:26:00,57.5,47.8,29.76,NNW,347,0.0,0.0,70,0.02,,OVC030,0.12,675.00,VWS V14.01,2013-06-02 20:26:00,
2013-06-02 16:27:00,57.8,48.1,29.76,NNW,347,0.0,0.0,70,0.02,,OVC030,0.12,598.00,VWS V14.01,2013-06-02 20:27:00,
2013-06-02 16:28:00,57.8,46.5,29.76,NW,308,1.0,0.0,66,0.02,,OVC030,0.12,605.00,VWS V14.01,2013-06-02 20:28:00,
2013-06-02 16:29:00,57.8,46.9,29.76,NE,40,0.0,0.0,67,0.02,,OVC030,0.12,701.00,VWS V14.01,2013-06-02 20:29:00,
2013-06-02 16:30:00,57.8,46.9,29.76,NNE,12,1.0,0.0,67,0.02,,OVC030,0.12,612.00,VWS V14.01,2013-06-02 20:30:00,
2013-06-02 16:31:00,57.8,47.7,29.76,North,355,2.0,0.0,69,0.02,,OVC030,0.13,622.00,VWS V14.01,2013-06-02 20:31:00,
2013-06-02 16:32:00,57.8,46.5,29.76,WNW,300,3.0,0.0,66,0.02,,OVC030,0.13,543.00,VWS V14.01,2013-06-02 20:32:00,
2013-06-02 16:33:00,57.6,45.9,29.76,NW,311,1.0,0.0,65,0.02,,OVC030,0.13,584.00,VWS V14.01,2013-06-02 20:33:00,
2013-06-02 16:34:00,57.6,47.1,29.76,West,275,0.0,0.0,68,0.02,,OVC030,0.13,584.00,VWS V14.01,2013-06-02 20:34:00,
2013-06-02 16:35:00,57.8,47.3,29.76,NNE,15,0.0,0.0,68,0.02,,OVC030,0.13,381.00,VWS V14.01,2013-06-02 20:35:00,
2013-06-02 16:36:00,57.6,47.5,29.76,ENE,71,2.0,0.0,69,0.02,,OVC030,0.13,392.00,VWS V14.01,2013-06-02 20:36:00,
2013-06-02 16:37:00,57.3,46.5,29.76,NNW,337,0.0,0.0,67,0.02,,OVC030,0.13,406.00,VWS V14.01,2013-06-02 20:37:00,
2013-06-02 16:38:00,57.2,46.4,29.76,NNW,337,0.0,0.0,67,0.02,,OVC030,0.13,501.00,VWS V14.01,2013-06-02 20:38:00,
2013-06-02 16:39:00,57.2,47.9,29.76,NNE,30,2.0,0.0,71,0.02,,OVC030,0.13,501.00,VWS V14.01,2013-06-02 20:39:00,
2013-06-02 16:40:00,57.2,46.4,29.76,NW,321,1.0,0.0,67,0.02,,OVC030,0.13,501.00,VWS V14.01,2013-06-02 20:40:00,
2013-06-02 16:41:00,57.3,47.2,29.76,NW,321,0.0,0.0,69,0.02,,OVC030,0.13,856.00,VWS V14.01,2013-06-02 20:41:00,
2013-06-02 16:42:00,57.5,47.4,29.76,NW,321,0.0,0.0,69,0.02,,OVC030,0.13,856.00,VWS V14.01,2013-06-02 20:42:00,
2013-06-02 16:43:00,57.5,47.4,29.76,NNW,342,0.0,0.0,69,0.02,,OVC030,0.13,856.00,VWS V14.01,2013-06-02 20:43:00,
2013-06-02 16:44:00,57.5,47.0,29.76,ESE,121,2.0,0.0,68,0.02,,OVC030,0.13,381.00,VWS V14.01,2013-06-02 20:44:00,
2013-06-02 16:45:00,57.2,46.8,29.76,NNW,332,0.0,0.0,68,0.02,,OVC030,0.13,429.00,VWS V14.01,2013-06-02 20:45:00,
2013-06-02 16:46:00,56.9,45.3,29.76,NW,313,3.0,0.0,65,0.02,,OVC030,0.13,439.00,VWS V14.01,2013-06-02 20:46:00,
2013-06-02 16:47:00,56.7,45.9,29.76,NNW,337,0.0,0.0,67,0.02,,OVC030,0.13,439.00,VWS V14.01,2013-06-02 20:47:00,
2013-06-02 16:48:00,56.7,46.7,29.76,NE,36,0.0,0.0,69,0.02,,OVC030,0.13,438.00,VWS V14.01,2013-06-02 20:48:00,
2013-06-02 16:49:00,56.5,45.3,29.76,NW,304,0.0,0.0,66,0.02,,OVC030,0.13,483.00,VWS V14.01,2013-06-02 20:49:00,
2013-06-02 16:50:00,56.6,45.8,29.76,ESE,106,3.0,0.0,67,0.02,,OVC027,0.13,483.00,VWS V14.01,2013-06-02 20:50:00,
2013-06-02 16:51:00,56.7,46.7,29.76,NW,319,0.0,0.0,69,0.02,,OVC027,0.13,383.00,VWS V14.01,2013-06-02 20:51:00,
2013-06-02 16:52:00,56.7,46.3,29.76,NW,319,0.0,0.0,68,0.02,,OVC027,0.13,353.00,VWS V14.01,2013-06-02 20:52:00,
2013-06-02 16:53:00,56.7,45.9,29.76,NW,319,0.0,0.0,67,0.02,,OVC027,0.13,350.00,VWS V14.01,2013-06-02 20:53:00,
2013-06-02 16:54:00,56.6,45.8,29.76,East,93,2.0,0.0,67,0.02,,OVC027,0.13,369.00,VWS V14.01,2013-06-02 20:54:00,
2013-06-02 16:55:00,56.6,46.6,29.76,East,96,0.0,0.0,69,0.02,,OVC027,0.13,378.00,VWS V14.01,2013-06-02 20:55:00,
2013-06-02 16:56:00,56.7,47.4,29.76,North,5,3.0,0.0,71,0.02,,OVC027,0.13,380.00,VWS V14.01,2013-06-02 20:56:00,
2013-06-02 16:57:00,56.7,46.7,29.76,North,5,1.0,0.0,69,0.02,,OVC027,0.13,355.00,VWS V14.01,2013-06-02 20:57:00,
2013-06-02 16:58:00,56.9,46.8,29.76,SE,131,1.0,0.0,69,0.02,,OVC027,0.13,330.00,VWS V14.01,2013-06-02 20:58:00,
2013-06-02 16:59:00,56.7,47.0,29.76,SE,131,0.0,0.0,70,0.02,,OVC027,0.13,338.00,VWS V14.01,2013-06-02 20:59:00,
2013-06-02 17:00:00,56.7,46.3,29.76,SE,131,1.0,0.0,68,0.02,,OVC027,0.13,385.00,VWS V14.01,2013-06-02 21:00:00,
2013-06-02 17:01:00,56.9,47.6,29.76,South,184,0.0,0.0,71,0.01,,OVC027,0.13,373.00,VWS V14.01,2013-06-02 21:01:00,
2013-06-02 17:02:00,57.0,48.1,29.76,NNW,340,2.0,0.0,72,0.01,,OVC027,0.13,396.00,VWS V14.01,2013-06-02 21:02:00,
2013-06-02 17:03:00,56.9,47.2,29.76,SE,145,1.0,0.0,70,0.01,,OVC027,0.13,403.00,VWS V14.01,2013-06-02 21:03:00,
2013-06-02 17:04:00,56.7,45.5,29.76,NW,323,0.0,0.0,66,0.01,,OVC027,0.13,406.00,VWS V14.01,2013-06-02 21:04:00,
2013-06-02 17:05:00,56.6,45.8,29.76,NW,323,0.0,0.0,67,0.01,,OVC027,0.13,381.00,VWS V14.01,2013-06-02 21:05:00,
2013-06-02 17:06:00,56.6,46.2,29.76,NW,312,0.0,0.0,68,0.01,,OVC027,0.13,357.00,VWS V14.01,2013-06-02 21:06:00,
2013-06-02 17:07:00,56.6,46.9,29.76,NW,312,0.0,0.0,70,0.01,,OVC027,0.13,341.00,VWS V14.01,2013-06-02 21:07:00,
2013-06-02 17:08:00,56.6,46.9,29.76,NW,312,0.0,0.0,70,0.01,,OVC027,0.13,330.00,VWS V14.01,2013-06-02 21:08:00,
2013-06-02 17:09:00,56.9,47.6,29.76,NW,312,0.0,0.0,71,0.01,,OVC027,0.13,330.00,VWS V14.01,2013-06-02 21:09:00,
2013-06-02 17:10:00,56.7,47.8,29.76,NW,313,0.0,0.0,72,0.01,,OVC027,0.13,380.00,VWS V14.01,2013-06-02 21:10:00,
2013-06-02 17:11:00,56.6,45.8,29.76,NE,42,0.0,0.0,67,0.01,,OVC027,0.13,336.00,VWS V14.01,2013-06-02 21:11:00,
2013-06-02 17:12:00,56.6,46.2,29.76,NE,45,2.0,0.0,68,0.01,,OVC027,0.13,315.00,VWS V14.01,2013-06-02 21:12:00,
2013-06-02 17:13:00,56.5,46.1,29.76,NE,50,0.0,0.0,68,0.01,,OVC027,0.13,297.00,VWS V14.01,2013-06-02 21:13:00,
2013-06-02 17:14:00,56.5,46.5,29.76,NE,50,0.0,0.0,69,0.01,,OVC027,0.13,297.00,VWS V14.01,2013-06-02 21:14:00,
2013-06-02 17:15:00,56.6,48.1,29.76,NE,46,0.0,0.0,73,0.01,,OVC027,0.13,306.00,VWS V14.01,2013-06-02 21:15:00,
2013-06-02 17:16:00,56.6,47.3,29.76,NNE,28,2.0,0.0,71,0.01,,OVC027,0.13,315.00,VWS V14.01,2013-06-02 21:16:00,
2013-06-02 17:17:00,56.5,47.2,29.76,NW,321,0.0,0.0,71,0.01,,OVC027,0.13,318.00,VWS V14.01,2013-06-02 21:17:00,
2013-06-02 17:18:00,56.3,46.3,29.76,NW,307,0.0,0.0,69,0.01,,OVC027,0.13,309.00,VWS V14.01,2013-06-02 21:18:00,
2013-06-02 17:19:00,56.5,46.5,29.76,NE,53,1.0,0.0,69,0.01,,OVC027,0.13,306.00,VWS V14.01,2013-06-02 21:19:00,
2013-06-02 17:20:00,56.3,46.3,29.76,North,355,0.0,0.0,69,0.01,,OVC027,0.13,327.00,VWS V14.01,2013-06-02 21:20:00,
2013-06-02 17:21:00,56.5,46.5,29.76,North,351,0.0,0.0,69,0.01,,OVC027,0.13,353.00,VWS V14.01,2013-06-02 21:21:00,
2013-06-02 17:22:00,56.5,47.2,29.76,NW,315,1.0,0.0,71,0.01,,OVC027,0.13,422.00,VWS V14.01,2013-06-02 21:22:00,
2013-06-02 17:23:00,56.5,46.8,29.76,NW,315,0.0,0.0,70,0.01,,OVC027,0.13,346.00,VWS V14.01,2013-06-02 21:23:00,
2013-06-02 17:24:00,56.5,46.1,29.76,NW,315,0.0,0.0,68,0.01,,OVC027,0.13,373.00,VWS V14.01,2013-06-02 21:24:00,
2013-06-02 17:25:00,56.5,46.5,29.76,NW,315,0.0,0.0,69,0.01,,OVC027,0.13,323.00,VWS V14.01,2013-06-02 21:25:00,
2013-06-02 17:26:00,56.3,45.5,29.76,NW,315,0.0,0.0,67,0.01,,OVC027,0.13,362.00,VWS V14.01,2013-06-02 21:26:00,
2013-06-02 17:27:00,56.2,45.4,29.76,NW,315,1.0,0.0,67,0.01,,OVC027,0.13,332.00,VWS V14.01,2013-06-02 21:27:00,
2013-06-02 17:28:00,56.0,45.6,29.76,North,355,0.0,0.0,68,0.01,,OVC027,0.13,325.00,VWS V14.01,2013-06-02 21:28:00,
2013-06-02 17:29:00,56.0,46.4,29.76,East,92,3.0,0.0,70,0.01,,OVC027,0.13,362.00,VWS V14.01,2013-06-02 21:29:00,
2013-06-02 17:30:00,55.9,45.5,29.76,NNW,339,0.0,0.0,68,0.01,,OVC027,0.13,346.00,VWS V14.01,2013-06-02 21:30:00,
2013-06-02 17:31:00,56.0,46.4,29.76,NNW,339,0.0,0.0,70,0.01,,OVC027,0.13,327.00,VWS V14.01,2013-06-02 21:31:00,
2013-06-02 17:32:00,56.0,46.4,29.76,NNW,327,0.0,0.0,70,0.01,,OVC027,0.13,281.00,VWS V14.01,2013-06-02 21:32:00,
2013-06-02 17:33:00,56.0,46.0,29.76,NW,320,3.0,0.0,69,0.01,,OVC027,0.13,290.00,VWS V14.01,2013-06-02 21:33:00,
2013-06-02 17:34:00,56.0,46.0,29.76,North,10,1.0,0.0,69,0.01,,OVC027,0.13,292.00,VWS V14.01,2013-06-02 21:34:00,
2013-06-02 17:35:00,55.9,45.5,29.76,NNW,340,0.0,0.0,68,0.01,,OVC027,0.13,315.00,VWS V14.01,2013-06-02 21:35:00,
2013-06-02 17:36:00,55.7,45.3,29.76,NNW,340,0.0,0.0,68,0.01,,OVC027,0.13,315.00,VWS V14.01,2013-06-02 21:36:00,
2013-06-02 17:37:00,55.7,45.7,29.76,NW,304,0.0,0.0,69,0.01,,OVC027,0.13,329.00,VWS V14.01,2013-06-02 21:37:00,
2013-06-02 17:38:00,55.6,45.6,29.76,NW,317,0.0,0.0,69,0.01,,OVC027,0.13,396.00,VWS V14.01,2013-06-02 21:38:00,
2013-06-02 17:39:00,55.6,45.6,29.76,East,88,0.0,0.0,69,0.01,,OVC027,0.13,396.00,VWS V14.01,2013-06-02 21:39:00,
2013-06-02 17:40:00,55.4,45.4,29.76,NNE,17,1.0,0.0,69,0.01,,OVC027,0.13,251.00,VWS V14.01,2013-06-02 21:40:00,
2013-06-02 17:41:00,55.3,45.3,29.76,NW,309,1.0,0.0,69,0.01,,OVC027,0.13,311.00,VWS V14.01,2013-06-02 21:41:00,
2013-06-02 17:42:00,55.1,44.7,29.76,NW,309,0.0,0.0,68,0.01,,OVC027,0.13,297.00,VWS V14.01,2013-06-02 21:42:00,
2013-06-02 17:43:00,55.0,45.4,29.76,WSW,246,0.0,0.0,70,0.01,,OVC027,0.13,390.00,VWS V14.01,2013-06-02 21:43:00,
2013-06-02 17:44:00,55.0,45.4,29.76,WSW,247,0.0,0.0,70,0.01,,OVC027,0.13,359.00,VWS V14.01,2013-06-02 21:44:00,
2013-06-02 17:45:00,55.0,45.0,29.76,ENE,76,1.0,0.0,69,0.01,,OVC027,0.13,290.00,VWS V14.01,2013-06-02 21:45:00,
2013-06-02 17:46:00,55.0,45.4,29.76,NNE,29,0.0,0.0,70,0.01,,OVC027,0.13,283.00,VWS V14.01,2013-06-02 21:46:00,
2013-06-02 17:47:00,55.0,44.7,29.76,SSE,155,0.0,0.0,68,0.01,,OVC027,0.13,274.00,VWS V14.01,2013-06-02 21:47:00,
2013-06-02 17:48:00,55.0,45.4,29.76,NW,325,0.0,0.0,70,0.01,,OVC027,0.13,301.00,VWS V14.01,2013-06-02 21:48:00,
2013-06-02 17:49:00,55.0,45.4,29.76,North,355,0.0,0.0,70,0.01,,OVC027,0.13,301.00,VWS V14.01,2013-06-02 21:49:00,
2013-06-02 17:50:00,55.0,45.8,29.76,North,360,2.0,0.0,71,0.01,,OVC027,0.13,301.00,VWS V14.01,2013-06-02 21:50:00,
2013-06-02 17:51:00,54.8,44.8,29.76,NNW,338,1.0,0.0,69,0.01,,OVC027,0.13,362.00,VWS V14.01,2013-06-02 21:51:00,
2013-06-02 17:52:00,55.0,45.0,29.76,NNW,331,0.0,0.0,69,0.01,,OVC027,0.13,258.00,VWS V14.01,2013-06-02 21:52:00,
2013-06-02 17:53:00,55.0,45.0,29.76,NE,47,0.0,0.0,69,0.01,,OVC027,0.13,209.00,VWS V14.01,2013-06-02 21:53:00,
2013-06-02 17:54:00,55.0,45.8,29.76,NNW,335,0.0,0.0,71,0.01,,OVC027,0.13,230.00,VWS V14.01,2013-06-02 21:54:00,
2013-06-02 17:55:00,55.0,45.8,29.76,North,351,2.0,0.0,71,0.01,,OVC027,0.13,221.00,VWS V14.01,2013-06-02 21:55:00,
2013-06-02 17:56:00,54.8,44.8,29.76,North,355,1.0,0.0,69,0.01,,OVC027,0.13,206.00,VWS V14.01,2013-06-02 21:56:00,
2013-06-02 17:57:00,54.7,44.7,29.76,North,355,0.0,0.0,69,0.01,,OVC027,0.13,193.00,VWS V14.01,2013-06-02 21:57:00,
2013-06-02 17:58:00,54.5,44.9,29.76,ENE,62,2.0,0.0,70,0.01,,OVC027,0.13,197.00,VWS V14.01,2013-06-02 21:58:00,
2013-06-02 17:59:00,54.5,44.9,29.76,North,360,0.0,0.0,70,0.01,,OVC027,0.13,197.00,VWS V14.01,2013-06-02 21:59:00,
2013-06-02 18:00:00,54.4,44.8,29.76,North,360,0.0,0.0,70,0.01,,OVC027,0.13,202.00,VWS V14.01,2013-06-02 22:00:00,
2013-06-02 18:01:00,54.4,44.8,29.76,SSE,159,0.0,0.0,70,0.00,,OVC027,0.13,195.00,VWS V14.01,2013-06-02 22:01:00,
2013-06-02 18:02:00,54.2,44.3,29.76,NNW,327,0.0,0.0,69,0.00,,OVC027,0.13,195.00,VWS V14.01,2013-06-02 22:02:00,
2013-06-02 18:03:00,54.2,45.0,29.76,SSE,159,2.0,0.0,71,0.00,,OVC027,0.13,193.00,VWS V14.01,2013-06-02 22:03:00,
2013-06-02 18:04:00,54.2,45.0,29.76,West,263,0.0,0.0,71,0.00,,OVC027,0.13,190.00,VWS V14.01,2013-06-02 22:04:00,
2013-06-02 18:05:00,54.2,45.0,29.76,WNW,289,0.0,0.0,71,0.00,,OVC027,0.13,192.00,VWS V14.01,2013-06-02 22:05:00,
2013-06-02 18:06:00,54.2,45.0,29.76,WNW,289,0.0,0.0,71,0.00,,OVC027,0.13,190.00,VWS V14.01,2013-06-02 22:06:00,
2013-06-02 18:07:00,54.2,45.0,29.76,NE,38,1.0,0.0,71,0.00,,OVC027,0.13,171.00,VWS V14.01,2013-06-02 22:07:00,
2013-06-02 18:08:00,54.2,45.4,29.76,NE,40,0.0,0.0,72,0.00,,OVC027,0.13,162.00,VWS V14.01,2013-06-02 22:08:00,
2013-06-02 18:09:00,54.2,45.0,29.76,NNE,19,0.0,0.0,71,0.00,,OVC027,0.13,181.00,VWS V14.01,2013-06-02 22:09:00,
2013-06-02 18:10:00,54.2,45.8,29.76,NNE,19,0.0,0.0,73,0.00,,OVC029,0.13,186.00,VWS V14.01,2013-06-02 22:10:00,
2013-06-02 18:11:00,54.2,45.4,29.76,NNE,28,1.0,0.0,72,0.00,,OVC029,0.13,213.00,VWS V14.01,2013-06-02 22:11:00,
2013-06-02 18:12:00,54.4,45.2,29.76,NNE,30,0.0,0.0,71,0.00,,OVC029,0.13,195.00,VWS V14.01,2013-06-02 22:12:00,
2013-06-02 18:13:00,54.4,45.6,29.76,NNW,338,0.0,0.0,72,0.00,,OVC029,0.13,176.00,VWS V14.01,2013-06-02 22:13:00,
2013-06-02 18:14:00,54.4,45.2,29.76,NNW,338,0.0,0.0,71,0.00,,OVC029,0.13,176.00,VWS V14.01,2013-06-02 22:14:00,
2013-06-02 18:15:00,54.2,45.0,29.76,NE,38,0.0,0.0,71,0.00,,OVC029,0.13,169.00,VWS V14.01,2013-06-02 22:15:00,
2013-06-02 18:16:00,54.4,45.9,29.76,North,5,1.0,0.0,73,0.00,,OVC029,0.13,190.00,VWS V14.01,2013-06-02 22:16:00,
2013-06-02 18:17:00,54.4,45.6,29.76,NNW,345,0.0,0.0,72,0.00,,OVC029,0.13,190.00,VWS V14.01,2013-06-02 22:17:00,
2013-06-02 18:18:00,54.4,45.6,29.76,East,100,0.0,0.0,72,0.00,,OVC029,0.13,162.00,VWS V14.01,2013-06-02 22:18:00,
2013-06-02 18:19:00,54.2,45.4,29.76,East,100,0.0,0.0,72,0.00,,OVC029,0.13,144.00,VWS V14.01,2013-06-02 22:19:00,
2013-06-02 18:20:00,54.2,45.0,29.76,East,100,0.0,0.0,71,0.00,,OVC029,0.13,130.00,VWS V14.01,2013-06-02 22:20:00,
2013-06-02 18:21:00,54.2,45.4,29.76,East,100,0.0,0.0,72,0.00,,OVC029,0.13,120.00,VWS V14.01,2013-06-02 22:21:00,
2013-06-02 18:22:00,54.1,44.9,29.76,East,100,0.0,0.0,71,0.00,,OVC029,0.13,125.00,VWS V14.01,2013-06-02 22:22:00,
2013-06-02 18:23:00,54.1,44.9,29.76,SSE,151,0.0,0.0,71,0.00,,OVC029,0.13,125.00,VWS V14.01,2013-06-02 22:23:00,
2013-06-02 18:24:00,54.1,45.3,29.76,SSE,151,0.0,0.0,72,0.00,,OVC029,0.13,128.00,VWS V14.01,2013-06-02 22:24:00,
2013-06-02 18:25:00,53.9,45.1,29.76,North,355,0.0,0.0,72,0.00,,OVC029,0.13,137.00,VWS V14.01,2013-06-02 22:25:00,
2013-06-02 18:26:00,53.8,45.0,29.76,NW,323,0.0,0.0,72,0.00,,OVC029,0.13,135.00,VWS V14.01,2013-06-02 22:26:00,
2013-06-02 18:27:00,53.6,44.1,29.76,WSW,252,3.0,0.0,70,0.00,,OVC029,0.13,137.00,VWS V14.01,2013-06-02 22:27:00,
2013-06-02 18:28:00,53.5,44.0,29.76,NNW,344,0.0,0.0,70,0.00,,OVC029,0.13,146.00,VWS V14.01,2013-06-02 22:28:00,
2013-06-02 18:29:00,53.5,44.0,29.76,NNW,344,0.0,0.0,70,0.00,,OVC029,0.13,151.00,VWS V14.01,2013-06-02 22:29:00,
2013-06-02 18:30:00,53.5,44.7,29.76,ENE,73,2.0,0.0,72,0.00,,OVC029,0.13,144.00,VWS V14.01,2013-06-02 22:30:00,
2013-06-02 18:31:00,53.3,44.9,29.76,NNW,338,0.0,0.0,73,0.00,,OVC029,0.13,135.00,VWS V14.01,2013-06-02 22:31:00,
2013-06-02 18:32:00,53.3,44.2,29.76,NNW,328,0.0,0.0,71,0.00,,OVC029,0.13,116.00,VWS V14.01,2013-06-02 22:32:00,
2013-06-02 18:33:00,53.2,44.0,29.76,NNW,328,0.0,0.0,71,0.00,,OVC029,0.13,118.00,VWS V14.01,2013-06-02 22:33:00,
2013-06-02 18:34:00,53.3,44.5,29.76,NNW,328,0.0,0.0,72,0.00,,OVC029,0.13,104.00,VWS V14.01,2013-06-02 22:34:00,
2013-06-02 18:35:00,53.3,44.9,29.76,NNW,328,0.0,0.0,73,0.00,,OVC029,0.13,98.00,VWS V14.01,2013-06-02 22:35:00,
2013-06-02 18:36:00,53.3,44.9,29.76,NNW,328,0.0,0.0,73,0.00,,OVC029,0.13,97.00,VWS V14.01,2013-06-02 22:36:00,
2013-06-02 18:37:00,53.3,44.9,29.76,NNW,328,0.0,0.0,73,0.00,,OVC029,0.13,102.00,VWS V14.01,2013-06-02 22:37:00,
2013-06-02 18:38:00,53.2,44.8,29.76,SE,146,0.0,0.0,73,0.00,,OVC029,0.13,114.00,VWS V14.01,2013-06-02 22:38:00,
2013-06-02 18:39:00,53.2,45.1,29.76,SE,146,0.0,0.0,74,0.00,,OVC029,0.13,116.00,VWS V14.01,2013-06-02 22:39:00,
2013-06-02 18:40:00,53.2,44.8,29.76,SE,146,0.0,0.0,73,0.00,,OVC029,0.13,130.00,VWS V14.01,2013-06-02 22:40:00,
2013-06-02 18:41:00,53.2,44.8,29.76,NNE,33,0.0,0.0,73,0.00,,OVC029,0.13,111.00,VWS V14.01,2013-06-02 22:41:00,
2013-06-02 18:42:00,53.2,45.1,29.76,NNW,334,2.0,0.0,74,0.00,,OVC029,0.13,121.00,VWS V14.01,2013-06-02 22:42:00,
2013-06-02 18:43:00,53.2,45.1,29.76,SW,222,0.0,0.0,74,0.00,,OVC029,0.13,120.00,VWS V14.01,2013-06-02 22:43:00,
2013-06-02 18:44:00,53.2,44.8,29.76,SW,222,0.0,0.0,73,0.00,,OVC029,0.13,116.00,VWS V14.01,2013-06-02 22:44:00,
2013-06-02 18:45:00,53.2,44.8,29.76,NNE,17,1.0,0.0,73,0.00,,OVC029,0.13,97.00,VWS V14.01,2013-06-02 22:45:00,
2013-06-02 18:46:00,53.1,44.7,29.76,NW,317,3.0,0.0,73,0.00,,OVC029,0.13,98.00,VWS V14.01,2013-06-02 22:46:00,
2013-06-02 18:47:00,52.9,44.1,29.76,North,360,0.0,0.0,72,0.00,,OVC029,0.13,123.00,VWS V14.01,2013-06-02 22:47:00,
2013-06-02 18:48:00,52.9,44.1,29.76,North,360,0.0,0.0,72,0.00,,OVC029,0.13,93.00,VWS V14.01,2013-06-02 22:48:00,
2013-06-02 18:49:00,52.8,43.7,29.76,North,360,0.0,0.0,71,0.00,,OVC029,0.13,70.00,VWS V14.01,2013-06-02 22:49:00,
2013-06-02 18:50:00,52.8,44.0,29.76,North,360,0.0,0.0,72,0.00,,OVC029,0.13,74.00,VWS V14.01,2013-06-02 22:50:00,
2013-06-02 18:51:00,52.8,44.4,29.76,North,360,1.0,0.0,73,0.00,,OVC029,0.13,76.00,VWS V14.01,2013-06-02 22:51:00,
2013-06-02 18:52:00,52.8,44.4,29.76,SSW,206,0.0,0.0,73,0.00,,OVC029,0.13,98.00,VWS V14.01,2013-06-02 22:52:00,
2013-06-02 18:53:00,52.6,44.2,29.76,NNW,348,3.0,0.0,73,0.00,,OVC029,0.13,97.00,VWS V14.01,2013-06-02 22:53:00,
2013-06-02 18:54:00,52.6,44.2,29.76,North,350,0.0,0.0,73,0.00,,OVC029,0.13,113.00,VWS V14.01,2013-06-02 22:54:00,
2013-06-02 18:55:00,52.5,43.8,29.76,SSE,167,0.0,0.0,72,0.00,,OVC029,0.13,81.00,VWS V14.01,2013-06-02 22:55:00,
2013-06-02 18:56:00,52.5,43.8,29.76,SSE,161,0.0,0.0,72,0.00,,OVC029,0.13,67.00,VWS V14.01,2013-06-02 22:56:00,
2013-06-02 18:57:00,52.5,43.8,29.76,SSE,161,0.0,0.0,72,0.00,,OVC029,0.13,58.00,VWS V14.01,2013-06-02 22:57:00,
2013-06-02 18:58:00,52.5,44.1,29.76,SSE,161,0.0,0.0,73,0.00,,OVC029,0.13,58.00,VWS V14.01,2013-06-02 22:58:00,
2013-06-02 18:59:00,52.5,44.1,29.76,SSE,161,0.0,0.0,73,0.00,,OVC029,0.13,58.00,VWS V14.01,2013-06-02 22:59:00,
2013-06-02 19:00:00,52.5,44.1,29.77,SSE,161,0.0,0.0,73,0.00,,OVC029,0.13,62.00,VWS V14.01,2013-06-02 23:00:00,
2013-06-02 19:01:00,52.5,44.1,29.77,SE,144,0.0,0.0,73,0.00,,OVC029,0.13,65.00,VWS V14.01,2013-06-02 23:01:00,
2013-06-02 19:02:00,52.3,43.5,29.77,West,270,0.0,0.0,72,0.00,,OVC029,0.13,79.00,VWS V14.01,2013-06-02 23:02:00,
2013-06-02 19:03:00,52.5,44.1,29.77,NW,320,1.0,0.0,73,0.00,,OVC029,0.13,69.00,VWS V14.01,2013-06-02 23:03:00,
2013-06-02 19:04:00,52.3,43.9,29.77,NW,320,0.0,0.0,73,0.00,,OVC029,0.13,77.00,VWS V14.01,2013-06-02 23:04:00,
2013-06-02 19:05:00,52.5,44.5,29.77,SE,143,1.0,0.0,74,0.00,,OVC029,0.13,86.00,VWS V14.01,2013-06-02 23:05:00,
2013-06-02 19:06:00,52.3,44.3,29.77,SSW,202,2.0,0.0,74,0.00,,OVC029,0.13,88.00,VWS V14.01,2013-06-02 23:06:00,
2013-06-02 19:07:00,52.3,43.5,29.77,West,262,0.0,0.0,72,0.00,,OVC029,0.13,93.00,VWS V14.01,2013-06-02 23:07:00,
2013-06-02 19:08:00,52.3,43.5,29.77,West,262,0.0,0.0,72,0.00,,OVC029,0.13,69.00,VWS V14.01,2013-06-02 23:08:00,
2013-06-02 19:09:00,52.3,43.9,29.77,West,262,1.0,0.0,73,0.00,,OVC029,0.13,74.00,VWS V14.01,2013-06-02 23:09:00,
2013-06-02 19:10:00,52.3,43.9,29.77,South,184,0.0,0.0,73,0.00,,OVC029,0.13,81.00,VWS V14.01,2013-06-02 23:10:00,
2013-06-02 19:11:00,52.2,43.5,29.77,SW,227,0.0,0.0,72,0.00,,OVC029,0.13,77.00,VWS V14.01,2013-06-02 23:11:00,
2013-06-02 19:12:00,52.2,43.5,29.77,West,261,1.0,0.0,72,0.00,,OVC029,0.13,67.00,VWS V14.01,2013-06-02 23:12:00,
2013-06-02 19:13:00,52.2,43.5,29.77,West,261,0.0,0.0,72,0.00,,OVC029,0.13,67.00,VWS V14.01,2013-06-02 23:13:00,
2013-06-02 19:14:00,52.0,43.3,29.77,West,261,0.0,0.0,72,0.00,,OVC029,0.13,67.00,VWS V14.01,2013-06-02 23:14:00,
2013-06-02 19:15:00,52.0,43.6,29.77,West,261,0.0,0.0,73,0.00,,OVC029,0.13,79.00,VWS V14.01,2013-06-02 23:15:00,
2013-06-02 19:16:00,52.0,43.6,29.77,West,261,0.0,0.0,73,0.00,,OVC029,0.13,77.00,VWS V14.01,2013-06-02 23:16:00,
2013-06-02 19:17:00,52.0,43.6,29.77,West,261,0.0,0.0,73,0.00,,OVC029,0.13,76.00,VWS V14.01,2013-06-02 23:17:00,
2013-06-02 19:18:00,51.9,43.9,29.77,West,261,0.0,0.0,74,0.00,,OVC029,0.13,72.00,VWS V14.01,2013-06-02 23:18:00,
2013-06-02 19:19:00,51.9,43.5,29.77,East,98,1.0,0.0,73,0.00,,OVC029,0.13,65.00,VWS V14.01,2013-06-02 23:19:00,
2013-06-02 19:20:00,51.9,43.5,29.77,East,87,0.0,0.0,73,0.00,,OVC029,0.13,49.00,VWS V14.01,2013-06-02 23:20:00,
2013-06-02 19:21:00,51.9,43.5,29.77,East,96,0.0,0.0,73,0.00,,OVC029,0.13,53.00,VWS V14.01,2013-06-02 23:21:00,
2013-06-02 19:22:00,51.9,43.5,29.77,NE,46,0.0,0.0,73,0.00,,OVC029,0.13,60.00,VWS V14.01,2013-06-02 23:22:00,
2013-06-02 19:23:00,51.7,43.7,29.77,NE,45,0.0,0.0,74,0.00,,OVC029,0.13,67.00,VWS V14.01,2013-06-02 23:23:00,
2013-06-02 19:24:00,51.7,43.3,29.77,NE,45,0.0,0.0,73,0.00,,OVC029,0.13,72.00,VWS V14.01,2013-06-02 23:24:00,
2013-06-02 19:25:00,51.7,43.3,29.77,NE,45,0.0,0.0,73,0.00,,OVC029,0.13,70.00,VWS V14.01,2013-06-02 23:25:00,
2013-06-02 19:26:00,51.7,43.7,29.77,NE,45,0.0,0.0,74,0.00,,OVC029,0.13,69.00,VWS V14.01,2013-06-02 23:26:00,
2013-06-02 19:27:00,51.7,43.7,29.77,NE,49,0.0,0.0,74,0.00,,OVC029,0.13,69.00,VWS V14.01,2013-06-02 23:27:00,
2013-06-02 19:28:00,51.6,43.6,29.77,South,181,0.0,0.0,74,0.00,,OVC029,0.13,70.00,VWS V14.01,2013-06-02 23:28:00,
2013-06-02 19:29:00,51.7,43.7,29.77,NE,44,0.0,0.0,74,0.00,,OVC029,0.13,70.00,VWS V14.01,2013-06-02 23:29:00,
2013-06-02 19:30:00,51.6,43.6,29.77,NNE,22,0.0,0.0,74,0.00,,OVC029,0.13,67.00,VWS V14.01,2013-06-02 23:30:00,
2013-06-02 19:31:00,51.6,43.2,29.77,NNE,22,0.0,0.0,73,0.00,,OVC029,0.13,65.00,VWS V14.01,2013-06-02 23:31:00,
2013-06-02 19:32:00,51.4,42.7,29.77,NNE,22,0.0,0.0,72,0.00,,OVC029,0.13,67.00,VWS V14.01,2013-06-02 23:32:00,
2013-06-02 19:33:00,51.4,43.0,29.77,SSE,168,0.0,0.0,73,0.00,,OVC029,0.13,74.00,VWS V14.01,2013-06-02 23:33:00,
2013-06-02 19:34:00,51.6,43.2,29.77,ESE,121,0.0,0.0,73,0.00,,OVC029,0.13,67.00,VWS V14.01,2013-06-02 23:34:00,
2013-06-02 19:35:00,51.6,43.2,29.77,ESE,121,0.0,0.0,73,0.00,,OVC029,0.13,47.00,VWS V14.01,2013-06-02 23:35:00,
2013-06-02 19:36:00,51.6,43.2,29.77,North,360,3.0,0.0,73,0.00,,OVC029,0.13,32.00,VWS V14.01,2013-06-02 23:36:00,
2013-06-02 19:37:00,51.4,43.0,29.77,NNW,348,1.0,0.0,73,0.00,,OVC029,0.13,26.00,VWS V14.01,2013-06-02 23:37:00,
2013-06-02 19:38:00,51.4,42.7,29.77,NNW,348,0.0,0.0,72,0.00,,OVC029,0.13,26.00,VWS V14.01,2013-06-02 23:38:00,
2013-06-02 19:39:00,51.4,42.7,29.77,West,274,0.0,0.0,72,0.00,,OVC029,0.13,26.00,VWS V14.01,2013-06-02 23:39:00,
2013-06-02 19:40:00,51.3,42.6,29.77,West,274,0.0,0.0,72,0.00,,OVC029,0.13,25.00,VWS V14.01,2013-06-02 23:40:00,
2013-06-02 19:41:00,51.3,42.6,29.77,WNW,293,1.0,0.0,72,0.00,,OVC029,0.13,25.00,VWS V14.01,2013-06-02 23:41:00,
2013-06-02 19:42:00,51.3,42.6,29.77,SSW,202,0.0,0.0,72,0.00,,OVC029,0.13,25.00,VWS V14.01,2013-06-02 23:42:00,
2013-06-02 19:43:00,51.3,42.2,29.77,SSW,202,0.0,0.0,71,0.00,,OVC029,0.13,25.00,VWS V14.01,2013-06-02 23:43:00,
2013-06-02 19:44:00,51.3,42.6,29.77,NW,306,0.0,0.0,72,0.00,,OVC029,0.13,25.00,VWS V14.01,2013-06-02 23:44:00,
2013-06-02 19:45:00,51.1,42.8,29.77,NW,306,0.0,0.0,73,0.00,,OVC029,0.13,23.00,VWS V14.01,2013-06-02 23:45:00,
2013-06-02 19:46:00,51.1,42.4,29.77,NW,306,0.0,0.0,72,0.00,,OVC029,0.13,23.00,VWS V14.01,2013-06-02 23:46:00,
2013-06-02 19:47:00,51.0,41.9,29.77,NW,307,0.0,0.0,71,0.00,,OVC029,0.13,23.00,VWS V14.01,2013-06-02 23:47:00,
2013-06-02 19:48:00,51.0,42.3,29.77,NW,306,0.0,0.0,72,0.00,,OVC029,0.13,23.00,VWS V14.01,2013-06-02 23:48:00,
2013-06-02 19:49:00,51.0,41.9,29.77,NW,313,0.0,0.0,71,0.00,,OVC029,0.13,21.00,VWS V14.01,2013-06-02 23:49:00,
2013-06-02 19:50:00,51.0,42.3,29.77,NW,313,0.0,0.0,72,0.00,,OVC029,0.13,21.00,VWS V14.01,2013-06-02 23:50:00,
2013-06-02 19:51:00,50.8,42.1,29.77,SE,137,2.0,0.0,72,0.00,,OVC029,0.13,21.00,VWS V14.01,2013-06-02 23:51:00,
2013-06-02 19:52:00,50.8,41.8,29.77,ESE,123,0.0,0.0,71,0.00,,OVC029,0.13,21.00,VWS V14.01,2013-06-02 23:52:00,
2013-06-02 19:53:00,50.7,42.0,29.77,ESE,123,0.0,0.0,72,0.00,,OVC029,0.13,21.00,VWS V14.01,2013-06-02 23:53:00,
2013-06-02 19:54:00,50.7,41.7,29.77,SSE,164,0.0,0.0,71,0.00,,OVC029,0.13,21.00,VWS V14.01,2013-06-02 23:54:00,
2013-06-02 19:55:00,50.7,42.0,29.77,SSE,164,0.0,0.0,72,0.00,,OVC029,0.13,19.00,VWS V14.01,2013-06-02 23:55:00,
2013-06-02 19:56:00,50.5,41.8,29.77,SSE,164,0.0,0.0,72,0.00,,OVC029,0.13,19.00,VWS V14.01,2013-06-02 23:56:00,
2013-06-02 19:57:00,50.5,41.8,29.77,ESE,123,0.0,0.0,72,0.00,,OVC029,0.13,19.00,VWS V14.01,2013-06-02 23:57:00,
2013-06-02 19:58:00,50.4,41.7,29.77,ESE,123,0.0,0.0,72,0.00,,OVC029,0.13,19.00,VWS V14.01,2013-06-02 23:58:00,
2013-06-02 19:59:00,50.4,42.1,29.77,ESE,103,1.0,0.0,73,0.00,,OVC029,0.13,19.00,VWS V14.01,2013-06-02 23:59:00,
2013-06-02 20:00:00,50.4,42.1,29.78,East,81,0.0,0.0,73,0.00,,OVC029,0.13,18.00,VWS V14.01,2013-06-03 00:00:00,
2013-06-02 20:01:00,50.2,41.9,29.78,East,81,0.0,0.0,73,0.00,,OVC029,0.13,18.00,VWS V14.01,2013-06-03 00:01:00,
2013-06-02 20:02:00,50.2,41.9,29.78,NNW,332,0.0,0.0,73,0.00,,OVC029,0.13,18.00,VWS V14.01,2013-06-03 00:02:00,
2013-06-02 20:03:00,50.2,41.9,29.78,NNW,332,0.0,0.0,73,0.00,,OVC029,0.13,18.00,VWS V14.01,2013-06-03 00:03:00,
2013-06-02 20:04:00,50.1,41.8,29.78,NW,321,1.0,0.0,73,0.00,,OVC029,0.13,18.00,VWS V14.01,2013-06-03 00:04:00,
2013-06-02 20:05:00,50.1,41.4,29.78,ENE,70,0.0,0.0,72,0.00,,OVC029,0.13,16.00,VWS V14.01,2013-06-03 00:05:00,
2013-06-02 20:06:00,50.1,41.4,29.78,ENE,70,0.0,0.0,72,0.00,,OVC029,0.13,16.00,VWS V14.01,2013-06-03 00:06:00,
2013-06-02 20:07:00,50.1,41.4,29.78,ENE,70,0.0,0.0,72,0.00,,OVC029,0.13,16.00,VWS V14.01,2013-06-03 00:07:00,
2013-06-02 20:08:00,49.9,41.6,29.78,ENE,70,0.0,0.0,73,0.00,,OVC029,0.13,16.00,VWS V14.01,2013-06-03 00:08:00,
2013-06-02 20:09:00,49.9,42.0,29.78,ENE,70,0.0,0.0,74,0.00,,OVC029,0.13,16.00,VWS V14.01,2013-06-03 00:09:00,
2013-06-02 20:10:00,49.8,41.5,29.78,ENE,70,0.0,0.0,73,0.00,,OVC029,0.13,16.00,VWS V14.01,2013-06-03 00:10:00,
2013-06-02 20:11:00,49.8,41.9,29.78,ENE,70,0.0,0.0,74,0.00,,OVC029,0.13,16.00,VWS V14.01,2013-06-03 00:11:00,
2013-06-02 20:12:00,49.8,41.9,29.78,ENE,70,0.0,0.0,74,0.00,,OVC029,0.13,14.00,VWS V14.01,2013-06-03 00:12:00,
2013-06-02 20:13:00,49.6,42.0,29.78,ENE,70,0.0,0.0,75,0.00,,OVC029,0.13,14.00,VWS V14.01,2013-06-03 00:13:00,
2013-06-02 20:14:00,49.5,41.6,29.78,ENE,70,0.0,0.0,74,0.00,,OVC029,0.13,14.00,VWS V14.01,2013-06-03 00:14:00,
2013-06-02 20:15:00,49.5,41.9,29.78,ENE,70,0.0,0.0,75,0.00,,OVC029,0.13,14.00,VWS V14.01,2013-06-03 00:15:00,
2013-06-02 20:16:00,49.5,41.9,29.78,ENE,70,0.0,0.0,75,0.00,,OVC029,0.13,14.00,VWS V14.01,2013-06-03 00:16:00,
2013-06-02 20:17:00,49.5,41.9,29.78,ENE,70,0.0,0.0,75,0.00,,OVC029,0.13,14.00,VWS V14.01,2013-06-03 00:17:00,
2013-06-02 20:18:00,49.4,41.8,29.78,ENE,70,0.0,0.0,75,0.00,,OVC029,0.13,14.00,VWS V14.01,2013-06-03 00:18:00,
2013-06-02 20:19:00,49.4,41.5,29.78,ENE,70,0.0,0.0,74,0.00,,OVC029,0.13,14.00,VWS V14.01,2013-06-03 00:19:00,
2013-06-02 20:20:00,49.2,41.3,29.78,ENE,70,0.0,0.0,74,0.00,,OVC029,0.13,12.00,VWS V14.01,2013-06-03 00:20:00,
2013-06-02 20:21:00,49.2,41.3,29.78,ENE,70,0.0,0.0,74,0.00,,OVC029,0.13,12.00,VWS V14.01,2013-06-03 00:21:00,
2013-06-02 20:22:00,49.2,41.3,29.78,ENE,70,0.0,0.0,74,0.00,,OVC029,0.13,12.00,VWS V14.01,2013-06-03 00:22:00,
2013-06-02 20:23:00,49.2,40.9,29.78,ENE,70,0.0,0.0,73,0.00,,OVC029,0.13,12.00,VWS V14.01,2013-06-03 00:23:00,
2013-06-02 20:24:00,49.2,41.3,29.78,ENE,70,0.0,0.0,74,0.00,,OVC029,0.13,12.00,VWS V14.01,2013-06-03 00:24:00,
2013-06-02 20:25:00,49.2,41.3,29.78,ENE,70,0.0,0.0,74,0.00,,OVC029,0.13,12.00,VWS V14.01,2013-06-03 00:25:00,
2013-06-02 20:26:00,49.1,41.2,29.78,ENE,70,0.0,0.0,74,0.00,,OVC029,0.13,12.00,VWS V14.01,2013-06-03 00:26:00,
2013-06-02 20:27:00,49.1,41.2,29.78,ENE,70,0.0,0.0,74,0.00,,OVC029,0.13,12.00,VWS V14.01,2013-06-03 00:27:00,
2013-06-02 20:28:00,49.1,40.8,29.78,ENE,70,0.0,0.0,73,0.00,,OVC029,0.13,11.00,VWS V14.01,2013-06-03 00:28:00,
2013-06-02 20:29:00,48.9,41.0,29.78,ENE,70,0.0,0.0,74,0.00,,OVC029,0.13,11.00,VWS V14.01,2013-06-03 00:29:00,
2013-06-02 20:30:00,48.9,41.0,29.78,NNW,333,1.0,0.0,74,0.00,,OVC029,0.13,11.00,VWS V14.01,2013-06-03 00:30:00,
2013-06-02 20:31:00,48.9,41.0,29.78,NNW,327,0.0,0.0,74,0.00,,OVC029,0.13,11.00,VWS V14.01,2013-06-03 00:31:00,
2013-06-02 20:32:00,48.9,41.0,29.78,NNW,327,1.0,0.0,74,0.00,,OVC029,0.13,11.00,VWS V14.01,2013-06-03 00:32:00,
2013-06-02 20:33:00,48.9,41.0,29.78,NNW,329,0.0,0.0,74,0.00,,OVC029,0.13,11.00,VWS V14.01,2013-06-03 00:33:00,
2013-06-02 20:34:00,48.8,40.9,29.78,NNW,329,0.0,0.0,74,0.00,,OVC029,0.13,11.00,VWS V14.01,2013-06-03 00:34:00,
2013-06-02 20:35:00,48.8,40.9,29.78,NNW,329,0.0,0.0,74,0.00,,SCT029,0.13,11.00,VWS V14.01,2013-06-03 00:35:00,
2013-06-02 20:36:00,48.8,40.9,29.78,NE,36,0.0,0.0,74,0.00,,SCT029,0.13,9.00,VWS V14.01,2013-06-03 00:36:00,
2013-06-02 20:37:00,48.8,40.9,29.78,NE,36,0.0,0.0,74,0.00,,SCT029,0.13,9.00,VWS V14.01,2013-06-03 00:37:00,
2013-06-02 20:38:00,48.8,41.2,29.78,North,5,1.0,0.0,75,0.00,,SCT029,0.13,9.00,VWS V14.01,2013-06-03 00:38:00,
2013-06-02 20:39:00,48.8,40.9,29.78,North,5,0.0,0.0,74,0.00,,SCT029,0.13,9.00,VWS V14.01,2013-06-03 00:39:00,
2013-06-02 20:40:00,48.6,40.7,29.78,North,355,1.0,0.0,74,0.00,,SCT029,0.13,9.00,VWS V14.01,2013-06-03 00:40:00,
2013-06-02 20:41:00,48.6,40.7,29.78,North,355,0.0,0.0,74,0.00,,SCT029,0.13,9.00,VWS V14.01,2013-06-03 00:41:00,
2013-06-02 20:42:00,48.5,40.6,29.78,North,349,0.0,0.0,74,0.00,,SCT029,0.13,7.00,VWS V14.01,2013-06-03 00:42:00,
2013-06-02 20:43:00,48.5,40.6,29.78,North,349,0.0,0.0,74,0.00,,SCT029,0.13,7.00,VWS V14.01,2013-06-03 00:43:00,
2013-06-02 20:44:00,48.5,40.6,29.78,North,349,0.0,0.0,74,0.00,,SCT029,0.13,7.00,VWS V14.01,2013-06-03 00:44:00,
2013-06-02 20:45:00,48.5,40.6,29.78,North,349,0.0,0.0,74,0.00,,SCT029,0.13,7.00,VWS V14.01,2013-06-03 00:45:00,
2013-06-02 20:46:00,48.5,40.6,29.78,North,349,0.0,0.0,74,0.00,,SCT029,0.13,7.00,VWS V14.01,2013-06-03 00:46:00,
2013-06-02 20:47:00,48.5,41.0,29.78,ENE,73,2.0,0.0,75,0.00,,SCT029,0.13,7.00,VWS V14.01,2013-06-03 00:47:00,
2013-06-02 20:48:00,48.3,40.8,29.78,North,9,0.0,0.0,75,0.00,,SCT029,0.13,7.00,VWS V14.01,2013-06-03 00:48:00,
2013-06-02 20:49:00,48.3,40.8,29.78,North,9,0.0,0.0,75,0.00,,SCT029,0.13,7.00,VWS V14.01,2013-06-03 00:49:00,
2013-06-02 20:50:00,48.2,40.7,29.78,North,9,0.0,0.0,75,0.00,,SCT029,0.13,5.00,VWS V14.01,2013-06-03 00:50:00,
2013-06-02 20:51:00,48.2,40.7,29.78,ENE,74,0.0,0.0,75,0.00,,SCT029,0.13,5.00,VWS V14.01,2013-06-03 00:51:00,
2013-06-02 20:52:00,48.2,40.7,29.78,ENE,74,0.0,0.0,75,0.00,,SCT029,0.13,5.00,VWS V14.01,2013-06-03 00:52:00,
2013-06-02 20:53:00,48.2,41.0,29.78,ENE,72,0.0,0.0,76,0.00,,SCT029,0.13,5.00,VWS V14.01,2013-06-03 00:53:00,
2013-06-02 20:54:00,48.0,40.5,29.78,ENE,73,0.0,0.0,75,0.00,,SCT029,0.13,5.00,VWS V14.01,2013-06-03 00:54:00,
2013-06-02 20:55:00,48.0,40.5,29.78,ENE,73,0.0,0.0,75,0.00,,SCT029,0.13,5.00,VWS V14.01,2013-06-03 00:55:00,
2013-06-02 20:56:00,47.9,40.7,29.78,NE,36,0.0,0.0,76,0.00,,SCT029,0.13,0.00,VWS V14.01,2013-06-03 00:56:00,
2013-06-02 20:57:00,48.0,40.8,29.78,NE,36,0.0,0.0,76,0.00,,SCT029,0.13,0.00,VWS V14.01,2013-06-03 00:57:00,
2013-06-02 20:58:00,47.9,40.7,29.78,NE,36,0.0,0.0,76,0.00,,SCT029,0.13,0.00,VWS V14.01,2013-06-03 00:58:00,
2013-06-02 20:59:00,47.9,40.7,29.78,NNW,345,0.0,0.0,76,0.00,,SCT029,0.13,0.00,VWS V14.01,2013-06-03 00:59:00,
2013-06-02 21:00:00,47.7,40.5,29.78,NNW,345,0.0,0.0,76,0.00,,SCT029,0.13,0.00,VWS V14.01,2013-06-03 01:00:00,
2013-06-02 21:01:00,47.7,40.5,29.78,NNW,345,0.0,0.0,76,0.00,,SCT029,0.13,0.00,VWS V14.01,2013-06-03 01:01:00,
2013-06-02 21:02:00,47.7,40.8,29.78,NNW,345,0.0,0.0,77,0.00,,SCT029,0.13,0.00,VWS V14.01,2013-06-03 01:02:00,
2013-06-02 21:03:00,47.6,40.8,29.78,NNW,345,0.0,0.0,77,0.00,,SCT029,0.13,0.00,VWS V14.01,2013-06-03 01:03:00,
2013-06-02 21:04:00,47.6,40.8,29.78,WNW,288,0.0,0.0,77,0.00,,SCT029,0.13,0.00,VWS V14.01,2013-06-03 01:04:00,
2013-06-02 21:05:00,47.6,40.8,29.78,NW,309,0.0,0.0,77,0.00,,SCT029,0.13,0.00,VWS V14.01,2013-06-03 01:05:00,
2013-06-02 21:06:00,47.6,40.8,29.78,NW,309,0.0,0.0,77,0.00,,SCT029,0.13,0.00,VWS V14.01,2013-06-03 01:06:00,
2013-06-02 21:07:00,47.4,40.6,29.78,NW,309,0.0,0.0,77,0.00,,SCT029,0.13,0.00,VWS V14.01,2013-06-03 01:07:00,
2013-06-02 21:08:00,47.4,40.6,29.78,NW,309,0.0,0.0,77,0.00,,SCT029,0.13,0.00,VWS V14.01,2013-06-03 01:08:00,
2013-06-02 21:09:00,47.3,40.5,29.78,NW,309,0.0,0.0,77,0.00,,SCT029,0.13,0.00,VWS V14.01,2013-06-03 01:09:00,
2013-06-02 21:10:00,47.3,40.8,29.78,NW,310,0.0,0.0,78,0.00,,SCT029,0.13,0.00,VWS V14.01,2013-06-03 01:10:00,
2013-06-02 21:11:00,47.3,40.8,29.78,NNW,341,0.0,0.0,78,0.00,,SCT029,0.13,0.00,VWS V14.01,2013-06-03 01:11:00,
2013-06-02 21:12:00,47.3,40.8,29.78,NNW,341,0.0,0.0,78,0.00,,SCT029,0.13,0.00,VWS V14.01,2013-06-03 01:12:00,
2013-06-02 21:13:00,47.1,40.6,29.78,NNW,341,0.0,0.0,78,0.00,,SCT029,0.13,0.00,VWS V14.01,2013-06-03 01:13:00,
2013-06-02 21:14:00,47.1,40.6,29.78,NNW,341,0.0,0.0,78,0.00,,SCT029,0.13,0.00,VWS V14.01,2013-06-03 01:14:00,
2013-06-02 21:15:00,47.1,40.6,29.78,NNW,341,0.0,0.0,78,0.00,,CLR,0.13,0.00,VWS V14.01,2013-06-03 01:15:00,
2013-06-02 21:16:00,47.0,40.8,29.78,NNW,341,0.0,0.0,79,0.00,,CLR,0.13,0.00,VWS V14.01,2013-06-03 01:16:00,
2013-06-02 21:17:00,47.0,40.8,29.78,WSW,238,0.0,0.0,79,0.00,,CLR,0.13,0.00,VWS V14.01,2013-06-03 01:17:00,
2013-06-02 21:18:00,47.0,40.8,29.78,WSW,238,0.0,0.0,79,0.00,,CLR,0.13,0.00,VWS V14.01,2013-06-03 01:18:00,
2013-06-02 21:19:00,46.8,40.6,29.78,WSW,238,0.0,0.0,79,0.00,,CLR,0.13,0.00,VWS V14.01,2013-06-03 01:19:00,
2013-06-02 21:20:00,46.8,40.6,29.78,WNW,286,0.0,0.0,79,0.00,,CLR,0.13,0.00,VWS V14.01,2013-06-03 01:20:00,
2013-06-02 21:21:00,46.8,40.6,29.78,WNW,286,0.0,0.0,79,0.00,,CLR,0.13,0.00,VWS V14.01,2013-06-03 01:21:00,
2013-06-02 21:22:00,46.8,40.6,29.78,WNW,286,0.0,0.0,79,0.00,,CLR,0.13,0.00,VWS V14.01,2013-06-03 01:22:00,
2013-06-02 21:23:00,46.7,40.9,29.78,WNW,286,0.0,0.0,80,0.00,,CLR,0.13,0.00,VWS V14.01,2013-06-03 01:23:00,
2013-06-02 21:24:00,46.7,40.9,29.78,WNW,286,0.0,0.0,80,0.00,,CLR,0.13,0.00,VWS V14.01,2013-06-03 01:24:00,
2013-06-02 21:25:00,46.5,40.7,29.78,WNW,286,0.0,0.0,80,0.00,,CLR,0.13,0.00,VWS V14.01,2013-06-03 01:25:00,
2013-06-02 21:26:00,46.5,41.0,29.78,WNW,286,0.0,0.0,81,0.00,,CLR,0.13,0.00,VWS V14.01,2013-06-03 01:26:00,
2013-06-02 21:27:00,46.4,40.6,29.78,WNW,286,0.0,0.0,80,0.00,,CLR,0.13,0.00,VWS V14.01,2013-06-03 01:27:00,
2013-06-02 21:28:00,46.4,40.9,29.78,WNW,286,0.0,0.0,81,0.00,,CLR,0.13,0.00,VWS V14.01,2013-06-03 01:28:00,
2013-06-02 21:29:00,46.4,40.9,29.78,WNW,286,0.0,0.0,81,0.00,,CLR,0.13,0.00,VWS V14.01,2013-06-03 01:29:00,
2013-06-02 21:30:00,46.4,40.9,29.78,WNW,286,0.0,0.0,81,0.00,,CLR,0.13,0.00,VWS V14.01,2013-06-03 01:30:00,
2013-06-02 21:31:00,46.4,40.9,29.78,WNW,286,0.0,0.0,81,0.00,,CLR,0.13,0.00,VWS V14.01,2013-06-03 01:31:00,
2013-06-02 21:32:00,46.2,40.7,29.78,WNW,286,0.0,0.0,81,0.00,,CLR,0.13,0.00,VWS V14.01,2013-06-03 01:32:00,
2013-06-02 21:33:00,46.2,40.7,29.78,WNW,286,0.0,0.0,81,0.00,,CLR,0.13,0.00,VWS V14.01,2013-06-03 01:33:00,
2013-06-02 21:34:00,46.2,40.7,29.78,WNW,286,0.0,0.0,81,0.00,,CLR,0.13,0.00,VWS V14.01,2013-06-03 01:34:00,
2013-06-02 21:35:00,46.2,40.7,29.78,WNW,286,0.0,0.0,81,0.00,,CLR,0.13,0.00,VWS V14.01,2013-06-03 01:35:00,
2013-06-02 21:36:00,46.1,40.9,29.78,WNW,286,0.0,0.0,82,0.00,,CLR,0.13,0.00,VWS V14.01,2013-06-03 01:36:00,
2013-06-02 21:37:00,46.1,40.6,29.78,WNW,286,0.0,0.0,81,0.00,,CLR,0.13,0.00,VWS V14.01,2013-06-03 01:37:00,
2013-06-02 21:38:00,46.1,40.9,29.78,WNW,286,0.0,0.0,82,0.00,,CLR,0.13,0.00,VWS V14.01,2013-06-03 01:38:00,
2013-06-02 21:39:00,46.0,40.8,29.78,WNW,286,0.0,0.0,82,0.00,,CLR,0.13,0.00,VWS V14.01,2013-06-03 01:39:00,
2013-06-02 21:40:00,46.0,40.8,29.78,WNW,286,0.0,0.0,82,0.00,,CLR,0.13,0.00,VWS V14.01,2013-06-03 01:40:00,
2013-06-02 21:41:00,46.0,40.8,29.78,WNW,286,0.0,0.0,82,0.00,,CLR,0.13,0.00,VWS V14.01,2013-06-03 01:41:00,
2013-06-02 21:42:00,46.0,40.8,29.78,WNW,286,0.0,0.0,82,0.00,,CLR,0.13,0.00,VWS V14.01,2013-06-03 01:42:00,
2013-06-02 21:43:00,46.0,41.1,29.78,WNW,286,0.0,0.0,83,0.00,,CLR,0.13,0.00,VWS V14.01,2013-06-03 01:43:00,
2013-06-02 21:44:00,46.0,41.1,29.78,WNW,284,0.0,0.0,83,0.00,,CLR,0.13,0.00,VWS V14.01,2013-06-03 01:44:00,
2013-06-02 21:45:00,45.8,40.6,29.78,WNW,284,0.0,0.0,82,0.00,,CLR,0.13,0.00,VWS V14.01,2013-06-03 01:45:00,
2013-06-02 21:46:00,45.8,40.6,29.78,WNW,284,0.0,0.0,82,0.00,,CLR,0.13,0.00,VWS V14.01,2013-06-03 01:46:00,
2013-06-02 21:47:00,45.8,40.9,29.78,WNW,284,0.0,0.0,83,0.00,,CLR,0.13,0.00,VWS V14.01,2013-06-03 01:47:00,
2013-06-02 21:48:00,45.7,40.8,29.78,WNW,284,0.0,0.0,83,0.00,,CLR,0.13,0.00,VWS V14.01,2013-06-03 01:48:00,
2013-06-02 21:49:00,45.7,40.8,29.78,WNW,284,0.0,0.0,83,0.00,,CLR,0.13,0.00,VWS V14.01,2013-06-03 01:49:00,
2013-06-02 21:50:00,45.7,40.8,29.78,WNW,284,0.0,0.0,83,0.00,,CLR,0.13,0.00,VWS V14.01,2013-06-03 01:50:00,
2013-06-02 21:51:00,45.7,40.8,29.78,WNW,284,0.0,0.0,83,0.00,,CLR,0.13,0.00,VWS V14.01,2013-06-03 01:51:00,
2013-06-02 21:52:00,45.7,40.8,29.78,WNW,284,0.0,0.0,83,0.00,,CLR,0.13,0.00,VWS V14.01,2013-06-03 01:52:00,
2013-06-02 21:53:00,45.5,41.0,29.78,WNW,284,0.0,0.0,84,0.00,,CLR,0.13,0.00,VWS V14.01,2013-06-03 01:53:00,
2013-06-02 21:54:00,45.5,41.0,29.78,WNW,284,0.0,0.0,84,0.00,,CLR,0.13,0.00,VWS V14.01,2013-06-03 01:54:00,
2013-06-02 21:55:00,45.5,41.0,29.78,WNW,284,0.0,0.0,84,0.00,,CLR,0.13,0.00,VWS V14.01,2013-06-03 01:55:00,
2013-06-02 21:56:00,45.5,41.0,29.78,WNW,284,0.0,0.0,84,0.00,,CLR,0.13,0.00,VWS V14.01,2013-06-03 01:56:00,
2013-06-02 21:57:00,45.5,41.0,29.78,WNW,284,0.0,0.0,84,0.00,,CLR,0.13,0.00,VWS V14.01,2013-06-03 01:57:00,
2013-06-02 21:58:00,45.5,41.0,29.78,WNW,284,0.0,0.0,84,0.00,,CLR,0.13,0.00,VWS V14.01,2013-06-03 01:58:00,
2013-06-02 21:59:00,45.5,41.0,29.78,WNW,284,0.0,0.0,84,0.00,,CLR,0.13,0.00,VWS V14.01,2013-06-03 01:59:00,
2013-06-02 22:00:00,45.4,40.9,29.79,WNW,284,0.0,0.0,84,0.00,,CLR,0.13,0.00,VWS V14.01,2013-06-03 02:00:00,
2013-06-02 22:01:00,45.4,40.9,29.79,WNW,284,0.0,0.0,84,0.00,,CLR,0.13,0.00,VWS V14.01,2013-06-03 02:01:00,
2013-06-02 22:02:00,45.4,40.9,29.79,WNW,284,0.0,0.0,84,0.00,,CLR,0.13,0.00,VWS V14.01,2013-06-03 02:02:00,
2013-06-02 22:03:00,45.4,40.9,29.79,WNW,284,0.0,0.0,84,0.00,,CLR,0.13,0.00,VWS V14.01,2013-06-03 02:03:00,
2013-06-02 22:04:00,45.2,41.0,29.79,WNW,284,0.0,0.0,85,0.00,,CLR,0.13,0.00,VWS V14.01,2013-06-03 02:04:00,
2013-06-02 22:05:00,45.2,40.7,29.79,WNW,284,0.0,0.0,84,0.00,,CLR,0.13,0.00,VWS V14.01,2013-06-03 02:05:00,
2013-06-02 22:06:00,45.2,41.0,29.79,WNW,284,0.0,0.0,85,0.00,,CLR,0.13,0.00,VWS V14.01,2013-06-03 02:06:00,
2013-06-02 22:07:00,45.2,41.0,29.79,WNW,284,0.0,0.0,85,0.00,,CLR,0.13,0.00,VWS V14.01,2013-06-03 02:07:00,
2013-06-02 22:08:00,45.2,41.0,29.79,WNW,284,0.0,0.0,85,0.00,,CLR,0.13,0.00,VWS V14.01,2013-06-03 02:08:00,
2013-06-02 22:09:00,45.2,41.0,29.79,WNW,284,0.0,0.0,85,0.00,,CLR,0.13,0.00,VWS V14.01,2013-06-03 02:09:00,
2013-06-02 22:10:00,45.2,41.0,29.79,WNW,284,0.0,0.0,85,0.00,,CLR,0.13,0.00,VWS V14.01,2013-06-03 02:10:00,
2013-06-02 22:11:00,45.2,41.0,29.79,NW,317,0.0,0.0,85,0.00,,CLR,0.13,0.00,VWS V14.01,2013-06-03 02:11:00,
2013-06-02 22:12:00,45.2,41.0,29.79,NW,317,0.0,0.0,85,0.00,,CLR,0.13,0.00,VWS V14.01,2013-06-03 02:12:00,
2013-06-02 22:13:00,45.1,40.9,29.79,NW,317,0.0,0.0,85,0.00,,CLR,0.13,0.00,VWS V14.01,2013-06-03 02:13:00,
2013-06-02 22:14:00,45.1,40.9,29.79,NW,317,0.0,0.0,85,0.00,,CLR,0.13,0.00,VWS V14.01,2013-06-03 02:14:00,
2013-06-02 22:15:00,45.1,40.9,29.80,NW,317,0.0,0.0,85,0.00,,CLR,0.13,0.00,VWS V14.01,2013-06-03 02:15:00,
2013-06-02 22:16:00,45.1,40.9,29.80,NW,317,0.0,0.0,85,0.00,,CLR,0.13,0.00,VWS V14.01,2013-06-03 02:16:00,
2013-06-02 22:17:00,45.1,40.9,29.80,NW,317,0.0,0.0,85,0.00,,CLR,0.13,0.00,VWS V14.01,2013-06-03 02:17:00,
2013-06-02 22:18:00,45.1,40.9,29.80,NW,317,0.0,0.0,85,0.00,,CLR,0.13,0.00,VWS V14.01,2013-06-03 02:18:00,
2013-06-02 22:19:00,45.1,40.9,29.80,NW,317,0.0,0.0,85,0.00,,CLR,0.13,0.00,VWS V14.01,2013-06-03 02:19:00,
2013-06-02 22:20:00,45.1,41.2,29.80,NW,317,0.0,0.0,86,0.00,,CLR,0.13,0.00,VWS V14.01,2013-06-03 02:20:00,
2013-06-02 22:21:00,45.1,41.2,29.80,NW,317,0.0,0.0,86,0.00,,CLR,0.13,0.00,VWS V14.01,2013-06-03 02:21:00,
2013-06-02 22:22:00,44.9,41.0,29.80,NW,317,0.0,0.0,86,0.00,,CLR,0.13,0.00,VWS V14.01,2013-06-03 02:22:00,
2013-06-02 22:23:00,44.9,41.0,29.80,NW,317,0.0,0.0,86,0.00,,CLR,0.13,0.00,VWS V14.01,2013-06-03 02:23:00,
2013-06-02 22:24:00,44.9,41.0,29.80,NW,317,0.0,0.0,86,0.00,,CLR,0.13,0.00,VWS V14.01,2013-06-03 02:24:00,
2013-06-02 22:25:00,44.9,41.0,29.80,NW,317,0.0,0.0,86,0.00,,CLR,0.13,0.00,VWS V14.01,2013-06-03 02:25:00,
2013-06-02 22:26:00,44.9,41.0,29.80,NW,317,0.0,0.0,86,0.00,,CLR,0.13,0.00,VWS V14.01,2013-06-03 02:26:00,
2013-06-02 22:27:00,44.9,41.0,29.80,North,351,0.0,0.0,86,0.00,,CLR,0.13,0.00,VWS V14.01,2013-06-03 02:27:00,
2013-06-02 22:28:00,44.9,41.0,29.80,North,351,0.0,0.0,86,0.00,,CLR,0.13,0.00,VWS V14.01,2013-06-03 02:28:00,
2013-06-02 22:29:00,44.8,40.9,29.80,North,351,0.0,0.0,86,0.00,,CLR,0.13,0.00,VWS V14.01,2013-06-03 02:29:00,
2013-06-02 22:30:00,44.8,40.9,29.80,North,351,0.0,0.0,86,0.00,,CLR,0.13,0.00,VWS V14.01,2013-06-03 02:30:00,
2013-06-02 22:31:00,44.8,40.9,29.80,North,351,0.0,0.0,86,0.00,,CLR,0.13,0.00,VWS V14.01,2013-06-03 02:31:00,
2013-06-02 22:32:00,44.8,40.9,29.80,North,351,0.0,0.0,86,0.00,,CLR,0.13,0.00,VWS V14.01,2013-06-03 02:32:00,
2013-06-02 22:33:00,44.8,40.9,29.80,North,351,0.0,0.0,86,0.00,,CLR,0.13,0.00,VWS V14.01,2013-06-03 02:33:00,
2013-06-02 22:34:00,44.8,40.9,29.80,North,351,0.0,0.0,86,0.00,,CLR,0.13,0.00,VWS V14.01,2013-06-03 02:34:00,
2013-06-02 22:35:00,44.8,40.9,29.80,North,351,0.0,0.0,86,0.00,,CLR,0.13,0.00,VWS V14.01,2013-06-03 02:35:00,
2013-06-02 22:36:00,44.8,40.9,29.80,North,351,0.0,0.0,86,0.00,,CLR,0.13,0.00,VWS V14.01,2013-06-03 02:36:00,
2013-06-02 22:37:00,44.8,41.2,29.80,North,351,0.0,0.0,87,0.00,,CLR,0.13,0.00,VWS V14.01,2013-06-03 02:37:00,
2013-06-02 22:38:00,44.8,41.2,29.80,North,351,0.0,0.0,87,0.00,,CLR,0.13,0.00,VWS V14.01,2013-06-03 02:38:00,
2013-06-02 22:39:00,44.6,41.0,29.80,North,351,0.0,0.0,87,0.00,,CLR,0.13,0.00,VWS V14.01,2013-06-03 02:39:00,
2013-06-02 22:40:00,44.6,41.0,29.80,North,351,0.0,0.0,87,0.00,,CLR,0.13,0.00,VWS V14.01,2013-06-03 02:40:00,
2013-06-02 22:41:00,44.6,41.0,29.80,North,351,0.0,0.0,87,0.00,,CLR,0.13,0.00,VWS V14.01,2013-06-03 02:41:00,
2013-06-02 22:42:00,44.6,41.0,29.80,North,351,0.0,0.0,87,0.00,,CLR,0.13,0.00,VWS V14.01,2013-06-03 02:42:00,
2013-06-02 22:43:00,44.6,41.0,29.80,North,351,0.0,0.0,87,0.00,,CLR,0.13,0.00,VWS V14.01,2013-06-03 02:43:00,
2013-06-02 22:44:00,44.6,41.0,29.80,North,351,0.0,0.0,87,0.00,,CLR,0.13,0.00,VWS V14.01,2013-06-03 02:44:00,
2013-06-02 22:45:00,44.6,41.0,29.80,North,351,0.0,0.0,87,0.00,,CLR,0.13,0.00,VWS V14.01,2013-06-03 02:45:00,
2013-06-02 22:46:00,44.6,41.0,29.80,North,351,0.0,0.0,87,0.00,,CLR,0.13,0.00,VWS V14.01,2013-06-03 02:46:00,
2013-06-02 22:47:00,44.5,40.9,29.80,North,351,0.0,0.0,87,0.00,,CLR,0.13,0.00,VWS V14.01,2013-06-03 02:47:00,
2013-06-02 22:48:00,44.5,40.9,29.80,North,351,0.0,0.0,87,0.00,,CLR,0.13,0.00,VWS V14.01,2013-06-03 02:48:00,
2013-06-02 22:49:00,44.5,40.9,29.80,North,351,0.0,0.0,87,0.00,,CLR,0.13,0.00,VWS V14.01,2013-06-03 02:49:00,
2013-06-02 22:50:00,44.5,40.9,29.80,North,351,0.0,0.0,87,0.00,,CLR,0.13,0.00,VWS V14.01,2013-06-03 02:50:00,
2013-06-02 22:51:00,44.3,40.7,29.80,North,351,0.0,0.0,87,0.00,,CLR,0.13,0.00,VWS V14.01,2013-06-03 02:51:00,
2013-06-02 22:52:00,44.3,40.7,29.80,North,351,0.0,0.0,87,0.00,,CLR,0.13,0.00,VWS V14.01,2013-06-03 02:52:00,
2013-06-02 22:53:00,44.3,40.7,29.80,North,351,0.0,0.0,87,0.00,,CLR,0.13,0.00,VWS V14.01,2013-06-03 02:53:00,
2013-06-02 22:54:00,44.3,40.7,29.80,North,351,0.0,0.0,87,0.00,,CLR,0.13,0.00,VWS V14.01,2013-06-03 02:54:00,
2013-06-02 22:55:00,44.2,40.9,29.80,North,351,0.0,0.0,88,0.00,,CLR,0.13,0.00,VWS V14.01,2013-06-03 02:55:00,
2013-06-02 22:56:00,44.2,40.9,29.80,North,351,0.0,0.0,88,0.00,,CLR,0.13,0.00,VWS V14.01,2013-06-03 02:56:00,
2013-06-02 22:57:00,44.2,40.9,29.80,North,351,0.0,0.0,88,0.00,,CLR,0.13,0.00,VWS V14.01,2013-06-03 02:57:00,
2013-06-02 22:58:00,44.2,40.9,29.80,North,351,0.0,0.0,88,0.00,,CLR,0.13,0.00,VWS V14.01,2013-06-03 02:58:00,
2013-06-02 22:59:00,44.2,40.9,29.80,North,351,0.0,0.0,88,0.00,,CLR,0.13,0.00,VWS V14.01,2013-06-03 02:59:00,
2013-06-02 23:00:00,44.2,40.9,29.81,North,351,0.0,0.0,88,0.00,,CLR,0.13,0.00,VWS V14.01,2013-06-03 03:00:00,
2013-06-02 23:01:00,44.2,40.9,29.81,North,351,0.0,0.0,88,0.00,,CLR,0.13,0.00,VWS V14.01,2013-06-03 03:01:00,
2013-06-02 23:02:00,44.2,40.9,29.81,North,351,0.0,0.0,88,0.00,,CLR,0.13,0.00,VWS V14.01,2013-06-03 03:02:00,
2013-06-02 23:03:00,44.2,40.9,29.81,North,351,0.0,0.0,88,0.00,,CLR,0.13,0.00,VWS V14.01,2013-06-03 03:03:00,
2013-06-02 23:04:00,44.2,40.9,29.81,North,351,0.0,0.0,88,0.00,,CLR,0.13,0.00,VWS V14.01,2013-06-03 03:04:00,
2013-06-02 23:05:00,44.2,40.9,29.81,North,351,0.0,0.0,88,0.00,,CLR,0.13,0.00,VWS V14.01,2013-06-03 03:05:00,
2013-06-02 23:06:00,44.2,40.9,29.81,North,351,0.0,0.0,88,0.00,,CLR,0.13,0.00,VWS V14.01,2013-06-03 03:06:00,
2013-06-02 23:07:00,44.2,40.9,29.81,North,351,0.0,0.0,88,0.00,,CLR,0.13,0.00,VWS V14.01,2013-06-03 03:07:00,
2013-06-02 23:08:00,44.2,40.9,29.81,North,351,0.0,0.0,88,0.00,,CLR,0.13,0.00,VWS V14.01,2013-06-03 03:08:00,
2013-06-02 23:09:00,44.2,40.9,29.81,North,351,0.0,0.0,88,0.00,,CLR,0.13,0.00,VWS V14.01,2013-06-03 03:09:00,
2013-06-02 23:10:00,44.2,40.9,29.81,North,351,0.0,0.0,88,0.00,,CLR,0.13,0.00,VWS V14.01,2013-06-03 03:10:00,
2013-06-02 23:11:00,44.2,40.9,29.81,North,351,0.0,0.0,88,0.00,,CLR,0.13,0.00,VWS V14.01,2013-06-03 03:11:00,
2013-06-02 23:12:00,44.2,40.9,29.81,North,351,0.0,0.0,88,0.00,,CLR,0.13,0.00,VWS V14.01,2013-06-03 03:12:00,
2013-06-02 23:13:00,44.2,40.9,29.81,North,351,0.0,0.0,88,0.00,,CLR,0.13,0.00,VWS V14.01,2013-06-03 03:13:00,
2013-06-02 23:14:00,44.2,40.9,29.81,North,351,0.0,0.0,88,0.00,,CLR,0.13,0.00,VWS V14.01,2013-06-03 03:14:00,
2013-06-02 23:15:00,44.2,40.9,29.81,North,351,0.0,0.0,88,0.00,,CLR,0.13,0.00,VWS V14.01,2013-06-03 03:15:00,
2013-06-02 23:16:00,44.2,40.9,29.81,North,351,0.0,0.0,88,0.00,,CLR,0.13,0.00,VWS V14.01,2013-06-03 03:16:00,
2013-06-02 23:17:00,44.2,40.9,29.81,North,351,0.0,0.0,88,0.00,,CLR,0.13,0.00,VWS V14.01,2013-06-03 03:17:00,
2013-06-02 23:18:00,44.2,40.9,29.81,North,351,0.0,0.0,88,0.00,,CLR,0.13,0.00,VWS V14.01,2013-06-03 03:18:00,
2013-06-02 23:19:00,44.2,40.9,29.81,North,351,0.0,0.0,88,0.00,,CLR,0.13,0.00,VWS V14.01,2013-06-03 03:19:00,
2013-06-02 23:20:00,44.2,40.9,29.81,North,351,0.0,0.0,88,0.00,,CLR,0.13,0.00,VWS V14.01,2013-06-03 03:20:00,
2013-06-02 23:21:00,44.2,40.9,29.81,North,351,0.0,0.0,88,0.00,,CLR,0.13,0.00,VWS V14.01,2013-06-03 03:21:00,
2013-06-02 23:22:00,44.2,40.9,29.81,North,351,0.0,0.0,88,0.00,,CLR,0.13,0.00,VWS V14.01,2013-06-03 03:22:00,
2013-06-02 23:23:00,44.2,40.9,29.81,North,351,0.0,0.0,88,0.00,,CLR,0.13,0.00,VWS V14.01,2013-06-03 03:23:00,
2013-06-02 23:24:00,44.2,40.9,29.81,North,351,0.0,0.0,88,0.00,,CLR,0.13,0.00,VWS V14.01,2013-06-03 03:24:00,
2013-06-02 23:25:00,44.2,40.9,29.81,North,351,0.0,0.0,88,0.00,,CLR,0.13,0.00,VWS V14.01,2013-06-03 03:25:00,
2013-06-02 23:26:00,44.2,40.9,29.81,North,351,0.0,0.0,88,0.00,,CLR,0.13,0.00,VWS V14.01,2013-06-03 03:26:00,
2013-06-02 23:27:00,44.1,40.8,29.81,North,351,0.0,0.0,88,0.00,,CLR,0.13,0.00,VWS V14.01,2013-06-03 03:27:00,
2013-06-02 23:28:00,44.1,40.8,29.81,North,351,0.0,0.0,88,0.00,,CLR,0.13,0.00,VWS V14.01,2013-06-03 03:28:00,
2013-06-02 23:29:00,44.1,40.8,29.81,North,351,0.0,0.0,88,0.00,,CLR,0.13,0.00,VWS V14.01,2013-06-03 03:29:00,
2013-06-02 23:30:00,44.1,40.8,29.81,North,351,0.0,0.0,88,0.00,,CLR,0.13,0.00,VWS V14.01,2013-06-03 03:30:00,
2013-06-02 23:31:00,44.1,40.8,29.81,North,351,0.0,0.0,88,0.00,,CLR,0.13,0.00,VWS V14.01,2013-06-03 03:31:00,
2013-06-02 23:32:00,44.1,40.8,29.81,North,351,0.0,0.0,88,0.00,,CLR,0.13,0.00,VWS V14.01,2013-06-03 03:32:00,
2013-06-02 23:33:00,44.1,40.8,29.81,North,351,0.0,0.0,88,0.00,,CLR,0.13,0.00,VWS V14.01,2013-06-03 03:33:00,
2013-06-02 23:34:00,44.1,40.8,29.81,North,351,0.0,0.0,88,0.00,,CLR,0.13,0.00,VWS V14.01,2013-06-03 03:34:00,
2013-06-02 23:35:00,44.1,40.8,29.81,North,351,0.0,0.0,88,0.00,,CLR,0.13,0.00,VWS V14.01,2013-06-03 03:35:00,
2013-06-02 23:36:00,44.1,40.8,29.81,North,351,0.0,0.0,88,0.00,,CLR,0.13,0.00,VWS V14.01,2013-06-03 03:36:00,
2013-06-02 23:37:00,44.1,40.8,29.81,North,351,0.0,0.0,88,0.00,,CLR,0.13,0.00,VWS V14.01,2013-06-03 03:37:00,
2013-06-02 23:38:00,44.1,40.8,29.81,North,351,0.0,0.0,88,0.00,,CLR,0.13,0.00,VWS V14.01,2013-06-03 03:38:00,
2013-06-02 23:39:00,43.9,40.6,29.81,North,351,0.0,0.0,88,0.00,,CLR,0.13,0.00,VWS V14.01,2013-06-03 03:39:00,
2013-06-02 23:40:00,43.9,40.6,29.81,North,351,0.0,0.0,88,0.00,,CLR,0.13,0.00,VWS V14.01,2013-06-03 03:40:00,
2013-06-02 23:41:00,43.9,40.6,29.81,North,351,0.0,0.0,88,0.00,,CLR,0.13,0.00,VWS V14.01,2013-06-03 03:41:00,
2013-06-02 23:42:00,43.9,40.6,29.81,North,351,0.0,0.0,88,0.00,,CLR,0.13,0.00,VWS V14.01,2013-06-03 03:42:00,
2013-06-02 23:43:00,43.9,40.6,29.81,North,351,0.0,0.0,88,0.00,,CLR,0.13,0.00,VWS V14.01,2013-06-03 03:43:00,
2013-06-02 23:44:00,43.9,40.6,29.81,North,351,0.0,0.0,88,0.00,,CLR,0.13,0.00,VWS V14.01,2013-06-03 03:44:00,
2013-06-02 23:45:00,43.9,40.6,29.81,North,351,0.0,0.0,88,0.00,,CLR,0.13,0.00,VWS V14.01,2013-06-03 03:45:00,
2013-06-02 23:46:00,43.9,40.6,29.81,North,351,0.0,0.0,88,0.00,,CLR,0.13,0.00,VWS V14.01,2013-06-03 03:46:00,
2013-06-02 23:47:00,43.9,40.6,29.81,North,351,0.0,0.0,88,0.00,,CLR,0.13,0.00,VWS V14.01,2013-06-03 03:47:00,
2013-06-02 23:48:00,43.9,40.6,29.81,North,351,0.0,0.0,88,0.00,,CLR,0.13,0.00,VWS V14.01,2013-06-03 03:48:00,
2013-06-02 23:49:00,43.8,40.5,29.81,North,351,0.0,0.0,88,0.00,,CLR,0.13,0.00,VWS V14.01,2013-06-03 03:49:00,
2013-06-02 23:50:00,43.8,40.5,29.81,North,351,0.0,0.0,88,0.00,,CLR,0.13,0.00,VWS V14.01,2013-06-03 03:50:00,
2013-06-02 23:51:00,43.8,40.5,29.81,North,351,0.0,0.0,88,0.00,,CLR,0.13,0.00,VWS V14.01,2013-06-03 03:51:00,
2013-06-02 23:52:00,43.8,40.5,29.81,North,351,0.0,0.0,88,0.00,,CLR,0.13,0.00,VWS V14.01,2013-06-03 03:52:00,
2013-06-02 23:53:00,43.8,40.5,29.81,North,351,0.0,0.0,88,0.00,,CLR,0.13,0.00,VWS V14.01,2013-06-03 03:53:00,
2013-06-02 23:54:00,43.8,40.5,29.81,North,351,0.0,0.0,88,0.00,,CLR,0.13,0.00,VWS V14.01,2013-06-03 03:54:00,
2013-06-02 23:55:00,43.8,40.5,29.81,North,351,0.0,0.0,88,0.00,,CLR,0.13,0.00,VWS V14.01,2013-06-03 03:55:00,
2013-06-02 23:56:00,43.8,40.5,29.81,North,351,0.0,0.0,88,0.00,,CLR,0.13,0.00,VWS V14.01,2013-06-03 03:56:00,
2013-06-02 23:57:00,43.8,40.5,29.81,North,351,0.0,0.0,88,0.00,,CLR,0.13,0.00,VWS V14.01,2013-06-03 03:57:00,
2013-06-02 23:58:00,43.8,40.5,29.81,North,351,0.0,0.0,88,0.00,,CLR,0.13,0.00,VWS V14.01,2013-06-03 03:58:00,
2013-06-02 23:59:00,43.8,40.5,29.81,North,351,0.0,0.0,88,0.00,,CLR,0.13,0.00,VWS V14.01,2013-06-03 03:59:00,